[[{"header":{"parameterUnit":"m.s-1","parameterCategory":1,"la1":30.6,"la2":29.2853,"lo1":-89.7004,"lo2":-87.6739,"dy":0.0162,"dx":0.0183,"nx":112,"ny":82,"refTime":"2026-04-17T12:00:00:Z","depth":0,"parameterNumber":2,"parameterNumberName":"U-component_of_WINDS"},"data":[0.0,0.0,0.0,0.0,0.0,0.0,0.0,0.0,0.0,0.0,0.0,0.0,0.0,0.0,0.0,0.0,0.0,0.0,0.0,0.0,0.0,0.0,0.0,0.0,0.0,0.0,0.0,0.0,0.0,0.0,0.0,0.0,0.0,0.0,0.0,0.0,0.0,0.0,0.0,0.0,0.0,0.0,0.0,0.0,0.0,0.0,0.0,0.0,0.0,0.0,0.0,0.0,0.0,0.0,0.0,0.0,0.0,0.0,0.0,0.0,0.0,0.0,0.0,0.0,0.0,0.0,0.0,0.0,0.0,0.0,0.0,0.0,0.0,0.0,0.0,0.0,0.0,0.0,0.0,0.0,0.0,0.0,0.0,0.0,0.0,0.0,0.0,0.0,0.0,0.0,-0.6615,-0.7562,-0.7753,-0.7923,-0.8217,-0.844,-0.8725,-0.9104,0.0,0.0,0.0,0.0,0.0,0.0,0.0,0.0,0.0,0.0,0.0,0.0,0.0,0.0,0.0,0.0,0.0,0.0,0.0,0.0,0.0,0.0,0.0,0.0,0.0,0.0,0.0,0.0,0.0,0.0,0.0,0.0,0.0,0.0,0.0,0.0,0.0,0.0,0.0,0.0,0.0,0.0,0.0,0.0,0.0,0.0,0.0,0.0,0.0,0.0,0.0,0.0,0.0,0.0,0.0,0.0,0.0,0.0,0.0,0.0,0.0,0.0,0.0,0.0,0.0,0.0,0.0,0.0,0.0,0.0,0.0,0.0,0.0,0.0,0.0,0.0,0.0,0.0,0.0,0.0,0.0,0.0,0.0,0.0,0.0,0.0,0.0,0.0,0.0,0.0,0.0,0.0,0.0,0.0,0.0,0.0,0.0,0.0,0.0,0.0,0.0,0.0,0.0,0.0,-0.6303,-0.6969,-0.7553,-0.7906,-0.7963,-0.7952,-0.8182,-0.8747,0.0,0.0,0.0,0.0,0.0,0.0,0.0,0.0,0.0,0.0,0.0,0.0,0.0,0.0,0.0,0.0,0.0,0.0,0.0,0.0,0.0,0.0,0.0,0.0,0.0,0.0,0.0,0.0,0.0,0.0,0.0,0.0,0.0,0.0,0.0,0.0,0.0,0.0,0.0,0.0,0.0,0.0,0.0,0.0,0.0,0.0,0.0,0.0,0.0,0.0,0.0,0.0,0.0,0.0,0.0,0.0,0.0,0.0,0.0,0.0,0.0,0.0,0.0,0.0,0.0,0.0,0.0,0.0,0.0,0.0,0.0,0.0,0.0,0.0,0.0,0.0,0.0,0.0,0.0,0.0,0.0,0.0,0.0,0.0,0.0,0.0,0.0,0.0,0.0,0.0,0.0,0.0,0.0,0.0,0.0,0.0,0.0,0.0,0.0,0.0,0.0,0.0,0.0,-0.6882,-0.6802,-0.7234,-0.7417,-0.7576,-0.7724,-0.7569,-0.773,-0.8334,-0.8548,0.0,0.0,0.0,0.0,0.0,0.0,0.0,0.0,0.0,0.0,0.0,0.0,0.0,0.0,0.0,0.0,0.0,0.0,0.0,0.0,0.0,0.0,0.0,0.0,0.0,0.0,0.0,0.0,0.0,0.0,0.0,0.0,0.0,0.0,0.0,0.0,0.0,0.0,0.0,0.0,0.0,0.0,0.0,0.0,0.0,0.0,0.0,0.0,0.0,0.0,0.0,0.0,0.0,0.0,0.0,0.0,0.0,0.0,0.0,0.0,0.0,0.0,0.0,0.0,0.0,0.0,0.0,0.0,0.0,0.0,0.0,0.0,0.0,0.0,0.0,0.0,0.0,0.0,0.0,0.0,0.0,0.0,0.0,0.0,0.0,0.0,0.0,0.0,0.0,0.0,0.0,0.0,0.0,0.0,0.0,0.0,0.0,0.0,0.0,0.0,0.0,0.0,-0.7312,-0.7186,-0.7346,-0.7256,-0.728,-0.7485,-0.7311,-0.7465,-0.8061,-0.8095,0.0,0.0,0.0,0.0,0.0,0.0,0.0,0.0,0.0,0.0,0.0,0.0,0.0,0.0,0.0,0.0,0.0,0.0,0.0,0.0,0.0,0.0,0.0,0.0,0.0,0.0,0.0,0.0,0.0,0.0,0.0,0.0,0.0,0.0,0.0,0.0,0.0,0.0,0.0,0.0,0.0,0.0,0.0,0.0,0.0,0.0,0.0,0.0,0.0,0.0,0.0,0.0,0.0,0.0,0.0,0.0,0.0,0.0,0.0,0.0,0.0,0.0,0.0,0.0,0.0,0.0,0.0,0.0,0.0,0.0,0.0,0.0,0.0,0.0,0.0,0.0,0.0,0.0,0.0,0.0,0.0,0.0,0.0,0.0,0.0,0.0,0.0,0.0,0.0,0.0,0.0,0.0,0.0,0.0,0.0,0.0,0.0,0.0,0.0,0.0,0.0,0.0,-0.6945,-0.6855,-0.6693,-0.6994,-0.7203,-0.7233,-0.7203,-0.7465,-0.8061,-0.8095,0.0,0.0,0.0,0.0,0.0,0.0,0.0,0.0,0.0,0.0,0.0,0.0,0.0,0.0,0.0,0.0,0.0,0.0,0.0,0.0,0.0,0.0,0.0,0.0,0.0,0.0,0.0,0.0,0.0,0.0,0.0,0.0,0.0,0.0,0.0,0.0,0.0,0.0,0.0,0.0,0.0,0.0,0.0,0.0,0.0,0.0,0.0,0.0,0.0,0.0,0.0,0.0,0.0,0.0,0.0,0.0,0.0,0.0,0.0,0.0,0.0,0.0,0.0,0.0,0.0,0.0,0.0,0.0,0.0,0.0,0.0,0.0,0.0,0.0,0.0,0.0,0.0,0.0,0.0,0.0,0.0,0.0,0.0,0.0,0.0,0.0,0.0,0.0,0.0,0.0,0.0,0.0,0.0,0.0,0.0,0.0,0.0,0.0,0.0,0.0,0.0,0.0,-0.6642,-0.6502,-0.6592,-0.674,-0.6873,-0.7004,-0.6898,-0.7138,-0.7873,0.0,0.0,0.0,0.0,0.0,0.0,0.0,0.0,0.0,0.0,0.0,0.0,0.0,0.0,0.0,0.0,0.0,0.0,0.0,0.0,0.0,0.0,0.0,0.0,0.0,0.0,0.0,0.0,0.0,0.0,0.0,0.0,0.0,0.0,0.0,0.0,0.0,0.0,0.0,0.0,0.0,0.0,0.0,0.0,0.0,0.0,0.0,0.0,0.0,0.0,0.0,0.0,0.0,0.0,0.0,0.0,0.0,0.0,0.0,0.0,0.0,0.0,0.0,0.0,0.0,0.0,0.0,0.0,0.0,0.0,0.0,0.0,0.0,0.0,0.0,0.0,0.0,0.0,0.0,0.0,0.0,0.0,0.0,0.0,0.0,0.0,0.0,0.0,0.0,0.0,0.0,0.0,0.0,0.0,0.0,0.0,0.0,0.0,0.0,0.0,0.0,0.0,-0.6907,-0.6433,-0.6201,-0.6454,-0.6548,-0.6659,-0.6791,-0.6573,-0.6804,-0.7643,0.0,0.0,0.0,0.0,0.0,0.0,0.0,0.0,0.0,0.0,0.0,0.0,0.0,0.0,0.0,0.0,0.0,0.0,0.0,0.0,0.0,0.0,0.0,0.0,0.0,0.0,0.0,0.0,0.0,0.0,0.0,0.0,0.0,0.0,0.0,0.0,0.0,0.0,0.0,0.0,0.0,0.0,0.0,0.0,0.0,0.0,0.0,0.0,0.0,0.0,0.0,0.0,0.0,0.0,0.0,0.0,0.0,0.0,0.0,0.0,0.0,0.0,0.0,0.0,0.0,0.0,0.0,0.0,0.0,0.0,0.0,0.0,0.0,0.0,0.0,0.0,0.0,0.0,0.0,0.0,0.0,0.0,0.0,0.0,0.0,0.0,0.0,0.0,0.0,0.0,0.0,0.0,0.0,0.0,0.0,0.0,0.0,0.0,0.0,0.0,0.0,0.0,-0.6883,-0.6315,-0.5982,-0.6183,-0.6436,-0.6599,-0.6599,-0.629,-0.6494,0.0,0.0,0.0,0.0,0.0,0.0,0.0,0.0,0.0,0.0,0.0,0.0,0.0,0.0,0.0,0.0,0.0,0.0,0.0,0.0,0.0,0.0,0.0,0.0,0.0,0.0,0.0,0.0,0.0,0.0,0.0,0.0,0.0,0.0,0.0,0.0,0.0,0.0,0.0,0.0,0.0,0.0,0.0,0.0,0.0,0.0,0.0,0.0,0.0,0.0,0.0,0.0,0.0,0.0,0.0,0.0,0.0,0.0,0.0,0.0,0.0,0.0,0.0,0.0,0.0,0.0,0.0,0.0,0.0,0.0,0.0,0.0,0.0,0.0,0.0,0.0,0.0,0.0,0.0,0.0,0.0,0.0,0.0,0.0,0.0,0.0,0.0,0.0,0.0,0.0,0.0,0.0,0.0,0.0,0.0,0.0,0.0,0.0,0.0,0.0,0.0,0.0,0.0,-0.6638,-0.6201,-0.5918,-0.5991,-0.636,-0.6599,-0.6599,-0.6157,-0.6292,-0.723,0.0,0.0,0.0,0.0,0.0,0.0,0.0,0.0,0.0,0.0,0.0,0.0,0.0,0.0,0.0,0.0,0.0,0.0,0.0,0.0,0.0,0.0,0.0,0.0,0.0,0.0,0.0,0.0,0.0,0.0,0.0,0.0,0.0,0.0,0.0,0.0,0.0,0.0,0.0,0.0,0.0,0.0,0.0,0.0,0.0,0.0,0.0,0.0,0.0,0.0,0.0,0.0,0.0,0.0,0.0,0.0,0.0,0.0,0.0,0.0,0.0,0.0,0.0,0.0,0.0,0.0,0.0,0.0,0.0,0.0,0.0,0.0,0.0,0.0,0.0,0.0,0.0,0.0,0.0,0.0,0.0,0.0,0.0,0.0,0.0,0.0,0.0,0.0,0.0,0.0,0.0,0.0,0.0,0.0,0.0,0.0,0.0,0.0,0.0,0.0,0.0,0.0,-0.652,-0.6058,-0.5782,-0.5893,-0.6224,-0.6491,-0.659,-0.5913,-0.5848,-0.6702,0.0,0.0,0.0,0.0,0.0,0.0,0.0,0.0,0.0,0.0,0.0,0.0,0.0,0.0,0.0,0.0,0.0,0.0,0.0,0.0,0.0,0.0,0.0,0.0,0.0,0.0,0.0,0.0,0.0,0.0,0.0,0.0,0.0,0.0,0.0,0.0,0.0,0.0,0.0,0.0,0.0,0.0,0.0,0.0,0.0,0.0,0.0,0.0,0.0,0.0,0.0,0.0,0.0,0.0,0.0,0.0,0.0,0.0,0.0,0.0,0.0,0.0,0.0,0.0,0.0,0.0,0.0,0.0,0.0,0.0,0.0,0.0,0.0,0.0,0.0,0.0,0.0,0.0,0.0,0.0,0.0,0.0,0.0,0.0,0.0,0.0,0.0,0.0,0.0,0.0,0.0,0.0,0.0,0.0,0.0,0.0,0.0,0.0,0.0,0.0,0.0,0.0,-0.6545,-0.5968,-0.5661,-0.59,-0.6115,-0.6336,-0.6582,-0.5657,-0.5362,-0.6036,0.0,0.0,0.0,0.0,0.0,0.0,0.0,0.0,0.0,0.0,0.0,0.0,0.0,0.0,0.0,0.0,0.0,0.0,0.0,0.0,0.0,0.0,0.0,0.0,0.0,0.0,0.0,0.0,0.0,0.0,0.0,0.0,0.0,0.0,0.0,0.0,0.0,0.0,0.0,0.0,0.0,0.0,0.0,0.0,0.0,0.0,0.0,0.0,0.0,0.0,0.0,0.0,0.0,0.0,0.0,0.0,0.0,0.0,0.0,0.0,-1.1307,-1.0834,0.0,0.0,0.0,0.0,0.0,0.0,0.0,0.0,0.0,0.0,0.0,0.0,0.0,0.0,0.0,0.0,0.0,0.0,0.0,0.0,0.0,0.0,0.0,0.0,0.0,0.0,0.0,0.0,0.0,0.0,0.0,0.0,0.0,0.0,0.0,0.0,0.0,0.0,0.0,0.0,-0.685,-0.6373,-0.6076,-0.613,-0.6366,-0.6535,-0.6599,-0.6001,-0.5691,-0.5862,-0.4781,0.0,0.0,0.0,0.0,0.0,0.0,0.0,0.0,0.0,0.0,0.0,0.0,0.0,0.0,0.0,0.0,0.0,0.0,0.0,0.0,0.0,0.0,0.0,0.0,0.0,0.0,0.0,0.0,0.0,0.0,0.0,0.0,0.0,0.0,0.0,0.0,0.0,0.0,0.0,0.0,0.0,0.0,0.0,0.0,0.0,0.0,0.0,0.0,0.0,0.0,0.0,0.0,0.0,0.0,0.0,0.0,0.0,0.0,0.0,-1.1992,-1.1521,0.0,0.0,0.0,0.0,0.0,0.0,0.0,0.0,0.0,0.0,0.0,0.0,0.0,0.0,0.0,0.0,0.0,0.0,0.0,0.0,0.0,0.0,0.0,0.0,0.0,0.0,0.0,0.0,0.0,0.0,0.0,0.0,0.0,0.0,0.0,0.0,0.0,0.0,0.0,0.0,-0.7028,-0.6443,-0.6085,-0.6189,-0.6327,-0.6453,-0.659,-0.6114,-0.5695,-0.5425,-0.4648,0.0,0.0,0.0,0.0,0.0,0.0,0.0,0.0,0.0,0.0,0.0,0.0,0.0,0.0,0.0,0.0,0.0,0.0,0.0,0.0,0.0,0.0,0.0,0.0,0.0,0.0,0.0,0.0,0.0,0.0,0.0,0.0,0.0,0.0,0.0,0.0,0.0,0.0,0.0,0.0,0.0,0.0,0.0,0.0,0.0,0.0,0.0,0.0,0.0,0.0,0.0,0.0,0.0,-1.3837,-1.4141,-1.4031,-1.3979,-1.4272,-1.476,-1.3043,-1.2674,-1.3169,-1.1838,0.0,0.0,0.0,0.0,0.0,0.0,0.0,0.0,0.0,0.0,0.0,0.0,0.0,0.0,0.0,0.0,0.0,0.0,0.0,0.0,0.0,0.0,-0.9614,-1.018,-0.9779,-0.918,-0.8844,0.0,0.0,0.0,0.0,0.0,0.0,0.0,0.0,0.0,0.0,0.0,-0.7174,-0.6524,-0.6123,-0.6254,-0.6271,-0.6362,-0.6582,-0.6194,-0.5707,-0.5174,-0.4576,-0.406,0.0,0.0,0.0,0.0,0.0,0.0,0.0,0.0,0.0,0.0,0.0,0.0,0.0,0.0,0.0,0.0,0.0,0.0,0.0,0.0,0.0,0.0,0.0,0.0,0.0,0.0,0.0,0.0,0.0,0.0,0.0,0.0,-1.0698,-1.1515,0.0,0.0,0.0,0.0,0.0,0.0,0.0,0.0,0.0,0.0,0.0,0.0,0.0,-1.2777,-1.3436,-1.4118,-1.4451,-1.4435,-1.5067,-1.5367,-1.5348,-1.5329,-1.5387,-1.5472,-1.5188,0.0,-1.3549,-1.3562,0.0,0.0,0.0,0.0,0.0,0.0,0.0,0.0,0.0,0.0,0.0,0.0,0.0,0.0,0.0,0.0,0.0,0.0,0.0,0.0,0.0,0.0,-1.0767,-1.0115,-0.997,-0.9805,-0.9188,-0.8757,-0.8532,-0.8681,-0.8735,-0.8783,0.0,0.0,0.0,0.0,0.0,0.0,-0.7495,-0.7056,-0.671,-0.6561,-0.6543,-0.6564,-0.6599,-0.6536,-0.6269,-0.5732,-0.518,-0.4846,-0.477,-0.3731,0.0,0.0,0.0,0.0,0.0,0.0,0.0,0.0,0.0,0.0,0.0,0.0,0.0,0.0,0.0,0.0,0.0,0.0,0.0,0.0,0.0,0.0,0.0,0.0,0.0,0.0,0.0,0.0,0.0,-1.0843,-1.1443,-1.1851,-1.2089,-1.205,0.0,0.0,0.0,0.0,0.0,0.0,0.0,0.0,0.0,-1.3815,-1.3818,-1.4425,-1.5644,-1.6374,-1.7029,-1.7627,-1.8305,-1.8633,-1.8633,-1.8443,-1.8123,-1.7738,-1.7537,-1.6652,-1.5287,-1.4656,-1.3815,-1.2877,0.0,0.0,0.0,0.0,-1.1936,-1.1909,-1.2671,-1.2692,-1.2377,-1.2377,0.0,0.0,0.0,0.0,0.0,0.0,0.0,-1.0575,-1.0647,-1.0816,-1.0964,-1.0967,-1.0726,-1.0406,-1.0119,-0.962,-0.9073,-0.8478,-0.8457,-0.8538,-0.8552,-0.8591,0.0,0.0,0.0,-0.7824,-0.7539,-0.7157,-0.6824,-0.6625,-0.6599,-0.6599,-0.6599,-0.6599,-0.6369,-0.5833,-0.5576,-0.5146,-0.4467,-0.4114,-0.3975,0.0,0.0,0.0,0.0,0.0,0.0,0.0,0.0,0.0,0.0,0.0,0.0,0.0,0.0,0.0,0.0,0.0,0.0,0.0,0.0,0.0,0.0,0.0,0.0,0.0,0.0,0.0,0.0,-1.1783,-1.2388,-1.2473,-1.323,-1.3469,0.0,0.0,0.0,0.0,0.0,0.0,-1.4715,-1.4912,-1.5307,-1.601,-1.6036,-1.6726,-1.8161,-1.8711,-1.9391,-2.0186,-2.0736,-2.1003,-2.0993,-2.0736,-2.0328,-1.978,-1.9442,-1.8586,-1.7277,-1.5801,-1.4865,-1.4273,-1.3623,-1.3065,-1.268,-1.3024,-1.3015,-1.2981,-1.3893,-1.3874,-1.3449,-1.3362,-1.2891,-1.2256,-1.1763,0.0,0.0,0.0,0.0,-1.0631,-1.1141,-1.1167,-1.1181,-1.1685,-1.142,-1.1017,-1.0842,-1.0449,-0.9778,-0.8595,-0.8473,-0.8519,-0.8361,-0.8361,0.0,-0.854,-0.8115,-0.7731,-0.7524,-0.7157,-0.6824,-0.6625,-0.6599,-0.6599,-0.6599,-0.6599,-0.6432,-0.6026,-0.5814,-0.5324,-0.4499,-0.4421,-0.4185,-0.3743,0.0,0.0,0.0,0.0,0.0,0.0,0.0,0.0,0.0,0.0,0.0,0.0,0.0,0.0,0.0,0.0,0.0,0.0,0.0,0.0,0.0,0.0,0.0,0.0,0.0,0.0,0.0,0.0,0.0,-1.4054,-1.4588,0.0,0.0,0.0,0.0,-1.5496,-1.5398,-1.5962,-1.7506,-1.7496,-1.811,-1.9589,-1.9642,-2.0024,-2.0804,-2.0858,-2.0893,-2.0949,-2.0985,-2.1003,-2.1003,-2.0982,-2.0954,-2.0908,-2.0568,-1.998,-1.9124,-1.7339,-1.627,-1.578,-1.5532,-1.5545,-1.5668,-1.5488,-1.5436,-1.5377,-1.5118,-1.5014,-1.4945,-1.4623,-1.36,-1.2482,-1.2444,-1.1505,0.0,0.0,-1.1085,-1.1172,-1.1644,-1.1756,-1.176,-1.179,-1.1775,-1.158,-1.0942,-1.0783,-1.0421,-0.928,-0.9065,-0.8917,-0.8466,0.0,-0.8409,-0.8399,-0.8072,-0.7731,-0.7524,-0.7157,-0.6824,-0.6625,-0.6599,-0.6599,-0.6599,-0.6599,-0.6586,-0.6561,-0.5844,-0.5512,-0.5697,-0.4502,-0.4185,-0.4896,-0.3864,0.0,0.0,0.0,0.0,0.0,0.0,0.0,0.0,0.0,0.0,0.0,0.0,0.0,0.0,0.0,0.0,0.0,0.0,0.0,0.0,0.0,0.0,0.0,0.0,0.0,0.0,0.0,0.0,-1.6055,-1.6514,0.0,-1.6562,-1.6599,-1.6955,-1.776,-1.827,-1.8937,-1.98,-1.9974,-2.0216,-2.0604,-2.0604,-2.1067,-2.2016,-2.2026,-2.2377,-2.3052,-2.3052,-2.3052,-2.3052,-2.2834,-2.2368,-2.1693,-2.1348,-2.0677,-1.974,-1.9094,-1.7873,-1.641,-1.633,-1.6061,-1.5675,-1.5429,-1.5627,-1.5934,-1.5647,-1.5663,-1.5709,-1.5103,-1.4583,-1.413,-1.3914,-1.3382,-1.2878,-1.3049,-1.297,-1.278,-1.2501,-1.2445,-1.234,-1.1895,-1.1805,-1.173,-1.1506,-1.1435,-1.1202,-1.0369,-0.9874,-0.9561,-0.9392,-0.937,-0.937,-0.937,-0.906,-0.862,-0.8019,-0.7671,-0.7253,-0.6662,-0.6599,-0.6599,-0.6599,-0.6599,-0.6599,-0.6599,-0.6014,-0.5536,-0.5287,-0.4449,-0.4013,-0.4038,-0.3637,-0.3499,0.0,0.0,0.0,0.0,0.0,0.0,0.0,0.0,0.0,0.0,0.0,0.0,0.0,0.0,0.0,0.0,0.0,0.0,0.0,0.0,0.0,0.0,0.0,0.0,0.0,-1.5374,-1.6483,-1.7816,-1.8449,-1.8752,-1.8646,-1.8945,-1.9378,-1.99,-2.047,-2.1062,-2.164,-2.1831,-2.1977,-2.2082,-2.2082,-2.2423,-2.3135,-2.3135,-2.3505,-2.419,-2.419,-2.419,-2.418,-2.3847,-2.3318,-2.2602,-2.2158,-2.144,-2.053,-2.0437,-1.9384,-1.7822,-1.7938,-1.7509,-1.684,-1.6775,-1.6859,-1.6962,-1.6573,-1.6415,-1.6324,-1.5836,-1.5521,-1.5287,-1.5067,-1.4722,-1.4382,-1.4264,-1.4111,-1.3836,-1.3277,-1.2969,-1.2696,-1.2235,-1.1954,-1.1811,-1.1923,-1.1854,-1.1702,-1.1349,-1.0696,-1.0144,-0.9935,-0.989,-0.989,-0.989,-0.9635,-0.9241,-0.8709,-0.8164,-0.7635,-0.7096,-0.6769,-0.6625,-0.6689,-0.6698,-0.6732,-0.6803,-0.6341,-0.5972,-0.5751,-0.503,-0.4586,-0.4486,-0.4234,-0.4001,-0.3805,0.0,0.0,0.0,0.0,0.0,0.0,0.0,0.0,0.0,0.0,0.0,0.0,0.0,0.0,0.0,0.0,0.0,0.0,0.0,0.0,0.0,0.0,0.0,-1.5569,-1.701,-1.8448,-1.9287,-2.0298,-2.0829,-2.0581,-2.1345,-2.1831,-2.1831,-2.1849,-2.2216,-2.3006,-2.3043,-2.3391,-2.4171,-2.419,-2.419,-2.419,-2.419,-2.419,-2.419,-2.419,-2.419,-2.418,-2.3858,-2.3703,-2.3649,-2.3009,-2.2292,-2.1596,-2.1335,-2.0771,-2.009,-2.0377,-2.001,-1.9351,-1.9663,-1.9277,-1.8516,-1.7907,-1.7335,-1.686,-1.6844,-1.6372,-1.5843,-1.5831,-1.5372,-1.478,-1.446,-1.4382,-1.4298,-1.395,-1.337,-1.2884,-1.2854,-1.2362,-1.1947,-1.2195,-1.2049,-1.1917,-1.2154,-1.1455,-1.0658,-1.0054,-0.995,-0.995,-0.995,-0.9721,0.0,-0.9532,-0.8595,-0.7932,-0.7918,-0.7135,-0.6698,-0.6886,-0.6903,-0.6988,-0.718,-0.6817,-0.6755,-0.7144,-0.6206,-0.5884,-0.6332,-0.5636,-0.5039,-0.4565,0.0,0.0,0.0,0.0,0.0,0.0,0.0,0.0,0.0,0.0,0.0,0.0,0.0,0.0,0.0,0.0,0.0,0.0,0.0,0.0,0.0,-1.6334,-1.7606,-1.7711,-1.8473,-1.9598,-2.1146,-2.1293,-2.1453,-2.192,-2.2383,-2.2666,-2.2666,-2.3217,-2.3639,-2.3859,-2.3878,-2.3969,-2.419,-2.419,-2.419,-2.419,-2.419,-2.419,-2.419,-2.419,-2.419,-2.4208,-2.4103,-2.3795,-2.3335,-2.3141,-2.2698,-2.2109,-2.203,-2.187,-2.1566,-2.0539,-1.9999,-1.9743,-1.9315,-1.9007,-1.8722,-1.802,-1.8017,-1.8202,-1.7412,-1.7044,-1.684,-1.6599,-1.6396,-1.6223,-1.6136,-1.6111,-1.5987,-1.5402,-1.4928,-1.4544,-1.4309,-1.3917,-1.355,-1.3336,-1.3078,-1.2751,-1.2298,-1.1819,-1.1476,-1.1311,-1.1281,-1.1281,-1.1281,-1.1011,-1.0663,-1.0286,-0.9377,-0.8602,-0.8168,-0.7471,-0.705,-0.7106,-0.7114,-0.7138,-0.7187,-0.659,-0.6287,-0.6398,-0.5623,-0.5087,-0.4881,-0.4781,-0.4439,0.0,0.0,0.0,0.0,0.0,0.0,0.0,0.0,0.0,0.0,0.0,0.0,0.0,0.0,0.0,0.0,0.0,0.0,0.0,0.0,0.0,0.0,-1.8315,-1.9606,-1.9836,-2.0127,-2.0922,-2.2578,-2.253,-2.259,-2.316,-2.3379,-2.3501,-2.3501,-2.3933,-2.419,-2.419,-2.419,-2.419,-2.419,-2.419,-2.419,-2.419,-2.419,-2.419,-2.419,-2.419,-2.4132,-2.3986,-2.3855,-2.35,-2.2967,-2.2546,-2.2169,-2.1803,-2.1468,-2.135,-2.1312,0.0,0.0,0.0,0.0,-1.9361,-1.9462,-1.9035,-1.9107,-1.9263,-1.8626,-1.8443,-1.8339,-1.7827,-1.7683,-1.7592,-1.7149,-1.7002,-1.688,-1.6349,-1.5869,-1.5466,-1.5273,-1.4861,-1.4485,-1.4346,-1.3876,-1.3373,-1.3059,-1.2438,0.0,-1.1976,-1.1865,-1.1805,-1.1805,-1.1637,-1.1403,-1.1089,-0.9998,-0.9128,-0.8775,-0.7818,-0.7248,-0.7363,-0.7371,0.0,0.0,0.0,-0.6519,-0.6434,-0.6103,0.0,0.0,0.0,0.0,0.0,0.0,0.0,0.0,-0.3511,-0.3345,0.0,0.0,0.0,0.0,0.0,0.0,0.0,0.0,0.0,0.0,0.0,0.0,0.0,0.0,0.0,0.0,-2.0537,-2.1527,-2.1658,-2.1695,-2.2218,-2.3538,-2.3703,-2.3827,-2.417,-2.419,-2.419,-2.419,-2.419,-2.419,-2.419,-2.419,0.0,0.0,0.0,-2.419,-2.419,-2.4161,-2.4151,-2.4151,-2.4103,-2.3927,-2.3621,-2.3335,-2.3021,-2.2647,-2.1763,-2.1349,-2.1258,-2.0454,-2.0069,-2.0158,-2.1769,-2.1564,-2.0297,-1.9885,-2.0052,-2.0481,-2.0394,0.0,0.0,-2.0018,-2.0002,-1.9879,-1.9232,-1.8961,-1.8694,-1.775,-1.7422,-1.7284,-1.6993,-1.6447,-1.5971,-1.5971,-1.5499,-1.5119,-1.5276,-1.4614,-1.4006,-1.4091,-1.3155,-1.2324,-1.2215,-1.1986,-1.1805,-1.1805,-1.1805,-1.1805,-1.1805,-1.0539,-0.9657,-0.9657,-0.8294,0.0,-0.7729,-0.7686,-0.7642,-0.7642,-0.7363,-0.7106,-0.6903,-0.7048,-0.7023,-0.6779,-0.6604,-0.6129,-0.5358,-0.5336,-0.4926,-0.415,-0.3831,-0.3798,0.0,0.0,0.0,0.0,0.0,0.0,0.0,0.0,0.0,0.0,0.0,0.0,0.0,0.0,0.0,-1.9963,-2.0743,-2.1474,-2.2085,-2.234,-2.2802,-2.3592,-2.3703,-2.3827,-2.417,-2.419,-2.419,-2.419,-2.419,-2.419,-2.419,-2.419,-2.419,-2.419,-2.419,-2.419,-2.419,-2.3927,-2.3795,-2.3795,-2.3533,0.0,-2.3282,-2.3224,-2.3021,-2.2678,-2.2492,-2.2291,-2.204,-2.1292,-2.0585,-2.0031,-2.0395,-2.034,-2.0068,-1.9977,-2.0407,-2.0947,-2.0293,-2.0471,-2.0856,-2.0217,-2.0002,-1.9968,-1.9828,-1.9372,0.0,-1.8653,-1.8158,-1.7681,-1.7624,-1.7304,-1.7022,-1.7022,-1.6907,-1.6673,-1.6121,-1.5901,-1.5462,-1.4311,-1.3735,-1.314,-1.235,-1.1986,-1.1805,-1.1805,-1.1805,-1.1805,-1.1805,-1.1076,-1.0545,-1.0545,-0.9363,-0.8599,-0.8654,-0.8154,-0.7849,-0.7849,-0.744,-0.7106,-0.6903,-0.6791,-0.6489,-0.6028,-0.5969,-0.5667,-0.5082,-0.4969,-0.4991,-0.5116,-0.4524,-0.4127,0.0,0.0,0.0,0.0,0.0,0.0,0.0,0.0,0.0,0.0,0.0,-1.7768,-1.8128,0.0,-2.0601,-2.1208,-2.1674,-2.2036,-2.2274,-2.2412,-2.2682,-2.3141,-2.3357,-2.3522,-2.3682,-2.3703,-2.3774,-2.3927,-2.3937,-2.3937,-2.3937,-2.3937,-2.3876,-2.3703,-2.3703,-2.3703,-2.3703,-2.3533,-2.3448,-2.3448,-2.3288,-2.3105,-2.296,-2.296,-2.2789,-2.2483,-2.2103,-2.186,-2.1684,-2.0923,-2.0352,-1.9951,-1.9592,-1.9913,-2.0602,-2.0602,-2.1092,-2.1684,-2.1282,-2.14,-2.1684,-2.1282,-2.1147,-2.1079,-2.072,-2.0048,-1.9372,-1.8995,-1.8369,-1.78,-1.78,-1.7681,-1.7549,-1.7549,-1.7549,-1.7402,-1.6875,-1.65,-1.5989,-1.5092,-1.4382,-1.368,-1.2845,-1.2473,-1.219,-1.185,-1.1805,-1.1805,-1.1805,-1.1211,-1.0798,-1.0798,-0.995,-0.9272,-0.8935,-0.8198,-0.7746,-0.7746,-0.741,-0.7106,-0.6903,-0.6807,-0.6507,-0.6007,-0.5998,-0.5816,-0.5446,-0.5488,-0.5556,-0.5651,-0.5408,-0.5158,0.0,0.0,0.0,0.0,0.0,0.0,0.0,-1.5792,-1.7001,-1.7143,-1.8457,-1.9767,-2.0372,-2.1167,-2.1863,-2.2251,-2.2473,-2.255,-2.2321,-2.2296,-2.2374,-2.2599,-2.2898,-2.3129,-2.3189,-2.32,-2.3346,-2.3671,-2.3703,-2.3724,-2.3795,-2.3795,-2.3671,-2.3403,-2.3392,-2.3369,-2.3311,-2.3224,-2.3165,-2.3105,-2.3051,-2.2878,-2.2621,-2.2621,-2.25,-2.2262,-2.1667,-2.1326,-2.114,-2.05,-2.0149,-1.9951,-1.9519,-2.0107,-2.1173,-2.1021,-2.1532,-2.2296,-2.2296,-2.2296,-2.2296,-2.2296,-2.2296,-2.2178,-2.1583,-2.0856,-2.0082,-1.9316,-1.8589,-1.7969,-1.7834,-1.78,-1.7789,-1.7715,-1.7755,-1.7704,-1.7368,-1.687,-1.6395,-1.5977,-1.5189,-1.4308,-1.345,-1.3065,-1.2633,-1.1905,-1.1805,-1.1805,-1.1805,-1.1331,-1.0992,-1.0992,-1.0434,-0.9809,-0.9152,-0.8454,-0.7993,-0.7862,-0.7602,-0.7331,-0.7042,-0.6985,-0.6777,-0.6395,-0.6387,-0.6286,-0.6099,-0.6254,-0.6239,-0.6048,-0.6204,-0.6141,-1.7593,-1.6864,-1.6107,-1.5071,-1.5915,-1.7347,0.0,-1.8933,-1.9083,-1.9808,-2.0497,-2.0993,-2.1078,-2.1722,-2.2251,-2.2293,-2.2338,-2.2335,-2.231,-2.2296,-2.231,-2.2335,-2.259,-2.2855,-2.3165,-2.32,-2.3346,-2.3671,-2.3703,-2.3827,-2.4141,-2.4151,-2.4141,-2.4094,-2.4084,-2.3955,-2.3649,-2.3357,-2.3057,-2.2759,-2.2517,-2.2374,-2.2349,-2.2349,-2.2321,-2.2296,-2.2212,-2.1803,-2.119,-2.1106,-2.0636,-2.0052,-2.0703,-2.1038,-2.1106,-2.0403,-2.1045,-2.2296,-2.2296,-2.2296,-2.2296,-2.2296,-2.2296,-2.2279,-2.2195,-2.1651,-2.0903,-2.0099,-1.9338,-1.8623,-1.7969,-1.78,-1.7715,-1.7427,-1.7584,-1.7704,-1.7368,-1.7471,-1.7423,-1.6711,-1.6249,-1.5478,-1.3919,-1.336,-1.2847,-1.1938,-1.1805,-1.1805,-1.1805,-1.173,-1.1685,-1.1685,-1.1091,-1.0449,-0.9839,-0.9701,-0.9394,-0.8798,-0.851,-0.8109,-0.7543,-0.7294,-0.7132,-0.7093,-0.7085,-0.6986,-0.6786,-0.6811,-0.671,-0.653,-0.6547,-0.6325,-1.9458,-1.8839,-1.8146,-1.7259,-1.8201,-1.9389,-1.96,-2.0111,-2.0642,-2.0965,-2.1477,-2.1837,-2.1837,-2.2218,-2.2473,-2.2338,-2.244,-2.2523,-2.2523,-2.2523,-2.2523,-2.2523,-2.2802,-2.2915,-2.2699,-2.2815,-2.2972,-2.3105,-2.3117,-2.3177,-2.3323,-2.3335,-2.3259,-2.3103,-2.3091,-2.303,-2.2892,-2.2751,-2.2607,-2.2463,-2.2346,-2.2296,-2.2296,-2.2296,-2.2296,-2.2296,-2.2296,-2.2141,-2.1837,-2.1837,-2.1637,-2.1333,-2.1241,-2.1461,-2.1803,-2.1451,-2.1755,-2.2296,-2.2296,-2.2296,-2.2296,-2.2296,-2.2296,-2.2296,-2.2296,-2.1786,-2.1123,-2.0788,-1.9824,-1.8826,-1.8521,-1.7989,-1.7479,-1.7332,-1.7248,-1.713,-1.6799,-1.6825,-1.6779,-1.626,-1.6061,-1.5622,-1.4535,-1.3898,-1.3283,-1.2512,-1.2044,-1.1805,-1.1805,-1.1805,-1.1805,-1.1805,-1.1196,-1.0693,-1.0449,-0.9749,-0.9197,-0.892,-0.8428,-0.7988,-0.7612,-0.7485,-0.7546,-0.7782,-0.728,-0.7236,-0.7656,-0.7031,-0.674,-0.6774,-0.6659,-0.6504,-2.0015,-1.9687,-1.944,-1.8766,-1.9767,-2.0761,-2.0169,-2.0908,-2.1717,-2.1717,-2.2024,-2.2296,-2.2296,-2.2463,-2.2541,-2.2335,-2.2463,-2.2586,-2.2586,-2.2586,-2.2625,-2.2695,-2.2996,-2.2989,-2.2467,-2.2586,-2.2708,-2.2708,-2.2708,-2.2746,-2.2835,-2.2848,-2.2738,-2.2544,-2.2561,-2.2508,-2.2412,-2.2398,-2.2374,-2.2296,-2.2296,-2.2296,-2.2296,-2.2296,-2.2296,-2.2296,-2.2296,-2.2296,-2.2296,-2.2296,-2.2296,-2.2245,-2.1701,-2.1837,-2.2296,-2.2296,-2.2296,-2.2296,-2.2296,-2.2296,-2.2296,-2.2296,-2.2296,-2.2296,-2.2296,-2.1921,-2.1434,-2.1103,-2.0068,-1.8984,-1.8672,-1.7877,-1.7163,-1.7163,-1.6993,-1.6738,-1.6488,-1.645,-1.6369,-1.6122,-1.5997,-1.5715,-1.5049,-1.4459,-1.3795,-1.2936,-1.2385,-1.1999,-1.182,-1.1805,-1.1805,-1.1805,-1.1361,-1.1077,-1.1077,-1.0064,-0.9428,-0.9428,-0.8634,-0.8117,-0.7965,-0.7958,-0.8011,-0.8112,-0.7626,-0.7554,-0.792,-0.7096,-0.6723,-0.6816,-0.6819,-0.6815,-1.8672,-1.8786,-1.9239,-1.8966,-2.0048,-2.1183,-2.1166,-2.1732,-2.2276,-2.2276,-2.2293,-2.2296,-2.2296,-2.231,-2.231,-2.2296,-2.231,-2.231,-2.231,-2.231,-2.2398,-2.2673,-2.2996,-2.3069,-2.2721,-2.2695,-2.2708,-2.2708,-2.2708,-2.2848,-2.3165,-2.3177,-2.3177,-2.3165,-2.3165,-2.3021,-2.2682,-2.2682,-2.2563,-2.2296,-2.2296,-2.2296,-2.2296,-2.2296,-2.2296,-2.2296,-2.2296,-2.2296,-2.2296,-2.2296,-2.2296,-2.2296,-2.2279,-2.2279,-2.2296,-2.2296,-2.2296,-2.2296,-2.2296,-2.2296,-2.2296,-2.2296,-2.2296,-2.2296,-2.2296,-2.2279,-2.2023,-2.0853,-2.0009,-1.9229,-1.8113,-1.733,-1.6815,-1.6815,-1.6802,-1.6802,-1.6789,-1.6776,-1.6776,-1.6763,-1.6501,-1.607,-1.5402,-1.4993,-1.4317,-1.3011,-1.2774,-1.2534,-1.188,-1.1805,-1.1805,-1.1805,-1.1775,-1.1775,-1.1775,-1.1136,-1.0738,-1.0738,-0.9563,-0.8875,-0.8867,-0.8867,-0.8559,-0.7922,-0.8336,-0.8103,-0.7223,-0.7009,-0.6791,-0.662,-0.7141,-0.7381,-2.0176,-2.0376,-2.0539,-2.0454,-2.1177,-2.1921,-2.1921,-2.211,-2.2296,-2.2296,-2.2296,-2.2296,-2.2296,-2.2296,-2.2296,-2.2296,-2.2296,-2.236,-2.2537,-2.2577,-2.2599,-2.2682,-2.2996,-2.3002,-2.2477,-2.2807,-2.2947,-2.2721,-2.2537,-2.2567,-2.286,-2.2873,-2.2789,-2.2611,-2.2781,-2.2725,-2.244,-2.2422,-2.2402,-2.2296,-2.2296,-2.2296,-2.2296,-2.2296,-2.2296,-2.2296,-2.2296,-2.2296,-2.2296,-2.2296,-2.2296,-2.2296,-2.2296,-2.2296,-2.2296,-2.2296,-2.2296,-2.2296,-2.2296,-2.2296,-2.2296,-2.2296,-2.2296,-2.2237,-2.1928,-2.184,-2.17,-2.1014,-2.0,-1.9016,-1.8635,-1.7502,-1.6461,-1.6461,-1.6301,-1.6136,-1.6136,-1.6136,-1.6136,-1.6136,-1.6053,-1.5908,-1.5681,-1.5163,-1.4346,-1.3011,-1.2415,-1.2044,-1.1835,-1.1805,-1.1805,-1.1805,-1.1805,-1.1805,-1.1805,-1.1196,-1.0798,-1.0798,-1.0024,-0.9563,-0.9563,-0.9563,-0.9644,-0.9821,-0.902,-0.8649,-0.8728,-0.7906,-0.7453,-0.7394,-0.7395,-0.7616,-2.1055,-2.119,-2.1258,-2.1529,-2.1955,-2.2296,-2.2296,-2.2296,-2.2296,-2.2296,-2.2296,-2.2296,-2.2296,-2.209,-2.1989,-2.2245,-2.209,-2.2055,-2.2489,-2.2563,-2.2586,-2.2682,-2.2898,-2.2878,-2.2477,-2.2789,-2.2885,-2.259,-2.249,-2.2477,-2.255,-2.2563,-2.249,-2.231,-2.2463,-2.2477,-2.2296,-2.2296,-2.2296,-2.2296,-2.2296,-2.2296,-2.2296,-2.2296,-2.2296,-2.2296,-2.2296,-2.2296,-2.2296,-2.2296,-2.2296,-2.2296,-2.2296,-2.2296,-2.2296,-2.2296,-2.2296,-2.2296,-2.2296,-2.2296,-2.2296,-2.2296,-2.2296,-2.2237,-2.1943,-2.1838,-2.1685,-2.0875,-1.982,-1.88,-1.8257,-1.7278,-1.64,-1.6169,-1.6122,-1.6069,-1.5858,-1.5799,-1.5799,-1.5799,-1.5799,-1.5799,-1.5799,-1.5245,-1.4436,-1.3328,-1.2594,-1.2059,-1.1835,-1.1805,-1.1805,-1.1805,-1.1805,-1.1805,-1.1805,-1.1196,-1.0902,-1.1136,-1.0369,-0.9994,-1.021,-1.013,-1.0156,-1.0304,-0.9418,-0.9024,-0.9173,-0.8372,-0.7978,-0.7968,-0.7796,-0.7926,-2.1241,-2.1258,-2.1427,-2.2141,-2.2296,-2.2296,-2.2296,-2.2296,-2.2279,-2.2245,-2.2229,-2.2229,-2.2195,-2.1634,-2.1427,-2.2141,-2.1684,-2.1512,-2.2195,-2.2296,-2.2385,-2.2647,-2.2669,-2.2669,-2.2669,-2.2695,-2.2586,-2.2307,-2.2537,-2.256,-2.2335,-2.2307,-2.2307,-2.2296,-2.2344,-2.2358,-2.2296,-2.2296,-2.2296,-2.2296,-2.2296,-2.2296,-2.2296,-2.2296,-2.2296,-2.2296,-2.2296,-2.2296,-2.2296,-2.2296,-2.2296,-2.2296,-2.2296,-2.2296,-2.2296,-2.2296,-2.2296,-2.2296,-2.2296,-2.2296,-2.2296,-2.2296,-2.2296,-2.2296,-2.2268,-2.2254,-2.1912,-2.0402,-1.9467,-1.8588,-1.7091,-1.6696,-1.6562,-1.5979,-1.6278,-1.6547,-1.5964,-1.5829,-1.5799,-1.5799,-1.5799,-1.5799,-1.5799,-1.5275,-1.4603,-1.3914,-1.3268,-1.2594,-1.1895,-1.1805,-1.1805,-1.1805,-1.1805,-1.1805,-1.1805,-1.1226,-1.1121,-1.176,-1.0658,-1.0221,-1.0807,-1.0562,-1.0119,-0.948,-0.957,-0.9298,-0.8657,-0.8453,-0.836,-0.8349,-0.8349,-0.8349,-2.187,-2.2023,-2.2073,-2.2245,-2.2296,-2.2296,-2.2296,-2.2296,-2.2127,-2.1583,-2.1478,-2.1295,-2.0707,-2.0923,-2.1258,-2.1461,-2.1786,-2.209,-2.2262,-2.2296,-2.2338,-2.2385,-2.2398,-2.2398,-2.2398,-2.2573,-2.2586,-2.2307,-2.236,-2.2463,-2.2586,-2.2599,-2.2514,-2.231,-2.3086,-2.3103,-2.2296,-2.2296,-2.2296,-2.2296,-2.2296,-2.2296,-2.2296,-2.2296,-2.2296,-2.2296,-2.2296,-2.2296,-2.2296,-2.2296,-2.2296,-2.2296,-2.2296,-2.2296,-2.2296,-2.2296,-2.2296,-2.2296,-2.2296,-2.2296,-2.2296,-2.2296,-2.2296,-2.2237,-2.1868,-2.1568,-2.1083,-1.9894,-1.8811,-1.7821,-1.6938,-1.6696,-1.6651,-1.6502,-1.6592,-1.6651,-1.6502,-1.6114,-1.5799,-1.5799,-1.5799,-1.5799,-1.5799,-1.5664,-1.5155,-1.3989,-1.3648,-1.3121,-1.1954,-1.1805,-1.1805,-1.1805,-1.1805,-1.1805,-1.1805,-1.164,-1.1625,-1.179,-1.1263,-1.1006,-1.1176,-1.09,-1.0685,-1.0518,-1.0068,-0.9673,-0.934,-0.9182,-0.9035,-0.8888,-0.8888,-0.8888,-2.2178,-2.2296,-2.2296,-2.2296,-2.2296,-2.2212,-2.1887,-2.182,-2.16,-2.0839,-2.067,-2.0551,-2.0069,-2.0369,-2.0788,-2.114,-2.1546,-2.1921,-2.2245,-2.2296,-2.2296,-2.2296,-2.2296,-2.2296,-2.2296,-2.244,-2.26,-2.2781,-2.2586,-2.2487,-2.2527,-2.251,-2.245,-2.231,-2.288,-2.2897,-2.2296,-2.2936,-2.2936,-2.2296,-2.2632,-2.2615,-2.2296,-2.2296,-2.2296,-2.2296,-2.2296,-2.2296,-2.2296,-2.2296,-2.2296,-2.2296,-2.2296,-2.2296,-2.2296,-2.2296,-2.2296,-2.2296,-2.2296,-2.2296,-2.2296,-2.2296,-2.2296,-2.2209,-2.1733,-2.143,-2.1005,-1.975,-1.8945,-1.8229,-1.7372,-1.7354,-1.7488,-1.7219,-1.7354,-1.7413,-1.6831,-1.6443,-1.6114,-1.5858,-1.5799,-1.5799,-1.5799,-1.5799,-1.544,-1.4393,-1.3989,-1.3421,-1.2358,-1.1984,-1.1805,-1.1805,-1.1805,-1.1805,-1.1805,-1.1805,-1.1736,-1.1579,-1.14,-1.1253,-1.1127,-1.0833,-1.0679,-1.0679,-1.0175,-0.9837,-0.9732,-0.9647,-0.9563,-0.9441,-0.9202,-0.91,-2.2282,-2.2296,-2.2296,-2.2296,-2.2296,-2.2124,-2.1376,-2.1123,-2.0818,-2.0014,-1.9778,-1.9714,-1.9714,-1.9782,-2.0116,-2.0919,-2.1123,-2.1461,-2.2209,-2.2296,-2.2296,-2.2296,-2.2296,-2.2296,-2.2296,-2.2296,-2.2581,-2.3207,-2.2887,-2.2636,-2.2595,-2.2584,-2.2584,-2.2584,-2.2398,-2.2381,-2.2584,-2.3763,-2.3712,-2.2448,-2.3088,-2.3004,-2.2296,-2.2296,-2.2296,-2.2296,-2.2296,-2.2296,-2.2296,-2.2296,-2.2296,-2.2296,-2.2296,-2.2268,-2.2209,-2.2209,-2.218,-2.2137,-2.2137,-2.2137,-2.2152,-2.2268,-2.2296,-2.2209,-2.1733,-2.1552,-2.1222,-1.9798,-1.9291,-1.8945,-1.7962,-1.8132,-1.8416,-1.7848,-1.8147,-1.8252,-1.7085,-1.6756,-1.6517,-1.5919,-1.5799,-1.5799,-1.5799,-1.5799,-1.5574,-1.4901,-1.4303,-1.369,-1.3014,-1.228,-1.1779,-1.1736,-1.1725,-1.1714,-1.1681,-1.1681,-1.156,-1.1276,-1.1205,-1.108,-1.0849,-1.0508,-1.0335,-1.0335,-1.0059,-0.9905,-0.9905,-0.9905,-0.9905,-0.9893,-0.9415,-0.9164,-2.2194,-2.2296,-2.2296,-2.2296,-2.2296,-2.2124,-2.1376,-2.0686,0.0,-1.9249,-1.8611,-1.8189,-1.8189,-1.8679,-1.9333,-2.0099,-2.0771,-2.1461,-2.2209,-2.2296,-2.2296,-2.2296,-2.2296,-2.2296,-2.2296,-2.2296,-2.2347,-2.2482,-2.2417,-2.2889,-2.4051,-2.4118,-2.4118,-2.4118,-2.2936,-2.2885,-2.4118,-2.378,-2.346,-2.3207,-2.3342,-2.3004,-2.2296,-2.2296,-2.2296,-2.2296,-2.2296,-2.2296,-2.2296,-2.2296,-2.2296,-2.2296,-2.2296,-2.2061,-2.1718,-2.1718,-2.1507,-2.1229,-2.1229,-2.1229,-2.1338,-2.2063,-2.2296,-2.2209,-2.1733,-2.1368,-2.0863,-1.9718,-1.8726,-1.7946,-1.776,-1.7788,-1.7832,-1.7728,-1.7788,-1.7818,-1.7594,-1.71,-1.6517,-1.5919,-1.5799,-1.5799,-1.5799,-1.5799,-1.5574,-1.4901,-1.4706,-1.4378,-1.372,-1.2568,-1.1692,-1.1423,-1.14,-1.1299,-1.1071,-1.1062,-1.1038,-1.0979,-1.0714,-1.0531,-1.0495,-1.016,-0.9983,-0.9983,-0.9919,-0.9905,-0.9905,-0.9905,-0.9905,-0.9905,-0.9805,-0.9529,-2.1884,-2.2106,-2.2296,-2.2296,-2.2296,-2.1992,-2.0839,0.0,0.0,-1.7991,-1.7467,-1.7219,-1.7219,-1.8132,-1.9147,-1.9879,-2.0318,-2.0991,-2.2127,-2.1972,-2.187,-2.2245,-2.2296,-2.2448,-2.2835,-2.2868,-2.319,-2.3968,-2.402,-2.3818,-2.3376,-2.3359,-2.3528,-2.3915,-2.3241,-2.3207,-2.3915,-2.434,-2.4154,-2.3393,-2.3797,-2.3376,-2.2296,-2.2296,-2.2296,-2.2296,-2.2296,-2.2296,-2.2296,-2.2296,-2.2296,-2.2296,-2.2296,-2.2017,-2.1597,-2.1597,-2.1353,-2.0991,-2.0991,-2.0991,-2.1055,-2.1493,-2.1615,-2.1539,-2.107,-2.0797,-2.0487,-1.9771,-1.9159,-1.8747,-1.8747,-1.8747,-1.8747,-1.8747,-1.8461,-1.8117,-1.7788,-1.7174,-1.6517,-1.5919,-1.5799,-1.5799,-1.5799,-1.5595,-1.533,-1.5008,-1.4472,-1.4013,-1.3684,-1.2771,-1.2084,-1.1851,-1.1369,-1.1036,-1.0908,-1.0897,-1.0837,-1.0655,-1.0495,-1.0323,-1.0147,-0.9983,-0.9905,-0.9905,-0.9905,-0.9905,-0.9905,-0.9905,-0.9905,-0.9905,-0.9905,-0.9755,-2.1552,-2.1884,-2.2163,-2.2265,-2.2296,-2.189,-2.0339,-1.9304,-1.8285,-1.6959,-1.6403,-1.6264,-1.6637,-1.7592,-1.8716,-1.9816,-2.0002,-2.0538,-2.2076,-2.1803,-2.1651,-2.2229,-2.2296,-2.2584,-2.3325,-2.3393,-2.3951,-2.527,-2.5372,-2.4746,-2.3325,-2.2953,-2.3105,-2.3849,-2.3714,-2.3714,-2.3866,-2.5033,-2.5033,-2.3883,-2.4305,-2.3814,-2.2533,-2.2364,-2.2296,-2.2296,-2.2296,-2.2296,-2.2296,-2.2296,-2.2296,-2.2296,-2.2296,-2.1959,-2.1476,-2.1476,-2.115,-2.0715,-2.0715,-2.0715,-2.0715,-2.0715,-2.0845,-2.091,-2.0449,-2.0297,-2.0227,-1.9803,-1.9603,-1.9528,-1.9663,-1.9588,-1.9498,-1.9498,-1.9076,-1.8523,-1.7832,-1.7294,-1.6726,-1.6099,-1.5889,-1.577,-1.5668,-1.5344,-1.5074,-1.4968,-1.4254,-1.3721,-1.3721,-1.307,-1.2567,-1.2471,-1.1554,-1.0889,-1.0693,-1.0693,-1.057,-1.031,-1.0298,-1.0173,-0.9918,-0.9905,-0.9905,-0.9905,-0.9905,-0.9905,-0.9905,-0.9905,-0.9905,-0.9905,-0.9828,-0.9828,-2.1383,-2.1643,-2.1764,-2.2194,-2.2296,-2.189,-2.0339,0.0,-1.7676,-1.6857,-1.5446,-1.4811,-1.6403,-1.6618,-1.7309,-1.9622,-2.0002,-2.0538,-2.2076,-2.2229,-2.2212,-2.2279,-2.2296,-2.2584,-2.3325,-2.3393,-2.3729,-2.4541,-2.4592,-2.51,-2.6218,-2.5032,-2.4643,-2.5356,-2.4762,-2.4728,-2.539,-2.5525,-2.5525,-2.539,-2.4795,-2.4085,-2.3274,-2.2615,-2.2296,-2.2296,-2.2296,-2.2296,-2.2296,-2.2296,-2.2296,-2.2296,-2.2296,-2.1781,-2.1071,-2.1071,-2.0515,-1.9818,-1.9818,-1.9818,-1.9818,-1.9818,-2.0362,-2.091,-2.0449,-2.0297,-2.0227,-1.9803,-1.9256,-1.8927,-1.9543,-1.9241,-1.8792,-1.8792,-1.8747,-1.8523,-1.7832,-1.7637,-1.7413,-1.6756,-1.6174,-1.5653,-1.524,-1.5134,-1.4968,-1.4611,-1.4462,-1.4403,-1.4403,-1.356,-1.2944,-1.2936,-1.1879,-1.0847,-1.0059,-0.9995,-0.9982,-0.9944,-0.9944,-0.9944,-0.9905,-0.9905,-0.9905,-0.9905,-0.9905,-0.9905,-0.9905,-0.9905,-0.9905,-0.9893,-0.9581,-0.9607,-2.115,-2.1613,-2.2077,-2.2237,-2.2296,-2.189,-2.0339,-1.8865,-1.7429,-1.6067,-1.4888,-1.44,-1.5315,-1.594,-1.6901,-1.8739,-1.8816,-1.9203,-2.0707,-2.0927,-2.1096,-2.1583,-2.204,-2.2767,-2.3949,-2.4068,-2.4558,-2.5743,-2.5406,-2.5609,-2.664,-2.5303,-2.4846,-2.5576,-2.488,-2.4847,-2.5592,-2.5592,-2.5592,-2.5592,-2.5304,-2.478,-2.4051,-2.3291,-2.297,-2.2936,-2.2482,-2.2296,-2.2282,-2.2003,-2.1884,-2.1838,-2.1615,-2.1134,-2.0583,-2.0583,-2.0208,-1.9708,-1.9708,-1.9708,-1.9708,-1.9708,-1.9927,-2.0174,-1.9997,-1.9929,-1.9909,-1.9747,-1.9513,-1.9346,-1.9633,-1.9513,-1.9286,-1.9286,-1.9286,-1.9036,-1.8024,-1.8079,-1.7818,-1.619,-1.5916,-1.5719,-1.4885,-1.4549,-1.4326,-1.4165,-1.3901,-1.3719,-1.3719,-1.3375,-1.3006,-1.266,-1.1915,-1.1307,-1.0949,-1.0596,-1.0382,-1.0382,-1.0081,-0.9905,-0.9905,-0.9905,-0.9905,-0.9905,-0.9905,-0.9802,-0.9594,-0.9802,-0.9673,-0.9237,-0.9343,-0.9343,-2.0926,-2.1447,-2.1991,-2.224,-2.2127,-2.1634,-2.0289,-1.8696,-1.7092,-1.5774,-1.4659,-1.4206,-1.4993,-1.5695,-1.6675,-1.829,-1.8485,-1.8899,-2.0183,-2.0538,-2.0893,-2.1461,-2.1989,-2.2885,-2.4355,-2.488,-2.5591,-2.6607,-2.6218,-2.615,-2.6657,-2.5726,-2.5405,-2.5913,-2.5406,-2.5405,-2.593,-2.593,-2.593,-2.593,-2.5694,-2.5203,-2.4474,-2.3746,-2.3274,-2.304,-2.2385,-2.2163,-2.2237,-2.1675,-2.1491,-2.1552,-2.115,-2.0699,-2.0297,-2.0297,-2.0052,-1.9708,-1.9708,-1.9708,-1.9708,-1.9708,-1.9708,-1.9708,-1.9708,-1.9708,-1.9708,-1.9708,-1.9708,-1.9708,-1.9708,-1.9708,-1.9708,-1.9708,-1.9584,-1.9218,-1.8386,-1.8085,-1.7528,-1.5913,-1.5604,-1.5338,-1.4475,-1.4084,-1.3852,-1.3702,-1.3408,-1.3198,-1.3198,-1.3198,-1.3048,-1.2689,-1.2303,-1.1939,-1.1628,-1.1211,-1.0971,-1.0971,-1.0444,-1.0131,-1.0131,-0.9993,-0.9854,-0.9763,-0.9763,-0.9581,-0.9222,-0.9462,-0.9304,-0.8803,-0.8992,-0.8924,-2.0764,-2.1023,-2.1229,-2.2077,-2.1752,-2.1004,-2.0183,-1.8302,-1.6604,-1.6259,-1.481,-1.4127,-1.5872,-1.598,-1.6482,-1.8557,-1.9507,-2.0268,-2.1072,-2.182,-2.2279,-2.2279,-2.2296,-2.2885,-2.4355,-2.5828,-2.6674,-2.6691,-2.6691,-2.6691,-2.6691,-2.6691,-2.6674,-2.6691,-2.6674,-2.6674,-2.6691,-2.6691,-2.6691,-2.6674,-2.5947,-2.5203,-2.4474,-2.3746,-2.3004,-2.2299,-2.1809,-2.1884,-2.2223,-2.1354,-2.1244,-2.1552,-2.115,-2.0699,-2.0297,-2.0297,-2.0052,-1.9708,-1.9708,-1.9708,-1.9708,-1.9708,-1.9708,-1.9708,-1.9708,-1.9708,-1.9708,-1.9708,-1.9708,-1.9708,-1.9708,-1.9708,-1.9708,-1.9708,-1.9281,-1.8912,-1.8897,-1.7541,-1.6328,-1.6297,-1.533,-1.4388,-1.3983,-1.3901,-1.3735,-1.3284,-1.3198,-1.3198,-1.3198,-1.3198,-1.3198,-1.3185,-1.3185,-1.2751,-1.1691,-1.159,-1.159,-1.159,-1.1021,-1.0681,-1.0681,-1.0181,-0.9738,-0.9421,-0.9408,-0.9209,-0.8803,-0.8816,-0.8816,-0.8789,-0.8463,-0.8319,-2.0178,-2.0456,-2.0668,-2.0723,-2.0555,-2.0183,-1.9418,-1.8318,-1.7238,-1.6426,-1.5435,-1.4951,-1.5766,-1.6049,-1.6675,-1.829,-1.8963,-1.9507,-2.0268,-2.1042,-2.1735,-2.2229,-2.3632,-2.4746,-2.5203,-2.6133,-2.6691,-2.6691,-2.6691,-2.6691,-2.6691,-2.6691,-2.6691,-2.6691,-2.6691,-2.6691,-2.6691,-2.6384,-2.6227,-2.6227,-2.5976,-2.5461,-2.468,-2.4334,-2.3763,-2.3006,-2.2368,-2.2149,-2.2223,-2.1354,-2.1087,-2.1118,-2.0381,-2.0015,-1.9892,-1.9892,-1.9818,-1.9708,-1.9708,-1.9708,-1.9708,-1.9708,-1.9708,-1.9708,-1.9708,-1.9708,-1.9708,-1.9708,-1.9708,-1.9708,-1.9708,-1.9708,-1.9603,-1.9244,-1.9024,-1.8688,-1.7967,-1.7665,-1.7191,-1.6101,-1.5887,-1.5596,-1.4734,-1.4277,-1.3986,-1.3838,-1.3453,-1.3198,-1.3198,-1.3198,-1.3198,-1.3198,-1.3198,-1.306,-1.2726,-1.235,-1.2153,-1.2153,-1.1625,-1.1121,-1.0719,-1.0323,-0.9876,-0.9408,-0.9141,-0.8814,-0.8463,-0.8679,-0.8679,-0.8449,-0.8062,-0.7889,-1.9636,-1.9888,-2.0069,-2.0013,-1.9782,-1.9456,-1.8995,-1.8115,-1.7255,-1.6785,-1.6094,-1.5748,-1.6263,-1.6551,-1.7016,-1.8011,-1.8828,-1.9473,-1.9934,-2.0927,-2.1887,-2.2632,-2.4409,-2.5592,-2.5592,-2.6268,-2.6691,-2.6691,-2.6691,-2.6691,-2.6691,-2.6691,-2.6691,-2.6691,-2.6539,-2.6453,-2.6453,-2.5961,-2.5689,-2.5689,-2.5689,-2.5149,-2.4153,-2.4198,-2.3577,-2.2473,-2.201,-2.1796,0.0,-2.0862,-2.0599,-2.0665,-1.9962,-1.9708,-1.9708,-1.9708,-1.9708,-1.9708,-1.9708,-1.9708,-1.9708,-1.9708,-1.9708,-1.9708,-1.9708,-1.9708,-1.9708,-1.9708,-1.9548,-1.9406,-1.9406,-1.9244,-1.9006,-1.8669,-1.8438,-1.8125,-1.7442,-1.7229,-1.6897,-1.5886,-1.5805,-1.5685,-1.5024,-1.445,-1.4103,-1.4103,-1.3584,-1.3198,-1.3198,-1.3198,-1.3198,-1.3198,-1.3198,-1.3198,-1.3198,-1.2885,-1.2701,-1.2701,-1.2015,-1.1425,-1.106,-1.0298,-0.9675,-0.9182,-0.8803,-0.8425,-0.8076,-0.8284,-0.828,-0.8062,-0.7827,-0.7695,0.0,-1.9301,-1.9415,-1.9761,-1.9321,-1.8826,-1.8826,-1.7721,0.0,-1.7188,-1.671,-1.6467,-1.72,-1.7344,-1.7493,-1.7957,-1.9152,-2.0035,-2.0137,-2.1485,-2.2719,-2.346,-2.4814,-2.5693,-2.5693,-2.6302,-2.6691,-2.6691,-2.6691,-2.6691,-2.6691,-2.6691,-2.6691,-2.6657,-2.6175,-2.5961,-2.6013,-2.5468,-2.5182,-2.5144,-2.5144,-2.4425,-2.3065,-2.3469,-2.2687,-2.0991,-2.0991,-2.0991,-2.0926,-2.0102,-1.9947,-2.0263,-1.9856,-1.9708,-1.9708,-1.9708,-1.9708,-1.9708,-1.9708,-1.9708,-1.9708,-1.9708,-1.9708,-1.9708,-1.9708,-1.9708,-1.969,-1.9639,-1.9281,-1.8893,-1.8855,-1.8477,-1.8086,-1.8046,-1.7666,-1.7291,-1.725,-1.6468,-1.5756,-1.5756,-1.5361,-1.5009,-1.5009,-1.4576,-1.4217,-1.4217,-1.3697,-1.3298,-1.3261,-1.3248,-1.3248,-1.3198,-1.3198,-1.3181,-1.3146,-1.3181,-1.3198,-1.3198,-1.2234,-1.1658,-1.162,-1.0205,-0.9234,-0.8817,-0.8446,-0.8076,-0.7695,-0.7695,-0.7695,-0.7695,-0.7695,-0.7695,-1.7683,0.0,-1.8532,-1.8365,-1.8189,-1.8065,0.0,-1.7348,-1.6728,-1.6823,-1.67,-1.6818,-1.7546,-1.7681,-1.8288,-2.0094,-2.0183,-2.0407,-2.1586,-2.3038,-2.4255,-2.5,-2.5896,-2.6437,-2.6437,-2.659,-2.6691,-2.6691,-2.6691,-2.6691,-2.6691,-2.6691,-2.6539,-2.6191,-2.567,-2.5596,-2.5995,-2.5468,-2.4992,-2.4592,-2.4592,-2.3854,-2.2521,-2.2998,-2.242,-2.0991,-2.0991,-2.0991,-2.0975,-2.0382,-2.0212,-2.0263,-1.9856,-1.9708,-1.9708,-1.9708,-1.9708,-1.9708,-1.9708,-1.9708,-1.9708,-1.9708,-1.9708,-1.9708,-1.9708,-1.9708,-1.9603,-1.9207,-1.9006,-1.8817,-1.84,-1.8204,-1.8007,-1.7585,-1.7394,-1.7188,-1.6774,-1.6494,-1.63,-1.63,-1.6199,-1.6132,-1.6132,-1.5668,-1.5324,-1.5324,-1.4859,-1.4356,-1.3946,-1.3896,-1.3715,-1.3248,-1.3198,-1.3047,-1.2703,-1.2995,-1.3198,-1.3198,-1.2628,-1.2097,-1.1688,-1.0353,-0.9385,-0.8895,-0.8191,-0.7797,-0.7695,-0.7695,-0.7695,-0.7695,-0.7695,-0.7695,-1.7064,-1.7815,-1.8526,-1.8345,-1.829,-1.829,-1.829,-1.7467,-1.6667,-1.6533,-1.648,-1.6542,-1.684,-1.7541,-1.8492,-1.9709,-2.0275,-2.1092,-2.2598,-2.378,-2.4778,-2.5507,-2.6251,-2.6691,-2.6691,-2.6691,-2.6691,-2.6691,-2.6691,-2.6691,-2.6691,-2.6691,-2.647,-2.6013,-2.5707,-2.5468,-2.5278,-2.4716,-2.4189,-2.3626,-2.3626,-2.2903,-2.1584,-2.2056,-2.1586,-2.0398,-2.0599,-2.0582,-2.0396,-2.0139,-2.0019,-2.0,-1.9782,-1.9708,-1.9708,-1.9708,-1.9708,-1.9708,-1.9708,-1.9708,-1.9708,-1.9708,-1.9708,-1.9639,-1.9406,-1.9332,-1.9262,-1.8987,-1.8554,-1.8106,-1.7807,-1.7544,-1.7291,-1.6993,-1.693,-1.6858,-1.6552,-1.65,-1.65,-1.65,-1.65,-1.65,-1.65,-1.6057,-1.5693,-1.5693,-1.5248,-1.4802,-1.45,-1.4462,-1.4261,-1.3659,-1.3383,-1.304,-1.2538,-1.2544,-1.2561,-1.2561,-1.206,-1.1636,-1.1342,-1.0255,-0.9431,-0.8951,-0.8523,-0.8295,-0.8295,-0.8295,-0.8295,-0.8295,-0.8295,-0.8295,-1.693,-1.7862,-1.8862,-1.8704,-1.8737,-1.8788,-1.8729,0.0,0.0,0.0,0.0,-1.6177,-1.6112,-1.7358,-1.8511,-1.8828,-2.0388,-2.202,-2.3391,-2.4203,-2.4948,-2.5693,-2.6319,-2.6691,-2.6691,-2.6691,-2.6691,-2.6691,-2.6691,-2.6691,-2.6691,-2.6641,-2.6367,-2.5888,-2.5797,-2.5278,-2.4287,-2.3815,-2.3297,-2.2703,-2.2598,-2.1889,-2.0707,-2.1042,-2.0658,-1.9711,-2.0054,-2.0017,-1.9708,-1.9708,-1.9708,-1.9708,-1.9708,-1.9708,-1.9708,-1.9708,-1.9708,-1.9708,-1.9708,-1.9708,-1.969,-1.9603,-1.9584,-1.9479,-1.8949,-1.8708,-1.865,-1.865,-1.8007,-1.7271,-1.7188,-1.6837,-1.65,-1.65,-1.65,-1.65,-1.65,-1.65,-1.65,-1.65,-1.65,-1.65,-1.65,-1.6132,-1.5819,-1.5819,-1.5449,-1.511,-1.5035,-1.5009,-1.4828,-1.4292,-1.3735,-1.3177,-1.2572,-1.2075,-1.1737,-1.1571,-1.1164,-1.0847,-1.0701,-0.9993,-0.942,-0.9004,-0.9004,-0.9004,-0.9004,-0.9004,-0.9004,-0.9004,-0.9004,-0.9004,-1.7083,-1.8037,-1.8681,-1.777,-1.7972,-1.8319,-1.8035,-1.7314,-1.6614,0.0,0.0,-1.6464,-1.7324,-1.799,-1.8993,-2.0807,-2.2218,-2.3359,-2.4203,-2.4966,-2.571,-2.6437,-2.6623,-2.6691,-2.6691,-2.6691,-2.6691,-2.6691,-2.6691,-2.6691,-2.6691,-2.6332,-2.587,-2.5335,-2.4875,-2.4348,-2.373,-2.3529,-2.3168,-2.2688,-2.2134,-2.1455,-2.0703,-2.0749,-2.0392,-1.9693,-1.9764,-1.9764,-1.9708,-1.9708,-1.9708,-1.9708,-1.9708,-1.9708,-1.9708,-1.9708,-1.9708,-1.9708,-1.9708,-1.9708,-1.9621,-1.9169,-1.9024,-1.893,-1.84,-1.7907,-1.7544,-1.7544,-1.7422,-1.7188,-1.6731,-1.6552,-1.65,-1.65,-1.65,-1.65,-1.65,-1.65,-1.65,-1.65,-1.65,-1.65,-1.65,-1.6425,-1.6375,-1.6375,-1.63,-1.6095,-1.563,-1.5567,-1.5374,-1.4821,-1.4306,-1.3612,-1.2651,-1.2114,-1.1442,-1.0582,-1.0824,-1.0625,-0.9838,-0.9669,-0.9401,-0.9014,-0.9004,-0.9004,-0.9004,-0.9004,-0.9004,-0.9004,-0.9004,-0.9004,-1.6448,-1.7262,-1.7922,-1.7425,-1.8246,-1.9179,-1.9243,-1.8373,-1.7534,0.0,0.0,0.0,0.0,-1.8337,-1.9655,-2.1831,-2.2871,-2.3799,-2.4932,-2.5389,-2.5879,-2.6607,-2.6691,-2.6691,-2.6691,-2.6691,-2.6691,-2.6691,-2.6691,-2.659,-2.6332,-2.612,-2.5615,-2.4776,-2.4532,-2.4142,-2.3595,-2.3222,-2.2904,-2.2688,-2.2009,-2.135,-2.0688,-2.0318,-1.9989,-1.9708,-1.9708,-1.9708,-1.9708,-1.9708,-1.9708,-1.9708,-1.9708,-1.9708,-1.9708,-1.9708,-1.9708,-1.9708,-1.9708,-1.9708,-1.9603,-1.9062,-1.8893,-1.8746,-1.7927,-1.7504,-1.7229,-1.6951,-1.6879,-1.6816,-1.6552,-1.65,-1.65,-1.65,-1.65,-1.65,-1.65,-1.65,-1.65,-1.65,-1.65,-1.65,-1.65,-1.65,-1.65,-1.65,-1.65,-1.64,-1.617,-1.6132,-1.5932,-1.5399,-1.459,-1.3786,-1.2997,-1.1926,-1.102,-1.0332,-1.0505,-1.0435,-0.999,-0.998,-0.9893,-0.9697,-0.9697,-0.9697,-0.9697,-0.9697,-0.9697,-0.9697,-0.9697,-0.9697,-1.5991,-1.6469,-1.7023,-1.7316,-1.8343,-1.9429,-1.9971,-1.9181,-1.8378,-1.8555,-1.8377,-1.8129,-1.7919,-1.8921,-2.0448,-2.2532,-2.3315,-2.4103,-2.5423,-2.5761,-2.6065,-2.6623,-2.6607,-2.6539,-2.6539,-2.6419,-2.635,-2.635,-2.635,-2.6192,-2.5834,-2.5689,-2.5179,-2.4197,-2.421,-2.3951,-2.3385,-2.3077,-2.2763,-2.2463,-2.1784,-2.1111,-2.0453,-1.9929,-1.9708,-1.9708,-1.9708,-1.9708,-1.9708,-1.9708,-1.9708,-1.9708,-1.9708,-1.9708,-1.9708,-1.9708,-1.9708,-1.9708,-1.9708,-1.9621,-1.9424,-1.8893,-1.8631,-1.8361,-1.7415,-1.7118,-1.7034,-1.6616,-1.65,-1.65,-1.65,-1.65,-1.65,-1.65,-1.65,-1.65,-1.65,-1.65,-1.65,-1.65,-1.65,-1.65,-1.65,-1.65,-1.65,-1.65,-1.638,-1.6281,-1.6281,-1.6173,-1.5926,-1.551,-1.4611,-1.3747,-1.3057,-1.1798,-1.0879,-1.0479,-1.0361,-1.0303,-1.0303,-1.0303,-1.0303,-1.0303,-1.0303,-1.0303,-1.0303,-1.0303,-1.0303,-1.0303,-1.0303,-1.0303,-1.6308,-1.6278,-1.6188,-1.7387,-1.7578,-1.7735,-1.87,-1.8648,-1.8474,-1.8814,-1.9137,-1.9349,-1.9264,-2.0162,-2.1438,-2.3078,-2.3951,-2.4694,-2.549,-2.6184,-2.664,-2.6691,-2.6314,-2.6049,-2.6049,-2.5615,-2.5316,-2.5316,-2.5316,-2.5281,-2.5259,-2.4792,-2.4195,-2.3479,-2.3588,-2.3368,-2.2763,-2.3287,-2.2936,-2.1754,-2.1096,-2.0423,-1.9768,-1.9723,-1.9708,-1.9708,-1.9708,-1.9708,-1.9708,-1.9708,-1.9708,-1.9708,-1.9708,-1.9708,-1.9708,-1.9708,-1.9708,-1.9708,-1.9708,-1.9369,-1.8874,-1.8341,-1.7827,-1.7312,-1.6731,-1.6552,-1.6552,-1.6522,-1.65,-1.65,-1.65,-1.65,-1.65,-1.65,-1.65,-1.65,-1.65,-1.65,-1.65,-1.65,-1.65,-1.65,-1.65,-1.65,-1.65,-1.65,-1.603,-1.5654,-1.5654,-1.5175,-1.4801,-1.479,-1.4261,-1.3488,-1.2446,-1.186,-1.1349,-1.0889,-1.0518,-1.0303,-1.0303,-1.0303,-1.0303,-1.0303,-1.0303,-1.0303,-1.0303,-1.0303,-1.0303,-1.0303,-1.0303,-1.0303,-1.5889,-1.5964,-1.6113,-1.7385,-1.7631,0.0,0.0,-1.9374,-1.9702,-2.0127,-2.0329,-2.0441,-2.04,-2.0925,-2.1884,-2.3466,-2.415,-2.4914,-2.6116,-2.6522,-2.6691,-2.6691,-2.6297,-2.6013,-2.6013,-2.5505,-2.5202,-2.5202,-2.5202,-2.5051,-2.4732,-2.4511,-2.3953,-2.3001,-2.3002,-2.2942,-2.2703,-2.2927,-2.2808,-2.2313,-2.1635,-2.0976,-2.0318,-1.9902,-1.9708,-1.9708,-1.9708,-1.9708,-1.9708,-1.9708,-1.9708,-1.9708,-1.9708,-1.9708,-1.9708,-1.9708,-1.9708,-1.9639,-1.9332,-1.9062,-1.8746,-1.7887,-1.7463,-1.7188,-1.6659,-1.65,-1.65,-1.65,-1.65,-1.65,-1.65,-1.65,-1.65,-1.65,-1.65,-1.65,-1.65,-1.65,-1.65,-1.65,-1.65,-1.65,-1.65,-1.65,-1.65,-1.65,-1.5986,-1.561,-1.561,-1.5073,-1.4698,-1.4698,-1.4165,-1.3396,-1.233,-1.2086,-1.1787,-1.1359,-1.0929,-1.0557,-1.0312,-1.0303,-1.0303,-1.0303,-1.0303,-1.0303,-1.0303,-1.0303,-1.0303,-1.0303,-1.0303,-1.0303,-1.535,-1.547,-1.5784,-1.7071,0.0,0.0,-1.8938,-1.9612,-2.015,-2.0684,-2.078,-2.0829,-2.0959,-2.1406,-2.2165,-2.3439,-2.4182,-2.4978,-2.6062,-2.6245,-2.6245,-2.6245,-2.5799,-2.5486,-2.5486,-2.5012,-2.4697,-2.4697,-2.4697,-2.4516,-2.4178,-2.4158,-2.3701,-2.2739,-2.2703,-2.2598,-2.2388,-2.2388,-2.2388,-2.2388,-2.1695,-2.1137,-2.0673,-2.0004,-1.9708,-1.9708,-1.9708,-1.9708,-1.9708,-1.9708,-1.9708,-1.9708,-1.9708,-1.9708,-1.9708,-1.9708,-1.9708,-1.9621,-1.9095,-1.8798,-1.8496,-1.7585,-1.7188,-1.6972,-1.6616,-1.65,-1.65,-1.65,-1.65,-1.65,-1.65,-1.65,-1.65,-1.65,-1.65,-1.65,-1.65,-1.65,-1.65,-1.65,-1.65,-1.65,-1.65,-1.6337,-1.6216,-1.6216,-1.5543,-1.5039,-1.5039,-1.4514,-1.4131,-1.4131,-1.3766,-1.3226,-1.2475,-1.2408,-1.2246,-1.1819,-1.1494,-1.1074,-1.0508,-1.0371,-1.0303,-1.0303,-1.0303,-1.0303,-1.0303,-1.0303,-1.0303,-1.0303,-1.0303,-1.0205,-1.4811,-1.4811,-1.5126,-1.6398,-1.7219,-1.7893,-1.8568,-1.9073,-1.9588,-2.019,-2.0313,-2.0449,-2.0926,-2.1616,-2.2322,-2.2991,-2.4052,-2.4893,-2.5147,-2.5202,-2.5202,-2.5202,-2.4732,-2.441,-2.441,-2.3921,-2.3595,-2.3595,-2.3595,-2.3595,-2.3595,-2.3595,-2.331,-2.2703,-2.2688,-2.2373,-2.1695,-2.168,-2.168,-2.168,-2.1017,-2.0703,-2.0673,-2.0004,-1.9708,-1.9708,-1.9708,-1.9708,-1.9708,-1.9708,-1.9708,-1.9708,-1.9708,-1.9708,-1.969,-1.969,-1.969,-1.9603,-1.9062,-1.8535,-1.8007,-1.7463,-1.693,-1.65,-1.65,-1.65,-1.65,-1.65,-1.65,-1.65,-1.65,-1.65,-1.65,-1.65,-1.65,-1.65,-1.65,-1.65,-1.65,-1.6488,-1.65,-1.65,-1.6466,-1.5986,-1.5588,-1.5588,-1.4561,-1.3792,-1.3802,-1.3262,-1.2905,-1.2905,-1.2905,-1.2905,-1.2905,-1.2905,-1.2695,-1.2242,-1.2203,-1.1814,-1.0947,-1.0508,-1.0303,-1.0303,-1.0303,-1.0303,-1.0303,-1.0303,-1.0303,-1.0303,-1.0303,-1.0,-1.4931,-1.5441,-1.6338,-1.7189,-1.8252,-1.9151,-1.9346,-1.9514,0.0,-2.08,-2.1009,-2.115,-2.161,-2.2267,-2.281,-2.3069,-2.3785,-2.4512,-2.5125,-2.5202,-2.5202,-2.5202,-2.4732,-2.441,-2.441,-2.3921,-2.3595,-2.3595,-2.3595,-2.3415,-2.3002,-2.337,-2.2892,-2.135,-2.1739,-2.1665,-2.1006,-2.1006,-2.1231,-2.168,-2.1017,-2.0703,-2.0673,-2.0004,-1.9708,-1.9708,-1.9708,-1.9708,-1.9708,-1.9708,-1.9708,-1.9708,-1.9708,-1.946,-1.9151,-1.9151,-1.8893,-1.8496,-1.7967,-1.7666,-1.7442,-1.6909,-1.6637,-1.65,-1.65,-1.65,-1.65,-1.65,-1.65,-1.65,-1.65,-1.65,-1.65,-1.65,-1.65,-1.65,-1.65,-1.65,-1.638,-1.5964,-1.5864,-1.5732,-1.531,-1.5085,-1.4971,-1.4971,-1.4295,-1.3637,-1.3214,-1.3017,-1.2905,-1.2905,-1.2905,-1.2905,-1.2905,-1.2905,-1.2856,-1.2695,-1.2379,-1.1814,-1.0947,-1.0791,-1.0586,-1.0312,-1.0303,-1.0303,-1.0303,-1.0303,-1.0303,-1.0303,-0.9922,-0.9657,-1.523,-1.592,-1.692,-1.7863,-1.8702,-1.9361,-1.9648,-1.9708,-1.987,-2.0536,-2.0666,-2.0755,-2.1037,-2.1808,-2.2443,-2.2527,-2.3252,-2.3985,-2.4483,-2.4556,-2.4556,-2.4556,-2.4266,-2.4074,-2.4074,-2.3794,-2.3595,-2.3595,-2.337,-2.3092,-2.2718,-2.2793,-2.2308,-2.1122,-2.1231,-2.1111,-2.0703,-2.0438,-2.0647,-2.1291,-2.0617,-2.0453,-2.0673,-2.0004,-1.9708,-1.9708,-1.9708,-1.9708,-1.9708,-1.9708,-1.9708,-1.9708,-1.9708,-1.9497,-1.9188,-1.8987,-1.8688,-1.8322,-1.7565,-1.7312,-1.7209,-1.668,-1.65,-1.65,-1.65,-1.65,-1.65,-1.65,-1.65,-1.65,-1.65,-1.65,-1.65,-1.65,-1.65,-1.65,-1.65,-1.65,-1.6315,-1.572,-1.561,-1.541,-1.4789,-1.4491,-1.4329,-1.4329,-1.3826,-1.331,-1.2954,-1.2905,-1.2905,-1.2905,-1.2905,-1.2905,-1.2905,-1.2905,-1.2905,-1.2905,-1.2627,-1.2145,-1.1443,-1.126,-1.094,-1.0433,-1.0433,-1.0225,-0.9835,-0.9835,-0.9773,-0.9657,-0.9339,-0.9059,-1.5559,-1.6248,-1.71,-1.8371,-1.8747,-1.8957,-1.9573,-1.9708,-1.9723,-1.9783,-1.9798,-1.9813,-1.9872,-2.0831,-2.1655,-2.1779,-2.272,-2.3452,-2.3569,-2.3595,-2.3595,-2.3595,-2.3595,-2.3595,-2.3595,-2.355,-2.352,-2.352,-2.2957,-2.2583,-2.2523,-2.1994,-2.1635,-2.1515,-2.0991,-2.0658,-2.0598,-1.9989,-2.0004,-2.0598,-1.9989,-2.0019,-2.0583,-1.9974,-1.9708,-1.9708,-1.9708,-1.9708,-1.9708,-1.9708,-1.9708,-1.9708,-1.9708,-1.9672,-1.9566,-1.9024,-1.8798,-1.8612,-1.7585,-1.7229,-1.7146,-1.6659,-1.65,-1.65,-1.65,-1.65,-1.65,-1.65,-1.65,-1.65,-1.65,-1.65,-1.65,-1.65,-1.65,-1.65,-1.65,-1.6457,-1.6238,-1.5632,-1.5465,-1.5253,-1.4629,-1.4073,-1.3732,-1.3732,-1.3238,-1.2905,-1.2905,-1.2905,-1.2905,-1.2905,-1.2905,-1.2905,-1.2905,-1.2905,-1.2905,-1.2905,-1.2905,-1.2705,-1.2281,-1.1878,-1.1328,-1.0606,-1.0593,-1.0127,-0.9131,-0.9131,-0.8995,-0.8725,-0.8717,-0.8421,-1.5125,-1.6219,-1.7684,-1.8508,-1.9091,-1.9528,-1.9678,-1.9708,-1.9857,-2.0378,-2.0479,-2.0662,-2.1171,-2.1919,-2.2455,-2.2484,-2.3086,-2.358,-2.3601,-2.3595,-2.3595,-2.3595,-2.3595,-2.3595,-2.3595,-2.3182,-2.2897,-2.2897,-2.2298,-2.168,-2.1171,-2.1485,-2.1216,-2.0172,-2.0498,-2.0453,-1.9914,-1.9768,-1.9783,-1.9899,-1.9768,-1.9783,-1.9899,-1.9768,-1.9708,-1.9708,-1.9708,-1.9708,-1.9708,-1.9708,-1.9708,-1.9708,-1.9708,-1.9442,-1.9006,-1.8477,-1.8007,-1.7544,-1.6888,-1.668,-1.6659,-1.6531,-1.65,-1.65,-1.65,-1.65,-1.65,-1.65,-1.65,-1.65,-1.65,-1.65,-1.65,-1.65,-1.65,-1.65,-1.65,-1.6129,-1.5622,-1.5017,-1.4503,-1.4003,-1.3382,-1.3176,-1.3079,-1.3079,-1.2968,-1.2905,-1.2905,-1.2905,-1.2905,-1.2905,-1.2905,-1.2905,-1.2905,-1.2905,-1.2905,-1.2905,-1.2905,-1.2842,-1.2744,-1.2314,-1.162,-1.0624,-1.0593,-1.0204,-0.9421,-0.9421,-0.9266,-0.9019,-0.8796,-0.8422,-1.5546,-1.6682,-1.7938,-1.8927,-1.9453,-1.9708,-1.9708,-1.9708,-1.9813,-2.0154,-2.0228,-2.0333,-2.0681,-2.1026,-2.1475,-2.2119,-2.2493,-2.2892,-2.3505,-2.3595,-2.349,-2.3191,-2.3182,-2.3026,-2.2712,-2.2418,-2.2224,-2.2224,-2.1605,-2.1081,-2.0718,-2.0722,-2.0427,-1.9723,-2.0034,-2.0049,-1.9708,-1.9708,-1.9708,-1.9708,-1.9708,-1.9708,-1.9708,-1.9708,-1.9708,-1.9708,-1.9708,-1.9708,-1.9708,-1.9708,-1.9708,-1.9672,-1.9424,-1.9151,-1.8798,-1.8007,-1.7544,-1.7209,-1.6701,-1.65,-1.65,-1.65,-1.65,-1.65,-1.65,-1.65,-1.65,-1.65,-1.65,-1.65,-1.65,-1.65,-1.65,-1.65,-1.6281,-1.6073,-1.6073,-1.5599,-1.4983,-1.4399,-1.4027,-1.3624,-1.2992,-1.2905,-1.2905,-1.2905,-1.2905,-1.2905,-1.2905,-1.2905,-1.2905,-1.2905,-1.2905,-1.2905,-1.2905,-1.2905,-1.2905,-1.2905,-1.2905,-1.2905,-1.2905,-1.2316,-1.1603,-1.0714,-1.038,-0.9803,-0.8985,-0.8985,-0.8815,-0.852,-0.8373,-0.8165,-1.5771,-1.6936,-1.8027,-1.9378,-1.9708,-1.9708,-1.9708,-1.9708,-1.9708,-1.9708,-1.9708,-1.9738,-1.9839,-1.9869,-2.0258,-2.15,-2.1695,-2.2069,-2.3116,-2.3266,-2.3086,-2.2583,-2.2523,-2.2313,-2.1739,-2.1605,-2.153,-2.153,-2.0917,-2.0543,-2.0543,-1.9989,-1.9708,-1.9708,-1.9708,-1.9708,-1.9708,-1.9708,-1.9708,-1.9708,-1.9708,-1.9708,-1.9708,-1.9708,-1.9708,-1.9708,-1.9708,-1.9708,-1.9708,-1.9708,-1.9708,-1.9657,-1.9207,-1.8987,-1.8779,-1.7807,-1.7394,-1.7209,-1.6701,-1.65,-1.65,-1.65,-1.65,-1.65,-1.65,-1.65,-1.65,-1.65,-1.65,-1.65,-1.65,-1.65,-1.65,-1.65,-1.603,-1.561,-1.561,-1.505,-1.4399,-1.3897,-1.3708,-1.3481,-1.2992,-1.2905,-1.2905,-1.2905,-1.2905,-1.2905,-1.2905,-1.2905,-1.2905,-1.2905,-1.2905,-1.2905,-1.2905,-1.2905,-1.2905,-1.2905,-1.2905,-1.2905,-1.2905,-1.208,-1.1366,-1.0813,-1.0141,-0.9361,-0.8476,-0.8476,-0.8297,-0.7985,-0.8032,-0.8005,-1.4111,-1.592,-1.8027,-1.9378,-1.9708,-1.9708,-1.9708,-1.9708,-1.9708,-1.9708,-1.9708,-1.9887,-2.0468,-2.0554,-2.0827,-2.1575,-2.1695,-2.1754,-2.1919,-2.1949,-2.1919,-2.1844,-2.1829,-2.1799,-2.171,-2.1171,-2.0823,-2.0823,-2.0213,-1.9842,-1.9842,-1.9753,-1.9708,-1.9708,-1.9708,-1.9708,-1.9708,-1.9708,-1.9708,-1.9708,-1.9708,-1.9708,-1.9708,-1.9708,-1.9708,-1.9708,-1.9708,-1.9708,-1.9708,-1.9708,-1.9708,-1.969,-1.9621,-1.9314,-1.8836,-1.8224,-1.7706,-1.7209,-1.6701,-1.65,-1.65,-1.65,-1.65,-1.65,-1.65,-1.65,-1.65,-1.65,-1.65,-1.65,-1.65,-1.65,-1.65,-1.65,-1.603,-1.561,-1.561,-1.4732,-1.3897,-1.3815,-1.3372,-1.2992,-1.2905,-1.2905,-1.2905,-1.2905,-1.2905,-1.2905,-1.2905,-1.2905,-1.2905,-1.2905,-1.2905,-1.2905,-1.2905,-1.2905,-1.2905,-1.2905,-1.2905,-1.2905,-1.2905,-1.1633,-1.0889,-1.0788,-1.0141,-0.9444,-0.8751,-0.8751,-0.8604,-0.8348,-0.8571,-0.8392,-1.5038,-1.6817,-1.8493,-1.9468,-1.9708,-1.9708,-1.9708,-1.9708,-1.9708,-1.9708,-1.9708,-1.9798,-2.0094,-2.0139,-2.0363,-2.1036,-2.1141,-2.1276,-2.165,-2.1695,-2.156,-2.1186,-2.1141,-2.0991,-2.0621,-2.0303,-2.0139,-2.0139,-1.9872,-1.9708,-1.9708,-1.9708,-1.9708,-1.9708,-1.9708,-1.9708,-1.9708,-1.9708,-1.9708,-1.9708,-1.9708,-1.9708,-1.9708,-1.9708,-1.9708,-1.9708,-1.9708,-1.9708,-1.9708,-1.9708,-1.953,-1.9225,-1.893,-1.8477,-1.7947,-1.7415,-1.7055,-1.6816,-1.6573,-1.65,-1.65,-1.65,-1.65,-1.65,-1.65,-1.65,-1.65,-1.65,-1.65,-1.65,-1.65,-1.65,-1.65,-1.65,-1.603,-1.561,-1.561,-1.4653,-1.3708,-1.3348,-1.3079,-1.2905,-1.2905,-1.2905,-1.2905,-1.2905,-1.2905,-1.2905,-1.2905,-1.2905,-1.2905,-1.2905,-1.2905,-1.2905,-1.2905,-1.2905,-1.2905,-1.2905,-1.2501,-1.2476,-1.2881,-1.1183,-1.0415,-1.0788,-0.9762,-0.908,-0.8804,-0.8804,-0.8744,-0.8617,-0.8751,-0.8671,-1.577,-1.7086,-1.7984,-1.9151,-1.9453,-1.9498,-1.9663,-1.9708,-1.9708,-1.9708,-1.9708,-1.9708,-1.9708,-1.9708,-1.9854,-2.0363,-2.0453,-2.0617,-2.1111,-2.1186,-2.1006,-2.0513,-2.0453,-2.0243,-1.9753,-1.9708,-1.9708,-1.9708,-1.9708,-1.9708,-1.9708,-1.9708,-1.9708,-1.9708,-1.9708,-1.9708,-1.9708,-1.9708,-1.9708,-1.9708,-1.9708,-1.9708,-1.9708,-1.9708,-1.9621,-1.9497,-1.9639,-1.9708,-1.969,-1.9548,-1.9262,-1.8855,-1.8322,-1.7767,-1.725,-1.6858,-1.6616,-1.65,-1.65,-1.65,-1.65,-1.65,-1.65,-1.65,-1.65,-1.65,-1.65,-1.65,-1.65,-1.65,-1.65,-1.65,-1.65,-1.65,-1.6173,-1.571,-1.5241,-1.4434,-1.3613,-1.3017,-1.2905,-1.2905,-1.2905,-1.2905,-1.2905,-1.2905,-1.2905,-1.2905,-1.2905,-1.2905,-1.2905,-1.2905,-1.2905,-1.2905,-1.2905,-1.2905,-1.2905,-1.2905,-1.2212,-1.2055,-1.2608,-1.0804,-1.0038,-1.0542,-0.9387,-0.8804,-0.8804,-0.8804,-0.8804,-0.8804,-0.8804,-0.8804,-1.5124,-1.5425,-1.5619,-1.8119,-1.8747,-1.8912,-1.9558,-1.9708,-1.9708,-1.9708,-1.9708,-1.9708,-1.9708,-1.9708,-1.9708,-1.9753,-1.9753,-1.9768,-1.9798,-1.9813,-1.9798,-1.9768,-1.9753,-1.9738,-1.9708,-1.9708,-1.9708,-1.9708,-1.9708,-1.9708,-1.9708,-1.9708,-1.9708,-1.9708,-1.9708,-1.9708,-1.9708,-1.9708,-1.9708,-1.9708,-1.9708,-1.9708,-1.9708,-1.9708,-1.9424,-1.8968,-1.9479,-1.9708,-1.9657,-1.9151,-1.893,-1.8855,-1.8322,-1.7767,-1.7312,-1.7271,-1.693,-1.65,-1.65,-1.65,-1.65,-1.65,-1.65,-1.65,-1.65,-1.65,-1.65,-1.65,-1.65,-1.65,-1.65,-1.65,-1.65,-1.65,-1.6479,-1.5986,-1.4249,-1.3839,-1.3613,-1.3017,-1.2905,-1.2905,-1.2905,-1.2905,-1.2905,-1.2905,-1.2905,-1.2905,-1.2905,-1.2905,-1.2905,-1.2905,-1.2905,-1.2905,-1.2905,-1.2905,-1.2905,-1.2905,-1.2212,-1.1814,-1.1864,-1.0542,-0.9814,-0.9865,-0.9159,-0.8804,-0.8804,-0.8804,-0.8804,-0.8804,-0.8804,-0.8804,-1.4259,-1.5247,-1.6234,-1.7174,-1.8057,-1.8762,-1.9001,-1.9393,-1.9708,-1.9708,-1.9708,-1.9708,-1.9708,-1.9708,-1.9708,-1.9708,-1.9708,-1.9708,-1.9708,-1.9708,-1.9708,-1.9708,-1.9708,-1.9708,-1.9708,-1.9708,-1.9708,-1.9708,-1.9708,-1.9708,-1.9708,-1.9708,-1.9708,-1.9708,-1.9708,-1.9708,-1.9708,-1.9708,-1.9708,-1.9708,-1.9708,-1.9708,-1.969,-1.935,-1.908,-1.8893,-1.8727,-1.8669,-1.865,-1.8477,-1.8185,-1.7847,-1.7666,-1.725,-1.6795,-1.6795,-1.6659,-1.65,-1.65,-1.65,-1.65,-1.65,-1.65,-1.65,-1.65,-1.65,-1.65,-1.65,-1.65,-1.65,-1.65,-1.65,-1.65,-1.65,-1.65,-1.6216,-1.5186,-1.4342,-1.3732,-1.3529,-1.3176,-1.2905,-1.2905,-1.2905,-1.2905,-1.2905,-1.2905,-1.2905,-1.2905,-1.2905,-1.2905,-1.2905,-1.2905,-1.2905,-1.2905,-1.2905,-1.2905,-1.2905,-1.1807,-1.1366,-1.1789,-1.009,-0.9361,-0.9788,-0.9133,-0.8804,-0.8804,-0.8804,-0.8804,-0.8804,-0.8804,-0.8804,-1.3466,-1.4574,-1.5876,-1.6532,-1.722,-1.7954,-1.8837,-1.9214,-1.9385,-1.9416,-1.9424,-1.9424,-1.9424,-1.9281,-1.9281,-1.9639,-1.9708,-1.9708,-1.9708,-1.9708,-1.9708,-1.9708,-1.9708,-1.9708,-1.9708,-1.9708,-1.9708,-1.9708,-1.9708,-1.9708,-1.9708,-1.9708,-1.9708,-1.9708,-1.9708,-1.9708,-1.9708,-1.9708,-1.9708,-1.9708,-1.9708,-1.9708,-1.969,-1.9332,-1.8968,-1.8612,-1.8263,-1.8106,-1.8086,-1.7907,-1.7626,-1.7271,-1.7097,-1.6816,-1.65,-1.65,-1.65,-1.65,-1.65,-1.65,-1.65,-1.65,-1.65,-1.65,-1.65,-1.65,-1.65,-1.65,-1.65,-1.65,-1.65,-1.65,-1.65,-1.65,-1.65,-1.6402,-1.5986,-1.496,-1.405,-1.3839,-1.331,-1.2905,-1.2905,-1.2905,-1.2905,-1.2905,-1.2905,-1.2905,-1.2905,-1.2905,-1.2905,-1.2905,-1.2905,-1.2905,-1.2905,-1.2905,-1.2905,-1.2905,-1.1584,-1.099,-1.1441,-0.9744,-0.9008,-0.9465,-0.9035,-0.8804,-0.8804,-0.8804,-0.8804,-0.8804,-0.8804,-0.8804,0.0,0.0,0.0,-1.6144,-1.6219,-1.6488,-1.9019,-1.9106,-1.8696,-1.8828,-1.8864,-1.8864,-1.8859,-1.8458,-1.8438,-1.9479,-1.9639,-1.9639,-1.9639,-1.9639,-1.9639,-1.9639,-1.9672,-1.969,-1.969,-1.969,-1.9708,-1.9708,-1.9708,-1.9708,-1.9708,-1.9708,-1.9708,-1.9708,-1.9708,-1.9708,-1.9708,-1.9708,-1.9708,-1.9708,-1.9708,-1.9708,-1.9708,-1.969,-1.9114,-1.8106,-1.8086,-1.8066,-1.8007,-1.7483,-1.7271,-1.7209,-1.6689,-1.65,-1.65,-1.65,-1.65,-1.65,-1.65,-1.65,-1.65,-1.65,-1.65,-1.65,-1.65,-1.65,-1.65,-1.65,-1.65,-1.65,-1.65,-1.65,-1.65,-1.65,-1.65,-1.65,-1.6479,-1.5545,-1.4525,-1.3933,-1.3324,-1.2905,-1.2905,-1.2905,-1.2905,-1.2905,-1.2905,-1.2905,-1.2905,-1.2905,-1.2905,-1.2905,-1.2905,-1.2905,-1.2905,-1.2905,-1.2905,-1.2905,-1.1584,-1.0813,-1.0788,-0.9536,-0.8831,-0.8804,-0.8804,-0.8804,-0.8804,-0.8804,-0.8804,-0.8804,-0.8804,-0.8804,-1.2924,0.0,0.0,0.0,0.0,0.0,-1.6802,-1.7221,-1.7658,-1.8086,-1.7945,-1.7866,-1.8257,-1.8204,-1.8204,-1.8496,-1.8535,-1.8535,-1.8535,-1.8535,-1.8535,-1.8535,-1.8893,-1.9132,-1.9132,-1.946,-1.9708,-1.9708,-1.9708,-1.9708,-1.9708,-1.9708,-1.9708,-1.9708,-1.9708,-1.9708,-1.9708,-1.9708,-1.9708,-1.9708,-1.9708,-1.9708,-1.969,-1.9299,-1.8746,-1.8086,-1.7686,-1.7312,-1.693,-1.6774,-1.671,-1.671,-1.6552,-1.65,-1.65,-1.65,-1.65,-1.65,-1.65,-1.65,-1.65,-1.65,-1.65,-1.65,-1.65,-1.65,-1.65,-1.65,-1.65,-1.65,-1.65,-1.65,-1.65,-1.65,-1.65,-1.638,-1.593,-1.5242,-1.4652,-1.4491,-1.361,-1.2905,-1.2905,-1.2905,-1.2905,-1.2905,-1.2905,-1.2905,-1.2905,-1.2905,-1.2905,-1.2905,-1.2905,-1.2905,-1.2905,-1.2905,-1.2905,-1.2905,-1.2039,-1.1316,-1.0813,-0.9987,-0.9283,-0.8811,-0.8804,-0.8804,-0.8804,-0.8804,-0.8804,-0.8804,-0.8804,-0.8804,-1.3822,-1.4481,-1.532,-1.5068,0.0,0.0,-1.6847,-1.6972,-1.7117,-1.7845,-1.7562,-1.7331,-1.7698,-1.7585,-1.7504,-1.7727,-1.7585,-1.7585,-1.8046,-1.8106,-1.8106,-1.8106,-1.838,-1.8574,-1.8574,-1.9043,-1.9369,-1.9369,-1.9566,-1.9708,-1.9708,-1.9708,-1.9708,-1.9708,-1.9708,-1.9708,-1.9708,-1.9708,-1.9708,-1.9708,-1.946,-1.9479,-1.969,-1.9151,-1.8612,-1.8086,-1.7767,-1.7188,-1.65,-1.65,-1.65,-1.65,-1.65,-1.65,-1.65,-1.65,-1.65,-1.65,-1.65,-1.65,-1.65,-1.65,-1.65,-1.65,-1.65,-1.65,-1.65,-1.65,-1.65,-1.65,-1.65,-1.65,-1.6445,-1.6194,-1.6117,-1.5964,-1.5343,-1.4755,-1.4329,-1.4329,-1.3539,-1.2905,-1.2905,-1.2905,-1.2905,-1.2905,-1.2905,-1.2905,-1.2905,-1.2905,-1.2905,-1.2905,-1.2905,-1.2905,-1.2905,-1.2905,-1.2905,-1.2905,-1.1965,-1.1216,-1.0813,-0.9891,-0.9211,-0.8811,-0.8804,-0.8804,-0.8804,-0.8804,-0.8804,-0.8804,-0.8804,-0.8804,-1.5171,-1.508,-1.5366,-1.6353,-1.586,0.0,-1.779,-1.7427,-1.6869,-1.7698,-1.7317,-1.6892,-1.7069,-1.6717,-1.6545,-1.6977,-1.6726,-1.6837,-1.7787,-1.7927,-1.7927,-1.7927,-1.7967,-1.8007,-1.8007,-1.8496,-1.8817,-1.8817,-1.9314,-1.9639,-1.9708,-1.9708,-1.9708,-1.9708,-1.9708,-1.9708,-1.9708,-1.9708,-1.9708,-1.969,-1.9169,-1.9151,-1.9584,-1.9062,-1.8516,-1.8007,-1.8007,-1.7442,-1.65,-1.65,-1.65,-1.65,-1.65,-1.65,-1.65,-1.6584,-1.655,-1.65,-1.6575,-1.655,-1.65,-1.65,-1.65,-1.65,-1.65,-1.65,-1.6513,-1.6575,-1.655,-1.6513,-1.6575,-1.655,-1.6358,-1.5742,-1.561,-1.541,-1.4744,-1.4167,-1.3779,-1.3708,-1.3262,-1.2905,-1.2905,-1.2905,-1.2905,-1.2905,-1.2905,-1.2905,-1.2905,-1.2905,-1.2905,-1.2905,-1.2905,-1.2905,-1.2905,-1.2905,-1.2905,-1.2905,-1.1658,-1.0889,-1.0788,-0.9588,-0.8883,-0.8804,-0.8804,-0.8804,-0.8804,-0.8804,-0.8804,-0.8804,-0.8804,-0.8791,-1.6368,-1.6712,-1.6951,-1.6173,-1.6563,0.0,-1.58,-1.589,-1.625,-1.6382,-1.5754,-1.5313,-1.5764,-1.585,-1.5746,-1.5412,-1.5994,-1.6573,-1.6774,-1.6816,-1.6816,-1.6816,-1.7188,-1.7463,-1.7463,-1.7947,-1.8263,-1.8263,-1.8746,-1.9244,-1.969,-1.9708,-1.9708,-1.9708,-1.9708,-1.9708,-1.9708,-1.9708,-1.9708,-1.969,-1.9169,-1.8949,-1.9043,-1.8496,-1.7967,-1.7463,-1.7463,-1.7097,-1.65,-1.65,-1.65,-1.65,-1.65,-1.65,-1.655,-1.7049,-1.6923,-1.6563,-1.7049,-1.6911,-1.65,-1.65,-1.65,-1.65,-1.65,-1.65,-1.6588,-1.7087,-1.6873,-1.66,-1.7087,-1.6861,-1.6358,-1.5742,-1.561,-1.5298,-1.4202,-1.3886,-1.3661,-1.3176,-1.2968,-1.2905,-1.2905,-1.2905,-1.2905,-1.2905,-1.2905,-1.2905,-1.2905,-1.2905,-1.2905,-1.2905,-1.2905,-1.2905,-1.2905,-1.2905,-1.2905,-1.2905,-1.2089,-1.1366,-1.0813,-1.0038,-0.9361,-0.8804,-0.8804,-0.8804,-0.8804,-0.8804,-0.8804,-0.8804,-0.8804,-0.8684,-1.7713,-1.7713,-1.7639,-1.7311,-1.7459,0.0,0.0,-1.6573,-1.6601,-1.7297,-1.6329,-1.5486,-1.5917,-1.5782,-1.5523,-1.5318,-1.5743,-1.6107,-1.6107,-1.6325,-1.65,-1.65,-1.6731,-1.6888,-1.6888,-1.7394,-1.7807,-1.8086,-1.8593,-1.9024,-1.9281,-1.9548,-1.9708,-1.9708,-1.9708,-1.9708,-1.9708,-1.9708,-1.9708,-1.969,-1.8893,-1.8631,-1.8874,-1.8066,-1.7544,-1.7312,-1.7312,-1.6993,-1.65,-1.65,-1.65,-1.65,-1.65,-1.65,-1.6563,-1.7184,-1.72,-1.6986,-1.731,-1.7187,-1.6898,-1.6588,-1.65,-1.65,-1.65,-1.6722,-1.7011,-1.73,-1.7375,-1.7426,-1.7714,-1.7375,-1.6715,-1.5764,-1.5348,-1.4824,-1.36,-1.3348,-1.3262,-1.2968,-1.2905,-1.2905,-1.2905,-1.2905,-1.2905,-1.2905,-1.2905,-1.2905,-1.2905,-1.2905,-1.2905,-1.2905,-1.2905,-1.2905,-1.2905,-1.2905,-1.2749,-1.2369,-1.1699,-1.099,-1.0346,-0.9666,-0.9133,-0.8811,-0.8804,-0.8804,-0.8804,-0.8804,-0.8804,-0.8804,-0.8804,-0.8651,-1.8897,-1.8508,-1.8177,-1.8612,-1.8386,-1.8162,0.0,0.0,0.0,-1.8444,-1.7288,-1.616,-1.6552,-1.6013,-1.5508,-1.5522,-1.5683,-1.5719,-1.5424,-1.6006,-1.6431,-1.6358,-1.6437,-1.65,-1.65,-1.6798,-1.7275,-1.7894,-1.8249,-1.856,-1.8878,-1.9314,-1.9584,-1.9708,-1.9603,-1.9548,-1.9548,-1.9548,-1.9479,-1.9387,-1.8516,-1.8283,-1.8554,-1.7585,-1.7146,-1.7146,-1.7146,-1.6888,-1.65,-1.65,-1.65,-1.65,-1.6635,-1.6663,-1.6773,-1.7451,-1.7626,-1.7574,-1.7664,-1.7564,-1.7322,-1.6835,-1.6663,-1.6663,-1.6663,-1.7087,-1.7586,-1.7664,-1.794,-1.8229,-1.8342,-1.7847,-1.7042,-1.5921,-1.5226,-1.4471,-1.3282,-1.3052,-1.3041,-1.2929,-1.2905,-1.2905,-1.2905,-1.2905,-1.2905,-1.2905,-1.2905,-1.2905,-1.2905,-1.2905,-1.2905,-1.2905,-1.2905,-1.2905,-1.2905,-1.2905,-1.2584,-1.1839,-1.1166,-1.0491,-0.984,-0.9159,-0.8804,-0.8804,-0.8804,-0.8804,-0.8804,-0.8804,-0.8804,-0.8804,-0.8804,-0.8624,-1.9588,-1.9528,-1.9346,-1.8837,-1.9091,-1.9181,-1.8072,0.0,-1.8339,-1.7931,0.0,-1.6418,-1.6938,0.0,0.0,-1.4985,-1.5649,-1.5782,-1.4468,-1.5466,-1.6182,-1.5822,-1.6199,-1.65,-1.65,-1.6132,-1.6299,-1.73,-1.7003,-1.7405,-1.8826,-1.8968,-1.9207,-1.969,-1.9244,-1.8987,-1.8987,-1.8987,-1.8746,-1.8283,-1.8165,-1.7887,-1.7463,-1.6858,-1.6595,-1.6595,-1.6595,-1.6552,-1.65,-1.65,-1.65,-1.655,-1.7087,-1.731,-1.7413,-1.8431,-1.8506,-1.8179,-1.8644,-1.8204,-1.7398,-1.7322,-1.731,-1.731,-1.731,-1.7664,-1.8216,-1.8682,-1.8506,-1.8317,-1.8782,-1.802,-1.6952,-1.6287,-1.5657,-1.4903,-1.3696,-1.3573,-1.3552,-1.2992,-1.2905,-1.2905,-1.2905,-1.2905,-1.2905,-1.2905,-1.2905,-1.2905,-1.2905,-1.2905,-1.2905,-1.2905,-1.2905,-1.2905,-1.2905,-1.2905,-1.2584,-1.1839,-1.1166,-1.0491,-0.984,-0.9159,-0.8804,-0.8804,-0.8804,-0.8804,-0.8804,-0.8804,-0.8804,-0.8804,-0.8804,-0.8485,-1.9708,-1.9974,-2.0124,-1.945,-1.9779,-2.0034,-1.9076,-1.8777,-1.8732,-1.8837,0.0,0.0,0.0,0.0,0.0,0.0,-1.5101,-1.4901,-1.4503,-1.5254,-1.5795,-1.5716,-1.5827,-1.5951,-1.6028,-1.5831,-1.6022,-1.6778,-1.6624,-1.6929,-1.7906,-1.8283,-1.8535,-1.8746,-1.8554,-1.8438,-1.8438,-1.8438,-1.8322,-1.8106,-1.7787,-1.7524,-1.7271,-1.6731,-1.65,-1.65,-1.65,-1.65,-1.65,-1.65,-1.65,-1.6588,-1.7513,-1.7664,-1.7536,-1.8594,-1.8857,-1.8694,-1.892,-1.8494,-1.7802,-1.7511,-1.7624,-1.7852,-1.7852,-1.8242,-1.8707,-1.8945,-1.9058,-1.9183,-1.9422,-1.8834,-1.8043,-1.7457,-1.6872,-1.6098,-1.4783,-1.4551,-1.4416,-1.3732,-1.3408,-1.3242,-1.3242,-1.3037,-1.2905,-1.2905,-1.2905,-1.2905,-1.2905,-1.2905,-1.2905,-1.2905,-1.2905,-1.2905,-1.2905,-1.2905,-1.2412,-1.1291,-1.0244,-0.951,-0.9237,-0.8962,-0.8804,-0.8804,-0.8804,-0.8804,-0.8804,-0.8804,-0.8804,-0.8804,-0.8804,-0.8584,-1.9753,-2.0183,-2.0539,-1.9872,-2.0064,-2.0303,-1.9813,-1.9316,-1.9106,-1.9603,-1.8688,0.0,0.0,0.0,-1.568,0.0,0.0,-1.4441,-1.4297,-1.4954,-1.5515,-1.5677,-1.5867,-1.6036,-1.6135,-1.5744,-1.5756,-1.645,-1.6232,-1.6415,-1.7252,-1.7666,-1.7947,-1.8106,-1.7967,-1.7887,-1.7887,-1.7887,-1.7807,-1.7666,-1.7435,-1.7209,-1.7076,-1.668,-1.65,-1.65,-1.65,-1.65,-1.65,-1.65,-1.65,-1.66,-1.7741,-1.7953,-1.7762,-1.8807,-1.9221,-1.9221,-1.9221,-1.8857,-1.8342,-1.779,-1.7978,-1.843,-1.843,-1.8782,-1.9221,-1.9221,-1.951,-1.9798,-1.9798,-1.9357,-1.8818,-1.8374,-1.7688,-1.6848,-1.5661,-1.5279,-1.4971,-1.4228,-1.386,-1.3617,-1.3525,-1.3164,-1.2905,-1.2905,-1.2905,-1.2905,-1.2905,-1.2905,-1.2905,-1.2905,-1.2905,-1.2905,-1.2905,-1.2905,-1.2314,-1.0889,-0.9536,-0.8804,-0.8804,-0.8804,-0.8804,-0.8804,-0.8804,-0.8804,-0.8804,-0.8804,-0.8804,-0.8804,-0.8804,-0.8651,-1.9887,-2.0183,-2.0539,-1.9872,-1.9723,-1.9738,-1.9708,-1.9693,-1.9678,-1.9708,-1.8845,-1.8246,-1.8755,-1.7432,0.0,0.0,0.0,0.0,0.0,-1.4447,-1.5389,-1.5673,-1.6606,-1.7239,-1.7244,-1.5845,-1.5361,-1.6412,-1.5525,-1.5632,-1.7218,-1.7333,-1.7565,-1.8086,-1.7605,-1.7333,-1.7333,-1.7333,-1.7076,-1.6552,-1.7055,-1.7034,-1.6543,-1.6522,-1.65,-1.65,-1.65,-1.65,-1.65,-1.65,-1.65,-1.66,-1.7741,-1.8191,-1.8304,-1.9384,-1.9773,-1.9773,-1.9773,-1.9409,-1.8895,-1.8355,-1.8531,-1.897,-1.897,-1.9334,-1.9773,-1.9773,-1.9798,-1.9798,-1.9798,-1.9268,-1.8691,-1.8691,-1.7736,-1.6634,-1.602,-1.5479,-1.4898,-1.4237,-1.4094,-1.3958,-1.3574,-1.3164,-1.2905,-1.2905,-1.2905,-1.2905,-1.2905,-1.2905,-1.2905,-1.2905,-1.2905,-1.2905,-1.2905,-1.2905,-1.2314,-1.0889,-0.9536,-0.8804,-0.8804,-0.8804,-0.8804,-0.8804,-0.8804,-0.8804,-0.8804,-0.8804,-0.8804,-0.8804,-0.8804,-0.8651,-2.0304,-2.0559,-2.0613,-1.9986,-1.9843,-1.962,-1.8816,-1.9262,-1.971,-1.9257,-1.9238,-1.9103,-1.847,-1.7299,0.0,0.0,0.0,0.0,0.0,-1.4642,-1.5393,-1.6491,-1.694,-1.6758,-1.5676,-1.5806,-1.5963,-1.5965,-1.563,-1.5982,-1.7231,-1.7312,-1.7394,-1.7565,-1.7394,-1.7126,-1.6774,-1.6774,-1.668,-1.65,-1.668,-1.668,-1.65,-1.65,-1.65,-1.65,-1.65,-1.6735,-1.7087,-1.7087,-1.73,-1.7702,-1.8431,-1.8719,-1.8807,-1.9547,-1.9798,-1.9748,-1.9384,-1.9371,-1.9447,-1.8895,-1.9083,-1.9547,-1.9547,-1.966,-1.9798,-1.9798,-1.9798,-1.9798,-1.9798,-1.9605,-1.9307,-1.8821,-1.8372,-1.7725,-1.6548,-1.6154,-1.5811,-1.5094,-1.4756,-1.4424,-1.3968,-1.3549,-1.3203,-1.2944,-1.2905,-1.2905,-1.2905,-1.2905,-1.2905,-1.2905,-1.2905,-1.2905,-1.2905,-1.2049,-1.13,-1.0838,-0.9536,-0.8804,-0.8804,-0.8804,-0.8804,-0.8804,-0.8804,-0.8804,-0.8804,-0.8804,-0.8804,-0.8804,-0.8804,-0.8751,-2.0351,-2.0592,-2.065,-2.0027,-1.9866,-1.9588,-1.8604,-1.8985,-1.9409,-1.8984,-1.8936,-1.887,-1.8487,-1.7368,0.0,0.0,0.0,0.0,0.0,-1.4831,-1.523,-1.6492,-1.6624,-1.642,-1.594,-1.5565,-1.5505,-1.5952,-1.5462,-1.5665,-1.6941,-1.7013,-1.7013,-1.7013,-1.7013,-1.6858,-1.65,-1.65,-1.65,-1.65,-1.65,-1.65,-1.65,-1.65,-1.65,-1.65,-1.65,-1.6848,-1.741,-1.741,-1.7714,-1.8254,-1.8795,-1.9008,-1.9058,-1.961,-1.9798,-1.9748,-1.9384,-1.9522,-1.9748,-1.9384,-1.9522,-1.9798,-1.9798,-1.9798,-1.9798,-1.9798,-1.9798,-1.9798,-1.9798,-1.9798,-1.9618,-1.8874,-1.8501,-1.7988,-1.6765,-1.6293,-1.5979,-1.5497,-1.5195,-1.4873,-1.4443,-1.3987,-1.3535,-1.2993,-1.2905,-1.2905,-1.2905,-1.2905,-1.2905,-1.2905,-1.2905,-1.2798,-1.2525,-1.1459,-1.0686,-1.0466,-0.9413,-0.8804,-0.8804,-0.8804,-0.8804,-0.8804,-0.8804,-0.8804,-0.8804,-0.8804,-0.8804,-0.8804,-0.8804,-0.8804]},{"header":{"parameterUnit":"m.s-1","parameterCategory":1,"la1":30.6,"la2":29.2853,"lo1":-89.7004,"lo2":-87.6739,"dy":0.0162,"dx":0.0183,"nx":112,"ny":82,"refTime":"2026-04-17T12:00:00:Z","depth":0,"parameterNumber":3,"parameterNumberName":"V-component_of_WINDS"},"data":[0.0,0.0,0.0,0.0,0.0,0.0,0.0,0.0,0.0,0.0,0.0,0.0,0.0,0.0,0.0,0.0,0.0,0.0,0.0,0.0,0.0,0.0,0.0,0.0,0.0,0.0,0.0,0.0,0.0,0.0,0.0,0.0,0.0,0.0,0.0,0.0,0.0,0.0,0.0,0.0,0.0,0.0,0.0,0.0,0.0,0.0,0.0,0.0,0.0,0.0,0.0,0.0,0.0,0.0,0.0,0.0,0.0,0.0,0.0,0.0,0.0,0.0,0.0,0.0,0.0,0.0,0.0,0.0,0.0,0.0,0.0,0.0,0.0,0.0,0.0,0.0,0.0,0.0,0.0,0.0,0.0,0.0,0.0,0.0,0.0,0.0,0.0,0.0,0.0,0.0,0.5238,0.6603,0.6651,0.6416,0.597,0.5507,0.4886,0.4042,0.0,0.0,0.0,0.0,0.0,0.0,0.0,0.0,0.0,0.0,0.0,0.0,0.0,0.0,0.0,0.0,0.0,0.0,0.0,0.0,0.0,0.0,0.0,0.0,0.0,0.0,0.0,0.0,0.0,0.0,0.0,0.0,0.0,0.0,0.0,0.0,0.0,0.0,0.0,0.0,0.0,0.0,0.0,0.0,0.0,0.0,0.0,0.0,0.0,0.0,0.0,0.0,0.0,0.0,0.0,0.0,0.0,0.0,0.0,0.0,0.0,0.0,0.0,0.0,0.0,0.0,0.0,0.0,0.0,0.0,0.0,0.0,0.0,0.0,0.0,0.0,0.0,0.0,0.0,0.0,0.0,0.0,0.0,0.0,0.0,0.0,0.0,0.0,0.0,0.0,0.0,0.0,0.0,0.0,0.0,0.0,0.0,0.0,0.0,0.0,0.0,0.0,0.0,0.0,0.6484,0.728,0.6906,0.6561,0.6491,0.6411,0.5917,0.4886,0.0,0.0,0.0,0.0,0.0,0.0,0.0,0.0,0.0,0.0,0.0,0.0,0.0,0.0,0.0,0.0,0.0,0.0,0.0,0.0,0.0,0.0,0.0,0.0,0.0,0.0,0.0,0.0,0.0,0.0,0.0,0.0,0.0,0.0,0.0,0.0,0.0,0.0,0.0,0.0,0.0,0.0,0.0,0.0,0.0,0.0,0.0,0.0,0.0,0.0,0.0,0.0,0.0,0.0,0.0,0.0,0.0,0.0,0.0,0.0,0.0,0.0,0.0,0.0,0.0,0.0,0.0,0.0,0.0,0.0,0.0,0.0,0.0,0.0,0.0,0.0,0.0,0.0,0.0,0.0,0.0,0.0,0.0,0.0,0.0,0.0,0.0,0.0,0.0,0.0,0.0,0.0,0.0,0.0,0.0,0.0,0.0,0.0,0.0,0.0,0.0,0.0,0.0,0.6279,0.6952,0.7156,0.7023,0.6881,0.6774,0.686,0.6558,0.5701,0.5302,0.0,0.0,0.0,0.0,0.0,0.0,0.0,0.0,0.0,0.0,0.0,0.0,0.0,0.0,0.0,0.0,0.0,0.0,0.0,0.0,0.0,0.0,0.0,0.0,0.0,0.0,0.0,0.0,0.0,0.0,0.0,0.0,0.0,0.0,0.0,0.0,0.0,0.0,0.0,0.0,0.0,0.0,0.0,0.0,0.0,0.0,0.0,0.0,0.0,0.0,0.0,0.0,0.0,0.0,0.0,0.0,0.0,0.0,0.0,0.0,0.0,0.0,0.0,0.0,0.0,0.0,0.0,0.0,0.0,0.0,0.0,0.0,0.0,0.0,0.0,0.0,0.0,0.0,0.0,0.0,0.0,0.0,0.0,0.0,0.0,0.0,0.0,0.0,0.0,0.0,0.0,0.0,0.0,0.0,0.0,0.0,0.0,0.0,0.0,0.0,0.0,0.0,0.7077,0.7233,0.7125,0.7162,0.7138,0.698,0.7106,0.6915,0.6242,0.6198,0.0,0.0,0.0,0.0,0.0,0.0,0.0,0.0,0.0,0.0,0.0,0.0,0.0,0.0,0.0,0.0,0.0,0.0,0.0,0.0,0.0,0.0,0.0,0.0,0.0,0.0,0.0,0.0,0.0,0.0,0.0,0.0,0.0,0.0,0.0,0.0,0.0,0.0,0.0,0.0,0.0,0.0,0.0,0.0,0.0,0.0,0.0,0.0,0.0,0.0,0.0,0.0,0.0,0.0,0.0,0.0,0.0,0.0,0.0,0.0,0.0,0.0,0.0,0.0,0.0,0.0,0.0,0.0,0.0,0.0,0.0,0.0,0.0,0.0,0.0,0.0,0.0,0.0,0.0,0.0,0.0,0.0,0.0,0.0,0.0,0.0,0.0,0.0,0.0,0.0,0.0,0.0,0.0,0.0,0.0,0.0,0.0,0.0,0.0,0.0,0.0,0.0,0.7464,0.7547,0.7717,0.7418,0.7187,0.7186,0.7187,0.6915,0.6242,0.6198,0.0,0.0,0.0,0.0,0.0,0.0,0.0,0.0,0.0,0.0,0.0,0.0,0.0,0.0,0.0,0.0,0.0,0.0,0.0,0.0,0.0,0.0,0.0,0.0,0.0,0.0,0.0,0.0,0.0,0.0,0.0,0.0,0.0,0.0,0.0,0.0,0.0,0.0,0.0,0.0,0.0,0.0,0.0,0.0,0.0,0.0,0.0,0.0,0.0,0.0,0.0,0.0,0.0,0.0,0.0,0.0,0.0,0.0,0.0,0.0,0.0,0.0,0.0,0.0,0.0,0.0,0.0,0.0,0.0,0.0,0.0,0.0,0.0,0.0,0.0,0.0,0.0,0.0,0.0,0.0,0.0,0.0,0.0,0.0,0.0,0.0,0.0,0.0,0.0,0.0,0.0,0.0,0.0,0.0,0.0,0.0,0.0,0.0,0.0,0.0,0.0,0.0,0.7709,0.7853,0.7803,0.7702,0.7583,0.7462,0.7561,0.728,0.6447,0.0,0.0,0.0,0.0,0.0,0.0,0.0,0.0,0.0,0.0,0.0,0.0,0.0,0.0,0.0,0.0,0.0,0.0,0.0,0.0,0.0,0.0,0.0,0.0,0.0,0.0,0.0,0.0,0.0,0.0,0.0,0.0,0.0,0.0,0.0,0.0,0.0,0.0,0.0,0.0,0.0,0.0,0.0,0.0,0.0,0.0,0.0,0.0,0.0,0.0,0.0,0.0,0.0,0.0,0.0,0.0,0.0,0.0,0.0,0.0,0.0,0.0,0.0,0.0,0.0,0.0,0.0,0.0,0.0,0.0,0.0,0.0,0.0,0.0,0.0,0.0,0.0,0.0,0.0,0.0,0.0,0.0,0.0,0.0,0.0,0.0,0.0,0.0,0.0,0.0,0.0,0.0,0.0,0.0,0.0,0.0,0.0,0.0,0.0,0.0,0.0,0.0,0.7472,0.7909,0.8118,0.7917,0.7891,0.7849,0.7709,0.7562,0.7248,0.6659,0.0,0.0,0.0,0.0,0.0,0.0,0.0,0.0,0.0,0.0,0.0,0.0,0.0,0.0,0.0,0.0,0.0,0.0,0.0,0.0,0.0,0.0,0.0,0.0,0.0,0.0,0.0,0.0,0.0,0.0,0.0,0.0,0.0,0.0,0.0,0.0,0.0,0.0,0.0,0.0,0.0,0.0,0.0,0.0,0.0,0.0,0.0,0.0,0.0,0.0,0.0,0.0,0.0,0.0,0.0,0.0,0.0,0.0,0.0,0.0,0.0,0.0,0.0,0.0,0.0,0.0,0.0,0.0,0.0,0.0,0.0,0.0,0.0,0.0,0.0,0.0,0.0,0.0,0.0,0.0,0.0,0.0,0.0,0.0,0.0,0.0,0.0,0.0,0.0,0.0,0.0,0.0,0.0,0.0,0.0,0.0,0.0,0.0,0.0,0.0,0.0,0.0,0.7495,0.8029,0.8328,0.8131,0.7983,0.7899,0.7899,0.7109,0.668,0.0,0.0,0.0,0.0,0.0,0.0,0.0,0.0,0.0,0.0,0.0,0.0,0.0,0.0,0.0,0.0,0.0,0.0,0.0,0.0,0.0,0.0,0.0,0.0,0.0,0.0,0.0,0.0,0.0,0.0,0.0,0.0,0.0,0.0,0.0,0.0,0.0,0.0,0.0,0.0,0.0,0.0,0.0,0.0,0.0,0.0,0.0,0.0,0.0,0.0,0.0,0.0,0.0,0.0,0.0,0.0,0.0,0.0,0.0,0.0,0.0,0.0,0.0,0.0,0.0,0.0,0.0,0.0,0.0,0.0,0.0,0.0,0.0,0.0,0.0,0.0,0.0,0.0,0.0,0.0,0.0,0.0,0.0,0.0,0.0,0.0,0.0,0.0,0.0,0.0,0.0,0.0,0.0,0.0,0.0,0.0,0.0,0.0,0.0,0.0,0.0,0.0,0.0,0.7687,0.8118,0.8374,0.8322,0.8068,0.7899,0.7899,0.7225,0.6897,0.7105,0.0,0.0,0.0,0.0,0.0,0.0,0.0,0.0,0.0,0.0,0.0,0.0,0.0,0.0,0.0,0.0,0.0,0.0,0.0,0.0,0.0,0.0,0.0,0.0,0.0,0.0,0.0,0.0,0.0,0.0,0.0,0.0,0.0,0.0,0.0,0.0,0.0,0.0,0.0,0.0,0.0,0.0,0.0,0.0,0.0,0.0,0.0,0.0,0.0,0.0,0.0,0.0,0.0,0.0,0.0,0.0,0.0,0.0,0.0,0.0,0.0,0.0,0.0,0.0,0.0,0.0,0.0,0.0,0.0,0.0,0.0,0.0,0.0,0.0,0.0,0.0,0.0,0.0,0.0,0.0,0.0,0.0,0.0,0.0,0.0,0.0,0.0,0.0,0.0,0.0,0.0,0.0,0.0,0.0,0.0,0.0,0.0,0.0,0.0,0.0,0.0,0.0,0.7787,0.8224,0.8492,0.8415,0.8149,0.7963,0.7906,0.7047,0.6639,0.694,0.0,0.0,0.0,0.0,0.0,0.0,0.0,0.0,0.0,0.0,0.0,0.0,0.0,0.0,0.0,0.0,0.0,0.0,0.0,0.0,0.0,0.0,0.0,0.0,0.0,0.0,0.0,0.0,0.0,0.0,0.0,0.0,0.0,0.0,0.0,0.0,0.0,0.0,0.0,0.0,0.0,0.0,0.0,0.0,0.0,0.0,0.0,0.0,0.0,0.0,0.0,0.0,0.0,0.0,0.0,0.0,0.0,0.0,0.0,0.0,0.0,0.0,0.0,0.0,0.0,0.0,0.0,0.0,0.0,0.0,0.0,0.0,0.0,0.0,0.0,0.0,0.0,0.0,0.0,0.0,0.0,0.0,0.0,0.0,0.0,0.0,0.0,0.0,0.0,0.0,0.0,0.0,0.0,0.0,0.0,0.0,0.0,0.0,0.0,0.0,0.0,0.0,0.7766,0.829,0.8573,0.8387,0.8207,0.8037,0.7914,0.6727,0.6182,0.6602,0.0,0.0,0.0,0.0,0.0,0.0,0.0,0.0,0.0,0.0,0.0,0.0,0.0,0.0,0.0,0.0,0.0,0.0,0.0,0.0,0.0,0.0,0.0,0.0,0.0,0.0,0.0,0.0,0.0,0.0,0.0,0.0,0.0,0.0,0.0,0.0,0.0,0.0,0.0,0.0,0.0,0.0,0.0,0.0,0.0,0.0,0.0,0.0,0.0,0.0,0.0,0.0,0.0,0.0,0.0,0.0,0.0,0.0,0.0,0.0,0.3363,0.303,0.0,0.0,0.0,0.0,0.0,0.0,0.0,0.0,0.0,0.0,0.0,0.0,0.0,0.0,0.0,0.0,0.0,0.0,0.0,0.0,0.0,0.0,0.0,0.0,0.0,0.0,0.0,0.0,0.0,0.0,0.0,0.0,0.0,0.0,0.0,0.0,0.0,0.0,0.0,0.0,0.7525,0.7958,0.8211,0.8171,0.8039,0.7927,0.7899,0.7152,0.6723,0.6834,0.5393,0.0,0.0,0.0,0.0,0.0,0.0,0.0,0.0,0.0,0.0,0.0,0.0,0.0,0.0,0.0,0.0,0.0,0.0,0.0,0.0,0.0,0.0,0.0,0.0,0.0,0.0,0.0,0.0,0.0,0.0,0.0,0.0,0.0,0.0,0.0,0.0,0.0,0.0,0.0,0.0,0.0,0.0,0.0,0.0,0.0,0.0,0.0,0.0,0.0,0.0,0.0,0.0,0.0,0.0,0.0,0.0,0.0,0.0,0.0,0.4937,0.4208,0.0,0.0,0.0,0.0,0.0,0.0,0.0,0.0,0.0,0.0,0.0,0.0,0.0,0.0,0.0,0.0,0.0,0.0,0.0,0.0,0.0,0.0,0.0,0.0,0.0,0.0,0.0,0.0,0.0,0.0,0.0,0.0,0.0,0.0,0.0,0.0,0.0,0.0,0.0,0.0,0.7278,0.7851,0.8205,0.8102,0.8044,0.7969,0.7906,0.7286,0.6771,0.6437,0.5431,0.0,0.0,0.0,0.0,0.0,0.0,0.0,0.0,0.0,0.0,0.0,0.0,0.0,0.0,0.0,0.0,0.0,0.0,0.0,0.0,0.0,0.0,0.0,0.0,0.0,0.0,0.0,0.0,0.0,0.0,0.0,0.0,0.0,0.0,0.0,0.0,0.0,0.0,0.0,0.0,0.0,0.0,0.0,0.0,0.0,0.0,0.0,0.0,0.0,0.0,0.0,0.0,0.0,0.6693,0.705,0.7265,0.7491,0.781,0.8098,0.6538,0.5626,0.5204,0.4693,0.0,0.0,0.0,0.0,0.0,0.0,0.0,0.0,0.0,0.0,0.0,0.0,0.0,0.0,0.0,0.0,0.0,0.0,0.0,0.0,0.0,0.0,0.7394,0.7585,0.7436,0.6965,0.5993,0.0,0.0,0.0,0.0,0.0,0.0,0.0,0.0,0.0,0.0,0.0,0.705,0.7758,0.82,0.8077,0.8063,0.8016,0.7914,0.7398,0.6786,0.6112,0.5441,0.4828,0.0,0.0,0.0,0.0,0.0,0.0,0.0,0.0,0.0,0.0,0.0,0.0,0.0,0.0,0.0,0.0,0.0,0.0,0.0,0.0,0.0,0.0,0.0,0.0,0.0,0.0,0.0,0.0,0.0,0.0,0.0,0.0,0.4336,0.4391,0.0,0.0,0.0,0.0,0.0,0.0,0.0,0.0,0.0,0.0,0.0,0.0,0.0,0.5873,0.6626,0.731,0.7684,0.7715,0.8352,0.8694,0.8728,0.8761,0.8817,0.8865,0.8615,0.0,0.6922,0.627,0.0,0.0,0.0,0.0,0.0,0.0,0.0,0.0,0.0,0.0,0.0,0.0,0.0,0.0,0.0,0.0,0.0,0.0,0.0,0.0,0.0,0.0,0.8299,0.8209,0.7984,0.7626,0.7019,0.6289,0.5687,0.553,0.5445,0.533,0.0,0.0,0.0,0.0,0.0,0.0,0.6883,0.7387,0.7753,0.7906,0.792,0.7928,0.7899,0.7824,0.7488,0.6816,0.6132,0.5724,0.5635,0.4744,0.0,0.0,0.0,0.0,0.0,0.0,0.0,0.0,0.0,0.0,0.0,0.0,0.0,0.0,0.0,0.0,0.0,0.0,0.0,0.0,0.0,0.0,0.0,0.0,0.0,0.0,0.0,0.0,0.0,0.4394,0.4681,0.4713,0.4475,0.4238,0.0,0.0,0.0,0.0,0.0,0.0,0.0,0.0,0.0,0.7001,0.704,0.731,0.7843,0.8433,0.8653,0.8502,0.9027,0.929,0.929,0.9703,0.9763,0.9531,0.9897,0.9517,0.8518,0.763,0.6738,0.5936,0.0,0.0,0.0,0.0,0.6,0.6349,0.6952,0.7035,0.6878,0.6878,0.0,0.0,0.0,0.0,0.0,0.0,0.0,0.7302,0.8133,0.8584,0.8899,0.9141,0.8881,0.8502,0.8267,0.7704,0.6977,0.6075,0.5799,0.5678,0.5514,0.5526,0.0,0.0,0.0,0.6536,0.6863,0.7315,0.7679,0.7878,0.7899,0.7899,0.7899,0.7899,0.7608,0.6936,0.6616,0.6161,0.548,0.5337,0.5123,0.0,0.0,0.0,0.0,0.0,0.0,0.0,0.0,0.0,0.0,0.0,0.0,0.0,0.0,0.0,0.0,0.0,0.0,0.0,0.0,0.0,0.0,0.0,0.0,0.0,0.0,0.0,0.0,0.5032,0.5306,0.5103,0.5262,0.5187,0.0,0.0,0.0,0.0,0.0,0.0,0.694,0.6698,0.7057,0.8201,0.8237,0.8431,0.8833,0.9176,0.9249,0.9067,0.9368,0.9489,0.9512,1.0058,1.0135,0.9835,1.0528,1.0382,0.9601,0.8759,0.7904,0.7136,0.7035,0.6711,0.6391,0.6998,0.7457,0.7936,0.8872,0.901,0.8839,0.897,0.8372,0.7474,0.6929,0.0,0.0,0.0,0.0,0.7993,0.8803,0.9144,0.9403,0.9805,0.9604,0.9265,0.9138,0.8787,0.8097,0.67,0.6313,0.6118,0.5868,0.5868,0.0,0.5639,0.6171,0.6676,0.688,0.7315,0.7679,0.7878,0.7899,0.7899,0.7899,0.7899,0.7682,0.7182,0.7053,0.6546,0.5605,0.5815,0.5454,0.4431,0.0,0.0,0.0,0.0,0.0,0.0,0.0,0.0,0.0,0.0,0.0,0.0,0.0,0.0,0.0,0.0,0.0,0.0,0.0,0.0,0.0,0.0,0.0,0.0,0.0,0.0,0.0,0.0,0.0,0.593,0.6514,0.0,0.0,0.0,0.0,0.5678,0.6046,0.653,0.714,0.7517,0.8063,0.8824,0.8848,0.9046,0.9454,0.9478,0.9494,0.9465,0.9481,0.9489,0.9489,0.9534,0.9549,0.9556,1.0311,1.0346,0.9876,0.9611,0.9042,0.8346,0.872,0.8617,0.8309,0.8718,0.8889,0.899,0.9493,0.9657,0.9728,1.0239,0.9723,0.8903,0.8856,0.8188,0.0,0.0,0.8622,0.8827,0.9641,0.9842,0.9868,0.9893,0.988,0.9717,0.9202,0.9088,0.8667,0.7315,0.7051,0.6796,0.6025,0.0,0.5902,0.5881,0.6292,0.6676,0.688,0.7315,0.7679,0.7878,0.7899,0.7899,0.7899,0.7899,0.7884,0.7854,0.743,0.707,0.682,0.5802,0.543,0.5784,0.4585,0.0,0.0,0.0,0.0,0.0,0.0,0.0,0.0,0.0,0.0,0.0,0.0,0.0,0.0,0.0,0.0,0.0,0.0,0.0,0.0,0.0,0.0,0.0,0.0,0.0,0.0,0.0,0.0,0.7487,0.7374,0.0,0.6818,0.6622,0.6679,0.7085,0.7335,0.782,0.8635,0.8479,0.8659,0.9281,0.9281,0.9297,0.9317,0.9293,0.9212,0.9051,0.9051,0.9051,0.9051,0.9487,0.9784,1.0,1.0673,1.0994,1.0999,1.0913,1.0215,0.919,0.9333,0.9133,0.8824,0.9248,0.96,0.9957,1.0332,1.0342,1.0129,1.002,0.9744,0.9508,0.9856,0.9857,0.9815,1.0104,1.0363,1.0535,1.0443,1.0419,1.0331,0.9981,0.9905,0.9843,0.9654,0.9617,0.9378,0.8547,0.8103,0.7777,0.7488,0.7453,0.7453,0.7453,0.7738,0.7881,0.7694,0.796,0.8108,0.7922,0.7899,0.7899,0.7899,0.7899,0.7899,0.7899,0.7344,0.6776,0.6272,0.5445,0.4868,0.4564,0.4084,0.3946,0.0,0.0,0.0,0.0,0.0,0.0,0.0,0.0,0.0,0.0,0.0,0.0,0.0,0.0,0.0,0.0,0.0,0.0,0.0,0.0,0.0,0.0,0.0,0.0,0.0,0.7374,0.8173,0.7956,0.807,0.8008,0.7604,0.7487,0.756,0.7889,0.7986,0.8349,0.9102,0.8793,0.8796,0.926,0.926,0.9202,0.9055,0.9055,0.8964,0.8804,0.8804,0.8804,0.8831,0.9484,0.9898,1.0122,1.1017,1.143,1.1468,1.171,1.1191,1.0264,1.002,0.9706,0.9383,0.9419,0.9587,0.9917,1.0482,1.0762,1.083,1.0506,1.0273,1.0167,1.0525,1.0672,1.0739,1.0896,1.1124,1.128,1.1067,1.0858,1.0606,1.0244,1.0031,0.9867,0.9763,0.9816,0.9754,0.9293,0.8856,0.8512,0.8336,0.8298,0.8298,0.8298,0.8505,0.8561,0.8301,0.838,0.8369,0.8091,0.796,0.7878,0.7797,0.779,0.7761,0.7672,0.7375,0.6946,0.6359,0.5824,0.5252,0.4655,0.4491,0.4281,0.4036,0.0,0.0,0.0,0.0,0.0,0.0,0.0,0.0,0.0,0.0,0.0,0.0,0.0,0.0,0.0,0.0,0.0,0.0,0.0,0.0,0.0,0.0,0.0,0.6509,0.8296,0.9047,0.7307,0.8616,0.9111,0.7695,0.7769,0.7919,0.7919,0.7925,0.8059,0.8402,0.8415,0.8543,0.8798,0.8804,0.8804,0.8804,0.8804,0.8804,0.8804,0.8804,0.8804,0.8831,0.9458,0.9788,0.9917,1.1191,1.1573,1.1302,1.1948,1.1992,1.157,1.0892,1.0416,1.0074,0.9405,0.8989,0.8906,0.9875,1.0885,1.1778,1.1767,1.1384,1.0914,1.0931,1.0565,1.0253,1.07,1.0837,1.0947,1.1449,1.1169,1.0716,1.0691,1.0304,0.9826,0.9485,0.967,0.9801,0.9474,0.9255,0.8963,0.8437,0.8349,0.8349,0.8349,0.8525,0.0,0.862,0.8502,0.8413,0.8399,0.8082,0.779,0.7598,0.7583,0.7477,0.7211,0.7555,0.7585,0.7191,0.6922,0.6607,0.6263,0.5798,0.5207,0.4467,0.0,0.0,0.0,0.0,0.0,0.0,0.0,0.0,0.0,0.0,0.0,0.0,0.0,0.0,0.0,0.0,0.0,0.0,0.0,0.0,0.0,0.8211,0.8898,0.8141,0.9085,0.9718,0.936,0.9121,0.8941,0.8884,0.8508,0.825,0.825,0.845,0.8604,0.8684,0.8691,0.8724,0.8804,0.8804,0.8804,0.8804,0.8804,0.8804,0.8804,0.8804,0.8804,0.8811,0.8982,0.9614,1.0542,1.0914,1.1596,1.2445,1.2623,1.2627,1.2451,1.165,1.1257,1.1113,1.0597,1.0347,1.0298,1.0273,1.0666,1.1154,1.12,1.1121,1.1041,1.1435,1.1454,1.1359,1.1483,1.1518,1.1456,1.1165,1.1249,1.1236,1.0444,1.0416,1.035,0.9623,0.9744,0.9851,0.9479,0.955,0.9629,0.9491,0.9466,0.9466,0.9466,0.972,0.9728,0.9242,0.9016,0.8716,0.8239,0.7719,0.7365,0.7311,0.7303,0.728,0.7203,0.7021,0.6876,0.6772,0.6369,0.5852,0.5223,0.4994,0.4537,0.0,0.0,0.0,0.0,0.0,0.0,0.0,0.0,0.0,0.0,0.0,0.0,0.0,0.0,0.0,0.0,0.0,0.0,0.0,0.0,0.0,0.0,0.9611,1.0261,0.9809,1.0145,1.0346,1.0082,0.9505,0.9156,0.9152,0.8799,0.8583,0.8583,0.8711,0.8804,0.8804,0.8804,0.8804,0.8804,0.8804,0.8804,0.8804,0.8804,0.8804,0.8804,0.8804,0.8962,0.9237,0.9517,1.0218,1.1233,1.1333,1.1849,1.2588,1.2426,1.2357,1.2305,0.0,0.0,0.0,0.0,1.0512,1.0816,1.0579,1.081,1.1206,1.1247,1.1247,1.1266,1.1385,1.1429,1.1425,1.1459,1.1468,1.1439,1.1315,1.1319,1.1211,1.0571,1.0478,1.0332,0.9677,0.9671,0.9672,0.9272,0.9458,0.0,0.9698,0.9803,0.9905,0.9905,1.0072,1.0044,0.9661,0.9181,0.8738,0.8345,0.7649,0.717,0.708,0.7072,0.0,0.0,0.0,0.69,0.7006,0.6646,0.0,0.0,0.0,0.0,0.0,0.0,0.0,0.0,0.4617,0.4811,0.0,0.0,0.0,0.0,0.0,0.0,0.0,0.0,0.0,0.0,0.0,0.0,0.0,0.0,0.0,0.0,1.1006,1.1476,1.1395,1.1324,1.0896,0.9931,0.9788,0.9536,0.8857,0.8804,0.8804,0.8804,0.8804,0.8804,0.8804,0.8804,0.0,0.0,0.0,0.8804,0.8804,0.8883,0.891,0.891,0.8982,0.9335,0.9935,1.0542,1.1166,1.1821,1.2063,1.2202,1.2242,1.1839,1.1645,1.1609,1.1727,1.1405,1.0792,0.9887,1.0162,1.0947,1.0901,0.0,0.0,1.1616,1.1606,1.1506,1.1103,1.0947,1.0902,1.0957,1.0966,1.1038,1.1516,1.1277,1.09,1.09,1.0553,1.0102,0.9755,0.9627,0.9447,0.8998,0.9169,0.9414,0.9394,0.9685,0.9905,0.9905,0.9905,0.9905,0.9905,0.9162,0.8657,0.8657,0.7802,0.0,0.6974,0.6905,0.6866,0.6866,0.708,0.7311,0.7583,0.7394,0.7336,0.7431,0.7613,0.7452,0.6967,0.7033,0.6922,0.6642,0.5802,0.5848,0.0,0.0,0.0,0.0,0.0,0.0,0.0,0.0,0.0,0.0,0.0,0.0,0.0,0.0,0.0,1.0755,1.1527,1.218,1.2527,1.2067,1.1214,0.9953,0.9788,0.9536,0.8857,0.8804,0.8804,0.8804,0.8804,0.8804,0.8804,0.8804,0.8804,0.8804,0.8804,0.8804,0.8804,0.9335,0.9614,0.9614,1.0141,0.0,1.061,1.0737,1.1166,1.1805,1.1865,1.2198,1.2725,1.2262,1.1885,1.1594,1.1627,1.1566,1.1412,1.1216,1.1487,1.1881,1.1569,1.173,1.2041,1.1702,1.1606,1.1587,1.1477,1.1213,0.0,1.0933,1.0696,1.0467,1.0563,1.0786,1.0975,1.0975,1.0901,1.0724,1.0319,1.0155,0.9827,0.9052,0.9221,0.946,0.9412,0.9685,0.9905,0.9905,0.9905,0.9905,0.9905,0.9376,0.9006,0.9006,0.8014,0.7344,0.731,0.6903,0.6659,0.6659,0.6999,0.7311,0.7583,0.7709,0.7531,0.7027,0.7051,0.6769,0.6138,0.6205,0.6534,0.7074,0.6417,0.6309,0.0,0.0,0.0,0.0,0.0,0.0,0.0,0.0,0.0,0.0,0.0,0.9225,0.9462,0.0,1.1012,1.1816,1.1983,1.2215,1.2827,1.2584,1.1965,1.0914,1.0491,1.0167,0.984,0.9788,0.9666,0.9335,0.9309,0.9309,0.9309,0.9309,0.9465,0.9788,0.9788,0.9788,0.9788,1.0141,1.0287,1.0287,1.0644,1.099,1.1291,1.1291,1.1674,1.2335,1.2095,1.2211,1.252,1.208,1.178,1.1577,1.134,1.1526,1.1895,1.1895,1.2178,1.252,1.2318,1.2387,1.252,1.2318,1.224,1.2201,1.1963,1.1604,1.1213,1.0967,1.0605,1.0303,1.0303,1.0467,1.0649,1.0649,1.0649,1.0664,1.0699,1.0487,1.0235,1.0037,1.0141,1.0145,0.9857,1.0078,1.0206,0.9943,0.9905,0.9905,0.9905,0.9428,0.91,0.91,0.8349,0.7728,0.7431,0.7002,0.6748,0.6748,0.7031,0.7311,0.7583,0.7694,0.767,0.7501,0.7507,0.7378,0.7146,0.7088,0.7307,0.7796,0.7393,0.7332,0.0,0.0,0.0,0.0,0.0,0.0,0.0,0.6785,0.7815,0.788,0.9379,1.0789,1.1148,1.1403,1.184,1.2749,1.2393,1.2212,1.2822,1.2905,1.2691,1.208,1.1416,1.0939,1.0813,1.0788,1.0517,0.9865,0.9788,0.9736,0.9614,0.9614,0.9865,1.0389,1.0415,1.0466,1.0593,1.0737,1.0864,1.099,1.1149,1.15,1.1996,1.1996,1.2344,1.2886,1.251,1.2281,1.2174,1.1836,1.1663,1.1577,1.127,1.158,1.2194,1.2106,1.2432,1.2905,1.2905,1.2905,1.2905,1.2905,1.2905,1.2837,1.2461,1.2041,1.1623,1.1152,1.0732,1.04,1.0322,1.0303,1.0322,1.0409,1.038,1.0428,1.0905,1.067,1.047,1.0751,1.0859,1.0708,1.0159,1.0369,1.0437,0.9968,0.9905,0.9905,0.9905,0.9529,0.9264,0.9264,0.8774,0.8212,0.7628,0.7333,0.7118,0.7001,0.7198,0.7363,0.7453,0.7507,0.7643,0.7915,0.7922,0.8027,0.8243,0.8077,0.8113,0.8305,0.814,0.8187,0.749,0.7158,0.6941,0.6868,0.7464,0.8181,0.0,0.9388,1.004,1.0339,1.1245,1.1998,1.2047,1.2415,1.2749,1.2871,1.2832,1.2798,1.2881,1.2905,1.2881,1.2798,1.2138,1.1458,1.0864,1.0788,1.0517,0.9865,0.9788,0.9536,0.8936,0.891,0.8936,0.9008,0.9035,0.9316,0.9917,1.0491,1.1091,1.169,1.2353,1.2691,1.2774,1.2774,1.2822,1.2905,1.2856,1.2588,1.2203,1.2155,1.1914,1.1636,1.1953,1.2116,1.2155,1.1809,1.2181,1.2905,1.2905,1.2905,1.2905,1.2905,1.2905,1.2895,1.2846,1.25,1.2038,1.1633,1.1193,1.0752,1.04,1.0303,1.0409,1.081,1.0592,1.0428,1.0905,1.0628,1.0212,0.9843,1.0153,1.0269,0.9678,0.9954,1.0173,0.9929,0.9905,0.9905,0.9905,0.9843,0.9805,0.9805,0.9327,0.8787,0.8238,0.8158,0.7917,0.7382,0.7595,0.7513,0.7003,0.7152,0.7258,0.7297,0.7304,0.7426,0.7687,0.7665,0.7753,0.7957,0.7942,0.8096,0.9648,0.891,0.8317,0.8186,0.8706,0.93,0.9401,1.0219,1.0976,1.1118,1.1935,1.2607,1.2607,1.2411,1.2393,1.2832,1.2535,1.2261,1.2261,1.2261,1.2261,1.2261,1.1649,1.1425,1.1974,1.1625,1.1266,1.099,1.0965,1.0838,1.0568,1.0542,1.0754,1.1175,1.12,1.1326,1.1601,1.1875,1.2147,1.2452,1.274,1.2905,1.2905,1.2905,1.2905,1.2905,1.2905,1.2783,1.2607,1.2607,1.2524,1.2347,1.2233,1.2359,1.2588,1.2416,1.2592,1.2905,1.2905,1.2905,1.2905,1.2905,1.2905,1.2905,1.2905,1.2578,1.2164,1.2002,1.1445,1.0869,1.0693,1.0676,1.0764,1.0962,1.1094,1.1311,1.1763,1.1726,1.1586,1.1679,1.1885,1.1852,1.128,1.1079,1.0877,1.0429,1.0106,0.9905,0.9905,0.9905,0.9905,0.9905,0.9415,0.9012,0.8787,0.8162,0.7666,0.7418,0.7214,0.7036,0.6899,0.698,0.7256,0.7714,0.7523,0.7592,0.7893,0.7809,0.7753,0.7724,0.7849,0.7978,1.0698,0.9977,0.9508,0.9459,0.9991,1.0493,1.0277,1.1058,1.1822,1.1822,1.2397,1.2905,1.2905,1.2452,1.227,1.2798,1.2452,1.2104,1.2104,1.2104,1.203,1.1814,1.1216,1.1275,1.2486,1.2104,1.1789,1.1789,1.1789,1.1715,1.1541,1.1516,1.1774,1.2304,1.2314,1.2412,1.2584,1.2608,1.2691,1.2905,1.2905,1.2905,1.2905,1.2905,1.2905,1.2905,1.2905,1.2905,1.2905,1.2905,1.2905,1.2876,1.2529,1.2607,1.2905,1.2905,1.2905,1.2905,1.2905,1.2905,1.2905,1.2905,1.2905,1.2905,1.2905,1.2656,1.2406,1.2431,1.188,1.1294,1.1358,1.1307,1.1226,1.1226,1.1516,1.1884,1.2228,1.2312,1.2419,1.2738,1.2925,1.2839,1.2296,1.1999,1.1575,1.0806,1.0369,1.0069,0.9918,0.9905,0.9905,0.9905,0.9554,0.9315,0.9315,0.8426,0.7876,0.7876,0.7213,0.6887,0.7032,0.704,0.7245,0.7681,0.7676,0.772,0.7851,0.7829,0.7768,0.7687,0.802,0.8177,0.9772,0.9806,1.0203,1.0703,1.1487,1.2138,1.2128,1.2515,1.2861,1.2861,1.2871,1.2905,1.2905,1.2881,1.2881,1.2905,1.2881,1.2881,1.2881,1.2881,1.2608,1.1898,1.1216,1.1065,1.1765,1.1814,1.1789,1.1789,1.1789,1.1516,1.0864,1.0838,1.0838,1.0864,1.0864,1.1166,1.1839,1.1839,1.2187,1.2905,1.2905,1.2905,1.2905,1.2905,1.2905,1.2905,1.2905,1.2905,1.2905,1.2905,1.2905,1.2905,1.2895,1.2895,1.2905,1.2905,1.2905,1.2905,1.2905,1.2905,1.2905,1.2905,1.2905,1.2905,1.2905,1.2895,1.2908,1.3031,1.2686,1.231,1.2507,1.2163,1.1774,1.1774,1.1792,1.1792,1.1811,1.1829,1.1829,1.1847,1.221,1.2359,1.1819,1.2087,1.1986,1.0869,1.0695,1.0494,0.9968,0.9905,0.9905,0.9905,0.988,0.988,0.988,0.9365,0.905,0.905,0.7989,0.7381,0.7391,0.7391,0.715,0.6662,0.7408,0.7606,0.7223,0.7484,0.7709,0.7907,0.8567,0.8875,1.1299,1.1382,1.1532,1.172,1.2227,1.2656,1.2656,1.2798,1.2905,1.2905,1.2905,1.2905,1.2905,1.2905,1.2905,1.2905,1.2905,1.2715,1.2236,1.2163,1.208,1.1839,1.1216,1.125,1.2427,1.1683,1.1316,1.1765,1.2236,1.2221,1.1491,1.1466,1.1674,1.2181,1.1733,1.1798,1.2535,1.2525,1.2642,1.2905,1.2905,1.2905,1.2905,1.2905,1.2905,1.2905,1.2905,1.2905,1.2905,1.2905,1.2905,1.2905,1.2905,1.2905,1.2905,1.2905,1.2905,1.2905,1.2905,1.2905,1.2905,1.2905,1.2905,1.2968,1.3372,1.3515,1.3592,1.4041,1.3554,1.2917,1.2988,1.2628,1.2264,1.2264,1.2508,1.272,1.272,1.272,1.272,1.272,1.2855,1.2911,1.2726,1.2527,1.2011,1.0869,1.0394,1.0106,0.9931,0.9905,0.9905,0.9905,0.9905,0.9905,0.9905,0.9415,0.91,0.91,0.8411,0.7989,0.7989,0.7989,0.8075,0.8259,0.7962,0.7908,0.8139,0.8222,0.8296,0.8375,0.8735,0.9137,1.2125,1.2203,1.2242,1.2398,1.2676,1.2905,1.2905,1.2905,1.2905,1.2905,1.2905,1.2905,1.2905,1.2754,1.2695,1.2876,1.2754,1.2541,1.2242,1.2187,1.2104,1.1839,1.1416,1.15,1.2427,1.1674,1.1441,1.2138,1.2403,1.2427,1.2212,1.2187,1.2403,1.2881,1.2452,1.2427,1.2905,1.2905,1.2905,1.2905,1.2905,1.2905,1.2905,1.2905,1.2905,1.2905,1.2905,1.2905,1.2905,1.2905,1.2905,1.2905,1.2905,1.2905,1.2905,1.2905,1.2905,1.2905,1.2905,1.2905,1.2905,1.2905,1.2905,1.2968,1.3348,1.3481,1.3616,1.4247,1.3782,1.3195,1.3448,1.3288,1.3016,1.2804,1.3143,1.3453,1.3248,1.3198,1.3198,1.3198,1.3198,1.3198,1.3198,1.2764,1.2087,1.1159,1.0545,1.0119,0.9931,0.9905,0.9905,0.9905,0.9905,0.9905,0.9905,0.9415,0.9189,0.9365,0.87,0.8386,0.8586,0.8709,0.8829,0.8957,0.8802,0.8791,0.8917,0.9017,0.9058,0.9066,0.9189,0.9488,1.2233,1.2242,1.234,1.2783,1.2905,1.2905,1.2905,1.2905,1.2895,1.2876,1.2866,1.2866,1.2846,1.249,1.234,1.2783,1.252,1.2389,1.2846,1.2905,1.2632,1.1947,1.1864,1.1864,1.1864,1.1814,1.2104,1.2847,1.2236,1.2153,1.2798,1.2847,1.2847,1.2905,1.29,1.2876,1.2905,1.2905,1.2905,1.2905,1.2905,1.2905,1.2905,1.2905,1.2905,1.2905,1.2905,1.2905,1.2905,1.2905,1.2905,1.2905,1.2905,1.2905,1.2905,1.2905,1.2905,1.2905,1.2905,1.2905,1.2905,1.2905,1.2905,1.2905,1.2954,1.2978,1.3134,1.3761,1.3536,1.3259,1.3933,1.4103,1.3959,1.3378,1.369,1.3946,1.3366,1.3223,1.3198,1.3198,1.3198,1.3198,1.3198,1.2789,1.2253,1.1676,1.1109,1.0545,0.9981,0.9905,0.9905,0.9905,0.9905,0.9905,0.9905,0.9441,0.9353,0.9868,0.8963,0.8633,0.9149,0.949,0.9395,0.8821,0.9846,1.0103,0.9551,0.981,0.994,0.995,0.995,0.995,1.2627,1.2715,1.2744,1.2876,1.2905,1.2905,1.2905,1.2905,1.2807,1.2461,1.2369,1.2295,1.1985,1.208,1.2242,1.2359,1.2578,1.2754,1.2886,1.2905,1.2832,1.2632,1.2608,1.2608,1.2608,1.2129,1.2104,1.2847,1.2715,1.2452,1.2104,1.208,1.232,1.2881,1.2698,1.2708,1.2905,1.2905,1.2905,1.2905,1.2905,1.2905,1.2905,1.2905,1.2905,1.2905,1.2905,1.2905,1.2905,1.2905,1.2905,1.2905,1.2905,1.2905,1.2905,1.2905,1.2905,1.2905,1.2905,1.2905,1.2905,1.2905,1.2905,1.2968,1.3433,1.3873,1.4288,1.452,1.4499,1.4367,1.415,1.4103,1.4065,1.3909,1.3984,1.4065,1.3909,1.3521,1.3198,1.3198,1.3198,1.3198,1.3198,1.3085,1.2689,1.1738,1.1477,1.101,1.0031,0.9905,0.9905,0.9905,0.9905,0.9905,0.9905,0.9767,0.9755,0.9893,0.9877,0.9931,1.0063,1.0389,1.05,1.0336,1.0178,1.0126,1.0171,1.0287,1.0417,1.0568,1.0568,1.0568,1.2837,1.2905,1.2905,1.2905,1.2905,1.2856,1.2637,1.2598,1.2471,1.2031,1.1934,1.1865,1.1645,1.179,1.2002,1.2174,1.2408,1.2656,1.2876,1.2905,1.2905,1.2905,1.2905,1.2905,1.2905,1.2535,1.2527,1.312,1.2713,1.2369,1.2295,1.2286,1.2476,1.2881,1.2748,1.2757,1.2905,1.3242,1.3242,1.2905,1.3066,1.3057,1.2905,1.2905,1.2905,1.2905,1.2905,1.2905,1.2905,1.2905,1.2905,1.2905,1.2905,1.2905,1.2905,1.2905,1.2905,1.2905,1.2905,1.2905,1.2905,1.2905,1.2905,1.3017,1.3613,1.405,1.4369,1.4715,1.4835,1.4794,1.4513,1.4626,1.4739,1.4513,1.4626,1.4676,1.4186,1.3828,1.3521,1.3248,1.3198,1.3198,1.3198,1.3198,1.2927,1.2077,1.1738,1.1261,1.037,1.0056,0.9905,0.9905,0.9905,0.9905,0.9905,0.9905,0.9957,1.011,1.031,1.0471,1.0605,1.0904,1.1083,1.1083,1.0888,1.0854,1.1,1.1049,1.1122,1.1226,1.0942,1.0798,1.2929,1.2905,1.2905,1.2905,1.2905,1.2773,1.2311,1.2164,1.1989,1.1584,1.1447,1.1439,1.1439,1.1479,1.1643,1.2047,1.2164,1.2359,1.2822,1.2905,1.2905,1.2905,1.2905,1.2905,1.2905,1.2905,1.3037,1.3398,1.2491,1.2258,1.3012,1.3071,1.3071,1.3071,1.2964,1.2954,1.3071,1.3685,1.3656,1.2993,1.333,1.3281,1.2905,1.2905,1.2905,1.2905,1.2905,1.2905,1.2905,1.2905,1.2905,1.2905,1.2905,1.2954,1.3017,1.3017,1.3065,1.3138,1.3138,1.3138,1.3113,1.2954,1.2905,1.3017,1.3613,1.3862,1.4046,1.4617,1.4803,1.4835,1.4873,1.5248,1.5487,1.5009,1.5261,1.5349,1.44,1.4154,1.3921,1.3328,1.3198,1.3198,1.3198,1.3198,1.301,1.2475,1.2002,1.1487,1.0896,1.0281,0.9906,0.9957,0.997,0.9983,1.0021,1.0021,1.016,1.0446,1.0494,1.0653,1.0944,1.1219,1.1378,1.1378,1.1648,1.1805,1.1805,1.1805,1.1805,1.179,1.1196,1.0897,1.3041,1.2905,1.2905,1.2905,1.2905,1.2773,1.2311,1.1943,0.0,1.1113,1.0772,1.0528,1.0528,1.0811,1.1162,1.1633,1.1992,1.2359,1.2822,1.2905,1.2905,1.2905,1.2905,1.2905,1.2905,1.2905,1.2935,1.3013,1.2812,1.3049,1.3851,1.389,1.389,1.389,1.3242,1.3213,1.389,1.3695,1.3545,1.3398,1.3477,1.3281,1.2905,1.2905,1.2905,1.2905,1.2905,1.2905,1.2905,1.2905,1.2905,1.2905,1.2905,1.319,1.3637,1.3637,1.3967,1.4387,1.4387,1.4387,1.4224,1.3224,1.2905,1.3017,1.3613,1.4143,1.4574,1.4758,1.4829,1.4892,1.4902,1.4959,1.5029,1.4909,1.4959,1.4984,1.4796,1.4412,1.3921,1.3328,1.3198,1.3198,1.3198,1.3198,1.301,1.2475,1.2312,1.2065,1.1512,1.0546,1.0008,1.0285,1.031,1.0422,1.0691,1.0729,1.0753,1.0813,1.1022,1.117,1.123,1.1534,1.1714,1.1714,1.1768,1.1805,1.1805,1.1805,1.1805,1.1805,1.1685,1.1331,1.3443,1.3152,1.2905,1.2905,1.2905,1.2729,1.2031,0.0,0.0,1.0361,1.0059,0.9941,0.9941,1.0469,1.1055,1.1506,1.176,1.2119,1.2807,1.2686,1.2627,1.2876,1.2905,1.2993,1.3184,1.3203,1.3389,1.3838,1.3903,1.3786,1.3496,1.3486,1.3584,1.3773,1.3418,1.3398,1.3773,1.4053,1.3945,1.3506,1.3704,1.3496,1.2905,1.2905,1.2905,1.2905,1.2905,1.2905,1.2905,1.2905,1.2905,1.2905,1.2905,1.3262,1.3792,1.3792,1.4167,1.4698,1.4698,1.4698,1.4606,1.4025,1.3836,1.3954,1.4549,1.4937,1.5229,1.5586,1.5723,1.5731,1.5731,1.5731,1.5731,1.5731,1.5525,1.5236,1.4959,1.4475,1.3921,1.3328,1.3198,1.3198,1.3198,1.3408,1.3474,1.322,1.3116,1.2981,1.2733,1.1936,1.1269,1.086,1.0718,1.0727,1.0885,1.0897,1.0956,1.1106,1.123,1.1389,1.1546,1.1714,1.1805,1.1805,1.1805,1.1805,1.1805,1.1805,1.1805,1.1805,1.1805,1.1625,1.3862,1.3443,1.3055,1.292,1.2905,1.267,1.1802,1.1173,1.0557,0.9767,0.9518,0.9485,0.9581,1.0233,1.0942,1.1498,1.1606,1.1888,1.2778,1.2588,1.25,1.2866,1.2905,1.3071,1.3467,1.3506,1.3828,1.459,1.4648,1.4287,1.3467,1.3252,1.334,1.3769,1.3691,1.3691,1.3779,1.4453,1.4453,1.3789,1.3997,1.3714,1.3042,1.2944,1.2905,1.2905,1.2905,1.2905,1.2905,1.2905,1.2905,1.2905,1.2905,1.3358,1.398,1.398,1.4468,1.5085,1.5085,1.5085,1.5085,1.5085,1.4903,1.4812,1.541,1.561,1.5732,1.6324,1.6412,1.635,1.6463,1.64,1.6325,1.6325,1.6007,1.5542,1.5029,1.4576,1.4097,1.3509,1.3303,1.3232,1.3323,1.3665,1.3934,1.4019,1.3946,1.3872,1.3872,1.3417,1.2761,1.1912,1.1454,1.1178,1.1097,1.1097,1.1187,1.14,1.1412,1.1523,1.1794,1.1805,1.1805,1.1805,1.1805,1.1805,1.1805,1.1805,1.1805,1.1805,1.1869,1.1844,1.4086,1.3755,1.36,1.3041,1.2905,1.267,1.1802,0.0,1.0205,0.9708,0.9258,0.9099,0.9518,0.9961,1.0555,1.1443,1.1606,1.1888,1.2778,1.2866,1.2856,1.2895,1.2905,1.3071,1.3467,1.3506,1.3665,1.4133,1.4163,1.4455,1.5137,1.4416,1.4192,1.4676,1.426,1.4241,1.4696,1.4774,1.4774,1.4696,1.428,1.387,1.3437,1.3057,1.2905,1.2905,1.2905,1.2905,1.2905,1.2905,1.2905,1.2905,1.2905,1.361,1.4617,1.4617,1.5354,1.6337,1.6337,1.6337,1.6337,1.6337,1.5589,1.4812,1.541,1.561,1.5732,1.6324,1.6158,1.5881,1.6362,1.6145,1.5768,1.5768,1.5731,1.5542,1.5029,1.4865,1.4676,1.4123,1.3571,1.334,1.3752,1.3868,1.4019,1.439,1.443,1.4434,1.4434,1.4165,1.3941,1.3842,1.2851,1.2047,1.1752,1.1729,1.174,1.1747,1.1747,1.1772,1.1805,1.1805,1.1805,1.1805,1.1805,1.1805,1.1805,1.1805,1.1805,1.1816,1.2045,1.2024,1.4468,1.3802,1.32,1.2968,1.2905,1.267,1.1802,1.0919,1.0164,0.9702,0.9235,0.913,0.9875,1.013,1.051,1.1511,1.1194,1.1115,1.1985,1.2113,1.221,1.2461,1.2725,1.3145,1.3792,1.386,1.4143,1.4825,1.4668,1.4785,1.5381,1.4572,1.4309,1.4803,1.4328,1.4346,1.4813,1.4813,1.4813,1.4813,1.4609,1.4307,1.3851,1.3447,1.3262,1.3242,1.3013,1.2905,1.2929,1.3286,1.3443,1.3481,1.3836,1.4491,1.5231,1.5231,1.5788,1.65,1.65,1.65,1.65,1.65,1.6173,1.5832,1.6086,1.6139,1.6194,1.6423,1.6337,1.6233,1.6437,1.6337,1.6183,1.6183,1.6183,1.6115,1.5912,1.5612,1.5286,1.4999,1.4489,1.4154,1.4249,1.4454,1.4674,1.483,1.5104,1.527,1.527,1.5184,1.4961,1.4564,1.3736,1.3151,1.302,1.2628,1.24,1.24,1.2014,1.1805,1.1805,1.1805,1.1805,1.1805,1.1805,1.1891,1.2034,1.1891,1.1971,1.2286,1.2231,1.2231,1.4789,1.4095,1.3344,1.3002,1.2807,1.249,1.1773,1.0821,1.0043,0.9881,0.9451,0.9358,1.0184,1.0364,1.0649,1.1346,1.1025,1.0939,1.1682,1.1888,1.2093,1.2359,1.2695,1.3213,1.4026,1.4328,1.4738,1.5361,1.5137,1.5098,1.5391,1.4816,1.463,1.4961,1.4668,1.463,1.4971,1.4971,1.4971,1.4971,1.4872,1.4551,1.4094,1.3675,1.3437,1.3336,1.3218,1.3055,1.2968,1.3742,1.3956,1.3862,1.4468,1.5073,1.561,1.561,1.5986,1.65,1.65,1.65,1.65,1.65,1.65,1.65,1.65,1.65,1.65,1.65,1.65,1.65,1.65,1.65,1.65,1.65,1.6616,1.6743,1.6737,1.6284,1.5852,1.574,1.5135,1.4651,1.4665,1.4907,1.5149,1.5285,1.5595,1.5799,1.5799,1.5799,1.5619,1.5155,1.4663,1.4229,1.3827,1.3361,1.3104,1.3104,1.2475,1.21,1.21,1.191,1.1848,1.1923,1.1923,1.2045,1.2322,1.2138,1.2235,1.2601,1.2491,1.2539,1.5017,1.4686,1.4387,1.32,1.2559,1.2096,1.1682,1.0566,0.9756,1.0284,0.9966,0.9755,1.0308,1.0677,1.0909,1.0904,1.1291,1.1731,1.2135,1.2598,1.2895,1.2895,1.2905,1.3213,1.4026,1.4874,1.54,1.541,1.541,1.541,1.541,1.5371,1.54,1.5371,1.54,1.54,1.5371,1.5371,1.5371,1.54,1.498,1.4551,1.4094,1.3675,1.3281,1.2939,1.3529,1.3443,1.2992,1.4201,1.4329,1.3862,1.4468,1.5073,1.561,1.561,1.5986,1.65,1.65,1.65,1.65,1.65,1.65,1.65,1.65,1.65,1.65,1.65,1.65,1.65,1.65,1.65,1.65,1.65,1.6909,1.7291,1.7278,1.6755,1.6293,1.6297,1.533,1.4641,1.5028,1.5104,1.5255,1.5726,1.5799,1.5799,1.5799,1.5799,1.5799,1.5784,1.5784,1.523,1.3902,1.3782,1.3782,1.3782,1.3163,1.2786,1.2786,1.216,1.1918,1.2195,1.2205,1.2332,1.2601,1.2591,1.2591,1.261,1.2878,1.2995,1.4393,1.3961,1.3358,1.2268,1.1897,1.1682,1.1211,1.0576,1.0103,1.0239,0.9905,0.9826,1.061,1.0573,1.0649,1.1346,1.1254,1.1291,1.1731,1.2148,1.2549,1.2866,1.3678,1.4287,1.4551,1.5088,1.541,1.541,1.541,1.541,1.541,1.541,1.541,1.541,1.541,1.541,1.541,1.5892,1.6151,1.6151,1.6036,1.5756,1.531,1.4334,1.3685,1.3316,1.3208,1.3079,1.2992,1.4201,1.4594,1.4514,1.5533,1.6064,1.6216,1.6216,1.6337,1.65,1.65,1.65,1.65,1.65,1.65,1.65,1.65,1.65,1.65,1.65,1.65,1.65,1.65,1.65,1.6595,1.6951,1.7167,1.7504,1.8243,1.7937,1.7609,1.7882,1.7337,1.6835,1.6875,1.6496,1.6231,1.6383,1.6069,1.5799,1.5799,1.5799,1.5799,1.5799,1.5799,1.5634,1.52,1.4751,1.4483,1.4483,1.3855,1.3283,1.2831,1.2776,1.2584,1.2205,1.2382,1.2617,1.2878,1.2687,1.2687,1.2887,1.3156,1.326,1.3464,1.3195,1.2663,1.1818,1.1479,1.1261,1.0967,1.0459,1.0113,1.0438,1.0179,1.0105,1.0816,1.0697,1.0658,1.1091,1.1174,1.1271,1.1567,1.2113,1.2637,1.3066,1.4128,1.4813,1.4813,1.5166,1.541,1.541,1.541,1.541,1.541,1.541,1.541,1.541,1.5671,1.5816,1.5816,1.6539,1.6922,1.6922,1.6922,1.6606,1.5987,1.4974,1.4307,1.394,1.3686,1.3586,0.0,1.488,1.5242,1.5152,1.6129,1.65,1.65,1.65,1.65,1.65,1.65,1.65,1.65,1.65,1.65,1.65,1.65,1.65,1.65,1.65,1.6659,1.6795,1.6795,1.6951,1.7188,1.7524,1.7767,1.8086,1.8746,1.8597,1.8399,1.8641,1.8222,1.7807,1.7708,1.7145,1.6696,1.6696,1.6189,1.5799,1.5799,1.5799,1.5799,1.5799,1.5799,1.5799,1.5799,1.5424,1.517,1.517,1.4318,1.3615,1.3181,1.2947,1.2665,1.2352,1.2601,1.288,1.3147,1.2971,1.2997,1.3156,1.332,1.3396,0.0,1.2415,1.2309,1.1669,1.1183,1.0869,1.0869,1.0205,0.0,1.0714,1.0594,1.0466,1.0879,1.0943,1.0852,1.0498,1.1085,1.1626,1.1685,1.2436,1.315,1.3545,1.4326,1.4834,1.4834,1.5186,1.541,1.541,1.541,1.541,1.541,1.541,1.541,1.5468,1.6197,1.6539,1.6492,1.7219,1.7633,1.7688,1.7688,1.7182,1.6263,1.557,1.5052,1.4698,1.4698,1.4698,1.4789,1.5954,1.6117,1.5654,1.6259,1.65,1.65,1.65,1.65,1.65,1.65,1.65,1.65,1.65,1.65,1.65,1.65,1.65,1.6522,1.6552,1.6909,1.7312,1.7353,1.7727,1.8125,1.8165,1.8535,1.8912,1.8949,1.8861,1.8777,1.8777,1.8267,1.7848,1.7848,1.7294,1.683,1.683,1.6323,1.5918,1.5873,1.5858,1.5858,1.5799,1.5799,1.5813,1.5842,1.5813,1.5799,1.5799,1.4644,1.3955,1.391,1.2945,1.2508,1.271,1.2913,1.3147,1.3396,1.3396,1.3396,1.3396,1.3396,1.3396,1.1429,0.0,1.1806,1.0845,1.0528,1.043,0.0,0.9991,0.9658,0.9885,0.9862,0.9931,1.0387,1.0467,1.0745,1.1602,1.1682,1.1841,1.2494,1.3301,1.4004,1.4434,1.4951,1.5264,1.5264,1.5352,1.541,1.541,1.541,1.541,1.541,1.541,1.5671,1.6208,1.695,1.7062,1.6521,1.7219,1.7868,1.8447,1.8447,1.7934,1.7009,1.6291,1.5517,1.4698,1.4698,1.4698,1.4755,1.5499,1.572,1.5654,1.6259,1.65,1.65,1.65,1.65,1.65,1.65,1.65,1.65,1.65,1.65,1.65,1.65,1.65,1.6595,1.6993,1.7188,1.7394,1.7807,1.8007,1.8204,1.8612,1.8817,1.9006,1.9424,1.9483,1.9468,1.9468,1.9348,1.9226,1.9226,1.8672,1.8222,1.8222,1.7669,1.7071,1.6547,1.6488,1.6308,1.5858,1.5799,1.5898,1.615,1.5941,1.5799,1.5799,1.5735,1.5483,1.496,1.4615,1.4212,1.3762,1.3466,1.3337,1.3396,1.3396,1.3396,1.3396,1.3396,1.3396,1.1375,1.1404,1.1297,1.0725,1.0586,1.0586,1.0586,1.0059,0.9647,0.9836,0.9926,1.0087,1.0497,1.0775,1.1166,1.1871,1.1913,1.2178,1.3047,1.3695,1.427,1.4727,1.5156,1.541,1.541,1.541,1.541,1.541,1.541,1.541,1.541,1.541,1.5748,1.6492,1.6894,1.7219,1.7495,1.8248,1.8687,1.8835,1.8835,1.83,1.7323,1.662,1.6009,1.5511,1.5242,1.5265,1.5545,1.5876,1.5996,1.6051,1.638,1.65,1.65,1.65,1.65,1.65,1.65,1.65,1.65,1.65,1.65,1.6552,1.6795,1.6879,1.693,1.7209,1.7646,1.8106,1.84,1.865,1.8912,1.9207,1.9262,1.935,1.9639,1.9708,1.9708,1.9708,1.9708,1.9708,1.9708,1.9136,1.8702,1.8702,1.8132,1.7563,1.7204,1.716,1.6921,1.6278,1.638,1.6431,1.6303,1.6274,1.626,1.626,1.615,1.5905,1.5539,1.5275,1.5019,1.4787,1.4542,1.4403,1.4403,1.4403,1.4403,1.4403,1.4403,1.4403,1.1882,1.1655,1.1194,1.0962,1.0982,1.1012,1.0841,0.0,0.0,0.0,0.0,1.0556,1.1074,1.1462,1.1765,1.1995,1.222,1.2681,1.3471,1.3938,1.4367,1.4834,1.5195,1.541,1.541,1.541,1.541,1.541,1.541,1.541,1.541,1.5497,1.5921,1.6652,1.6793,1.7495,1.8847,1.9285,1.9333,1.9008,1.892,1.8367,1.7375,1.6812,1.6542,1.6466,1.5952,1.603,1.65,1.65,1.65,1.65,1.65,1.65,1.65,1.65,1.65,1.65,1.65,1.65,1.6522,1.6595,1.6616,1.671,1.725,1.7483,1.7544,1.7544,1.8204,1.893,1.9006,1.9369,1.9708,1.9708,1.9708,1.9708,1.9708,1.9708,1.9708,1.9708,1.9708,1.9708,1.9708,1.9226,1.8852,1.8852,1.8371,1.7968,1.7878,1.7848,1.7593,1.692,1.7075,1.7018,1.6571,1.6697,1.6841,1.6955,1.6358,1.6007,1.594,1.5611,1.5485,1.5595,1.5595,1.5595,1.5595,1.5595,1.5595,1.5595,1.5595,1.5595,1.2932,1.2955,1.2541,1.1293,1.1339,1.1447,1.0597,0.9971,0.9738,0.0,0.0,1.0794,1.2102,1.1992,1.21,1.3287,1.3383,1.3486,1.3938,1.4414,1.4844,1.5264,1.5371,1.541,1.541,1.541,1.541,1.541,1.541,1.541,1.541,1.5979,1.668,1.7413,1.8031,1.8768,1.9605,1.8674,1.847,1.8995,1.8531,1.8003,1.741,1.7295,1.696,1.6488,1.6402,1.6402,1.65,1.65,1.65,1.65,1.65,1.65,1.65,1.65,1.65,1.65,1.65,1.65,1.6573,1.7034,1.7167,1.7271,1.7807,1.8302,1.865,1.865,1.8765,1.9006,1.946,1.9639,1.9708,1.9708,1.9708,1.9708,1.9708,1.9708,1.9708,1.9708,1.9708,1.9708,1.9708,1.9618,1.9558,1.9558,1.9468,1.9181,1.8627,1.8553,1.8281,1.7624,1.7087,1.6999,1.7533,1.7101,1.7043,1.7612,1.728,1.6921,1.6578,1.6496,1.6201,1.5612,1.5595,1.5595,1.5595,1.5595,1.5595,1.5595,1.5595,1.5595,1.3113,1.3245,1.3081,1.24,1.2658,1.2815,1.1995,1.1286,1.0824,0.0,0.0,0.0,0.0,1.314,1.354,1.4042,1.3776,1.374,1.4394,1.4658,1.4941,1.5361,1.541,1.541,1.541,1.541,1.541,1.541,1.541,1.5584,1.5979,1.6322,1.7034,1.8167,1.8528,1.9032,1.9798,1.8931,1.8672,1.8995,1.8468,1.7915,1.7398,1.7049,1.6773,1.65,1.65,1.65,1.65,1.65,1.65,1.65,1.65,1.65,1.65,1.65,1.65,1.65,1.65,1.65,1.6595,1.7126,1.7312,1.7442,1.8283,1.8688,1.8968,1.9244,1.9332,1.9387,1.9639,1.9708,1.9708,1.9708,1.9708,1.9708,1.9708,1.9708,1.9708,1.9708,1.9708,1.9708,1.9708,1.9708,1.9708,1.9708,1.9708,1.9588,1.9271,1.9226,1.8986,1.8311,1.8342,1.842,1.839,1.8104,1.7895,1.7805,1.7658,1.7496,1.7304,1.7287,1.7134,1.6796,1.6796,1.6796,1.6796,1.6796,1.6796,1.6796,1.6796,1.6796,1.3241,1.3336,1.333,1.3621,1.3791,1.3795,1.3281,1.2456,1.1793,1.1878,1.2222,1.2724,1.338,1.4193,1.4653,1.4251,1.3871,1.3916,1.4678,1.4873,1.5049,1.5371,1.5555,1.5671,1.5671,1.5796,1.5911,1.5911,1.5911,1.6169,1.6736,1.6922,1.7467,1.8484,1.8787,1.9179,1.9623,1.9321,1.9058,1.8807,1.8279,1.7714,1.7162,1.6722,1.65,1.65,1.65,1.65,1.65,1.65,1.65,1.65,1.65,1.65,1.65,1.65,1.65,1.65,1.65,1.6573,1.6774,1.7312,1.7565,1.7847,1.8798,1.9095,1.9169,1.9584,1.9708,1.9708,1.9708,1.9708,1.9708,1.9708,1.9708,1.9708,1.9708,1.9708,1.9708,1.9708,1.9708,1.9708,1.9708,1.9708,1.9708,1.9708,1.9782,1.9839,1.9839,1.9927,1.98,1.9282,1.9656,1.9678,1.9086,1.9113,1.8843,1.8104,1.7901,1.78,1.78,1.78,1.78,1.78,1.78,1.78,1.78,1.78,1.78,1.78,1.78,1.78,1.3745,1.3629,1.3463,1.4525,1.4076,1.3364,1.337,1.2519,1.1968,1.2901,1.2666,1.2807,1.4385,1.4682,1.446,1.3696,1.3828,1.4221,1.4717,1.5117,1.5381,1.541,1.6007,1.6436,1.6436,1.7034,1.744,1.744,1.744,1.7457,1.7523,1.8178,1.8357,1.7976,1.9101,1.9521,1.9058,1.9497,1.9246,1.8254,1.7702,1.7137,1.655,1.6513,1.65,1.65,1.65,1.65,1.65,1.65,1.65,1.65,1.65,1.65,1.65,1.65,1.65,1.65,1.65,1.6837,1.7333,1.7867,1.838,1.8893,1.946,1.9639,1.9639,1.969,1.9708,1.9708,1.9708,1.9708,1.9708,1.9708,1.9708,1.9708,1.9708,1.9708,1.9708,1.9708,1.9708,1.9708,1.9708,1.9708,1.9708,1.9708,2.0017,2.0263,2.0263,2.0649,2.0894,2.083,2.0319,1.9856,1.949,1.9738,1.9608,1.886,1.8172,1.78,1.78,1.78,1.78,1.78,1.78,1.78,1.78,1.78,1.78,1.78,1.78,1.78,1.3333,1.3366,1.3461,1.462,1.4599,0.0,0.0,1.4205,1.4118,1.4126,1.3939,1.3983,1.4619,1.4415,1.4212,1.4451,1.4261,1.4348,1.5078,1.5312,1.541,1.541,1.6036,1.6492,1.6492,1.7163,1.7605,1.7605,1.7605,1.7786,1.8259,1.8555,1.8672,1.8584,1.9046,1.9208,1.9008,1.9196,1.9096,1.8682,1.8154,1.7601,1.7049,1.6663,1.65,1.65,1.65,1.65,1.65,1.65,1.65,1.65,1.65,1.65,1.65,1.65,1.65,1.6552,1.6879,1.7126,1.7442,1.8322,1.8727,1.9006,1.9548,1.9708,1.9708,1.9708,1.9708,1.9708,1.9708,1.9708,1.9708,1.9708,1.9708,1.9708,1.9708,1.9708,1.9708,1.9708,1.9708,1.9708,1.9708,1.9708,1.9708,1.9708,2.0052,2.0297,2.0297,2.0699,2.0991,2.0991,2.1001,2.0876,2.0572,2.0672,2.0416,1.9625,1.8882,1.8285,1.7817,1.78,1.78,1.78,1.78,1.78,1.78,1.78,1.78,1.78,1.78,1.78,1.2852,1.2952,1.3215,1.4356,0.0,0.0,1.5064,1.5219,1.5288,1.5028,1.4994,1.4926,1.4744,1.4473,1.4532,1.5331,1.5001,1.5008,1.5971,1.6083,1.6083,1.6083,1.6754,1.7191,1.7191,1.7841,1.8274,1.8274,1.8274,1.8516,1.9018,1.9044,1.9022,1.8995,1.9008,1.892,1.8744,1.8744,1.8744,1.8744,1.8204,1.7775,1.7385,1.6785,1.65,1.65,1.65,1.65,1.65,1.65,1.65,1.65,1.65,1.65,1.65,1.65,1.65,1.6573,1.7118,1.7415,1.7706,1.8612,1.9006,1.9225,1.9584,1.9708,1.9708,1.9708,1.9708,1.9708,1.9708,1.9708,1.9708,1.9708,1.9708,1.9708,1.9708,1.9708,1.9708,1.9708,1.9708,1.9708,1.9708,1.9818,1.9892,1.9892,2.0348,2.0699,2.0699,2.1118,2.14,2.14,2.166,2.1742,2.1552,2.1546,2.1211,2.042,1.9908,1.9181,1.82,1.7918,1.78,1.78,1.78,1.78,1.78,1.78,1.78,1.78,1.78,1.7856,1.24,1.24,1.2693,1.3821,1.4513,1.5047,1.558,1.524,1.4962,1.5492,1.5622,1.541,1.4823,1.503,1.5521,1.6098,1.6033,1.632,1.7445,1.7605,1.7605,1.7605,1.8259,1.8688,1.8688,1.9371,1.9798,1.9798,1.9798,1.9798,1.9798,1.9798,1.956,1.9008,1.8995,1.8732,1.8204,1.8191,1.8191,1.8191,1.7674,1.741,1.7385,1.6785,1.65,1.65,1.65,1.65,1.65,1.65,1.65,1.65,1.65,1.65,1.6522,1.6522,1.6522,1.6595,1.7126,1.7666,1.8204,1.8727,1.9262,1.9708,1.9708,1.9708,1.9708,1.9708,1.9708,1.9708,1.9708,1.9708,1.9708,1.9708,1.9708,1.9708,1.9708,1.9708,1.9708,1.9693,1.9708,1.9708,1.9711,2.0052,2.0314,2.0314,2.1038,2.1597,2.1613,2.2017,2.2296,2.2296,2.2296,2.2296,2.2296,2.2296,2.1989,2.1258,2.119,2.0513,1.8961,1.82,1.78,1.78,1.78,1.78,1.78,1.78,1.78,1.78,1.78,1.7949,1.25,1.2986,1.377,1.4488,1.5349,1.607,1.6233,1.6122,0.0,1.6141,1.6157,1.5973,1.5379,1.5701,1.6083,1.6191,1.6462,1.6886,1.7511,1.7605,1.7605,1.7605,1.8259,1.8688,1.8688,1.9371,1.9798,1.9798,1.9798,1.9648,1.9259,1.961,1.9208,1.7915,1.8242,1.8179,1.7626,1.7626,1.7815,1.8191,1.7674,1.741,1.7385,1.6785,1.65,1.65,1.65,1.65,1.65,1.65,1.65,1.65,1.65,1.6731,1.7055,1.7055,1.7312,1.7706,1.8243,1.8535,1.8746,1.9281,1.9566,1.9708,1.9708,1.9708,1.9708,1.9708,1.9708,1.9708,1.9708,1.9708,1.9708,1.9708,1.9708,1.9708,1.9708,1.9708,1.9782,2.007,2.0124,2.0227,2.0549,2.0715,2.0797,2.0797,2.1243,2.1718,2.2046,2.2209,2.2296,2.2296,2.2296,2.2296,2.2296,2.2296,2.2212,2.1989,2.1495,2.0513,1.8961,1.8691,1.8335,1.7817,1.78,1.78,1.78,1.78,1.78,1.78,1.7992,1.8114,1.2751,1.3388,1.4292,1.5022,1.5693,1.6245,1.645,1.65,1.6489,1.6445,1.6438,1.6325,1.5961,1.6137,1.6493,1.6937,1.7206,1.7627,1.8365,1.8463,1.8463,1.8463,1.8874,1.915,1.915,1.9527,1.9798,1.9798,1.961,1.9334,1.902,1.9083,1.8719,1.7762,1.7815,1.7714,1.741,1.7149,1.7325,1.7865,1.73,1.7162,1.7385,1.6785,1.65,1.65,1.65,1.65,1.65,1.65,1.65,1.65,1.65,1.6689,1.7013,1.7209,1.7504,1.7887,1.8631,1.8893,1.8987,1.953,1.9708,1.9708,1.9708,1.9708,1.9708,1.9708,1.9708,1.9708,1.9708,1.9708,1.9708,1.9708,1.9708,1.9708,1.9708,1.9708,1.9836,2.0212,2.0297,2.0449,2.0926,2.1134,2.1244,2.1244,2.1598,2.1988,2.2268,2.2296,2.2296,2.2296,2.2296,2.2296,2.2296,2.2296,2.2296,2.2296,2.187,2.1089,1.987,1.9502,1.919,1.887,1.887,1.8784,1.8594,1.8594,1.8428,1.8114,1.828,1.842,1.2998,1.3634,1.4412,1.5449,1.5731,1.5906,1.6387,1.65,1.6513,1.6563,1.6575,1.6588,1.6638,1.6607,1.6919,1.8073,1.8154,1.8488,1.9646,1.9798,1.9798,1.9798,1.9798,1.9798,1.9798,1.9761,1.9736,1.9736,1.9221,1.8907,1.8857,1.8455,1.8154,1.8053,1.7614,1.7373,1.7322,1.6773,1.6785,1.7322,1.6773,1.6798,1.731,1.676,1.65,1.65,1.65,1.65,1.65,1.65,1.65,1.65,1.65,1.6543,1.6637,1.7167,1.7415,1.7585,1.8612,1.8968,1.9043,1.9548,1.9708,1.9708,1.9708,1.9708,1.9708,1.9708,1.9708,1.9708,1.9708,1.9708,1.9708,1.9708,1.9708,1.9708,1.9708,1.9744,1.9874,2.028,2.0383,2.0566,2.1039,2.1414,2.1658,2.1658,2.2032,2.2296,2.2296,2.2296,2.2296,2.2296,2.2296,2.2296,2.2296,2.2296,2.2296,2.2296,2.2296,2.2006,2.1326,2.0521,2.0228,2.0483,2.0512,2.0311,1.9921,1.9921,1.9511,1.871,1.88,1.8913,1.2663,1.3639,1.4871,1.553,1.6019,1.635,1.6475,1.65,1.6626,1.7099,1.7222,1.7338,1.7765,1.8149,1.8511,1.8783,1.9158,1.9481,1.976,1.9798,1.9798,1.9798,1.9798,1.9798,1.9798,1.9409,1.9171,1.9171,1.8669,1.8191,1.7765,1.8028,1.7802,1.6889,1.72,1.7162,1.671,1.655,1.6563,1.6697,1.655,1.6563,1.6697,1.655,1.65,1.65,1.65,1.65,1.65,1.65,1.65,1.65,1.65,1.6752,1.7188,1.7727,1.8204,1.865,1.9299,1.953,1.9548,1.9657,1.9708,1.9708,1.9708,1.9708,1.9708,1.9708,1.9708,1.9708,1.9708,1.9708,1.9708,1.9708,1.9708,1.9708,1.9708,1.9962,2.0313,2.0764,2.1102,2.146,2.1945,2.2092,2.2149,2.2149,2.2237,2.2296,2.2296,2.2296,2.2296,2.2296,2.2296,2.2296,2.2296,2.2296,2.2296,2.2296,2.2296,2.2243,2.2073,2.1329,2.0803,2.0518,2.0512,2.0578,2.0733,2.0733,2.0332,1.9564,2.0412,2.0146,1.3074,1.4029,1.5085,1.5881,1.6287,1.65,1.65,1.65,1.6588,1.6911,1.6974,1.7061,1.7315,1.7603,1.798,1.8519,1.8832,1.9208,1.9723,1.9798,1.971,1.9459,1.9409,1.9321,1.9058,1.877,1.8607,1.8607,1.8129,1.7689,1.7423,1.7388,1.7102,1.6513,1.681,1.6823,1.65,1.65,1.65,1.65,1.65,1.65,1.65,1.65,1.65,1.65,1.65,1.65,1.65,1.65,1.65,1.6543,1.6774,1.7055,1.7415,1.8204,1.865,1.8987,1.9512,1.9708,1.9708,1.9708,1.9708,1.9708,1.9708,1.9708,1.9708,1.9708,1.9708,1.9708,1.9708,1.9708,1.9708,1.9708,1.9839,1.9982,1.9982,2.033,2.0764,2.1197,2.1445,2.1749,2.2223,2.2296,2.2296,2.2296,2.2296,2.2296,2.2296,2.2296,2.2296,2.2296,2.2296,2.2296,2.2296,2.2296,2.2296,2.2296,2.2296,2.2296,2.2296,2.2047,2.1879,2.1785,2.1946,2.2018,2.1963,2.1963,2.1548,2.0761,2.1325,2.1134,1.3292,1.4274,1.516,1.6224,1.65,1.65,1.65,1.65,1.65,1.65,1.65,1.6525,1.6647,1.6672,1.6999,1.8041,1.8204,1.8518,1.9397,1.9522,1.9371,1.8907,1.8857,1.8682,1.8242,1.8129,1.8066,1.8066,1.7551,1.7237,1.7237,1.6773,1.65,1.65,1.65,1.65,1.65,1.65,1.65,1.65,1.65,1.65,1.65,1.65,1.65,1.65,1.65,1.65,1.65,1.65,1.65,1.6531,1.6993,1.7209,1.7435,1.84,1.8817,1.8987,1.9512,1.9708,1.9708,1.9708,1.9708,1.9708,1.9708,1.9708,1.9708,1.9708,1.9708,1.9708,1.9708,1.9708,1.9708,1.9708,2.0017,2.0297,2.0297,2.0715,2.1197,2.1553,2.1673,2.1838,2.2223,2.2296,2.2296,2.2296,2.2296,2.2296,2.2296,2.2296,2.2296,2.2296,2.2296,2.2296,2.2296,2.2296,2.2296,2.2296,2.2296,2.2296,2.2296,2.2599,2.2923,2.3189,2.3533,2.3539,2.3208,2.3208,2.2795,2.2014,2.2143,2.2069,1.1867,1.3388,1.516,1.6224,1.65,1.65,1.65,1.65,1.65,1.65,1.65,1.6651,1.7174,1.7285,1.7476,1.8103,1.8204,1.8254,1.8392,1.8417,1.8392,1.8329,1.8317,1.8292,1.8216,1.7765,1.7511,1.7511,1.6961,1.6613,1.6613,1.6538,1.65,1.65,1.65,1.65,1.65,1.65,1.65,1.65,1.65,1.65,1.65,1.65,1.65,1.65,1.65,1.65,1.65,1.65,1.65,1.6522,1.6573,1.69,1.7374,1.7987,1.8496,1.8987,1.9512,1.9708,1.9708,1.9708,1.9708,1.9708,1.9708,1.9708,1.9708,1.9708,1.9708,1.9708,1.9708,1.9708,1.9708,1.9708,2.0017,2.0297,2.0297,2.0943,2.1553,2.1582,2.1928,2.2223,2.2296,2.2296,2.2296,2.2296,2.2296,2.2296,2.2296,2.2296,2.2296,2.2296,2.2296,2.2296,2.2296,2.2296,2.2296,2.2296,2.2296,2.2296,2.2296,2.2832,2.3153,2.32,2.3533,2.3821,2.4043,2.4043,2.3639,2.2859,2.3547,2.3134,1.2646,1.4142,1.5517,1.63,1.65,1.65,1.65,1.65,1.65,1.65,1.65,1.6575,1.6861,1.6898,1.7087,1.7652,1.7739,1.7852,1.8166,1.8204,1.8091,1.7777,1.7739,1.7614,1.7265,1.7036,1.6898,1.6898,1.6638,1.65,1.65,1.65,1.65,1.65,1.65,1.65,1.65,1.65,1.65,1.65,1.65,1.65,1.65,1.65,1.65,1.65,1.65,1.65,1.65,1.65,1.668,1.6972,1.7271,1.7727,1.8263,1.8798,1.9151,1.9387,1.9621,1.9708,1.9708,1.9708,1.9708,1.9708,1.9708,1.9708,1.9708,1.9708,1.9708,1.9708,1.9708,1.9708,1.9708,1.9708,2.0017,2.0297,2.0297,2.0975,2.1673,2.1943,2.2149,2.2296,2.2296,2.2296,2.2296,2.2296,2.2296,2.2296,2.2296,2.2296,2.2296,2.2296,2.2296,2.2296,2.2296,2.2296,2.2296,2.2296,2.2436,2.245,2.231,2.3056,2.3392,2.32,2.3714,2.4046,2.419,2.419,2.4025,2.3676,2.4043,2.3823,1.3262,1.4368,1.509,1.607,1.6287,1.6325,1.6463,1.65,1.65,1.65,1.65,1.65,1.65,1.65,1.666,1.7087,1.7162,1.73,1.7714,1.7777,1.7626,1.7212,1.7162,1.6986,1.6538,1.65,1.65,1.65,1.65,1.65,1.65,1.65,1.65,1.65,1.65,1.65,1.65,1.65,1.65,1.65,1.65,1.65,1.65,1.65,1.6573,1.6689,1.6552,1.65,1.6522,1.6659,1.693,1.7353,1.7887,1.8438,1.8949,1.935,1.9584,1.9708,1.9708,1.9708,1.9708,1.9708,1.9708,1.9708,1.9708,1.9708,1.9708,1.9708,1.9708,1.9708,1.9708,1.9708,1.9708,1.9708,1.9927,2.0244,2.0551,2.1149,2.1733,2.2209,2.2296,2.2296,2.2296,2.2296,2.2296,2.2296,2.2296,2.2296,2.2296,2.2296,2.2296,2.2296,2.2296,2.2296,2.2296,2.2296,2.2296,2.2296,2.255,2.2612,2.2398,2.3236,2.3577,2.3335,2.3907,2.419,2.419,2.419,2.419,2.419,2.419,2.419,1.2634,1.2914,1.3077,1.5203,1.5731,1.5869,1.6375,1.65,1.65,1.65,1.65,1.65,1.65,1.65,1.65,1.6538,1.6538,1.655,1.6575,1.6588,1.6575,1.655,1.6538,1.6525,1.65,1.65,1.65,1.65,1.65,1.65,1.65,1.65,1.65,1.65,1.65,1.65,1.65,1.65,1.65,1.65,1.65,1.65,1.65,1.65,1.6774,1.7229,1.671,1.65,1.6531,1.7055,1.7271,1.7353,1.7887,1.8438,1.8893,1.893,1.9262,1.9708,1.9708,1.9708,1.9708,1.9708,1.9708,1.9708,1.9708,1.9708,1.9708,1.9708,1.9708,1.9708,1.9708,1.9708,1.9708,1.9708,1.9726,2.0052,2.1275,2.1567,2.1733,2.2209,2.2296,2.2296,2.2296,2.2296,2.2296,2.2296,2.2296,2.2296,2.2296,2.2296,2.2296,2.2296,2.2296,2.2296,2.2296,2.2296,2.2296,2.2296,2.255,2.2695,2.2669,2.3335,2.3692,2.3671,2.4016,2.419,2.419,2.419,2.419,2.419,2.419,2.419,1.1964,1.2822,1.3682,1.4475,1.5185,1.5743,1.5944,1.6237,1.65,1.65,1.65,1.65,1.65,1.65,1.65,1.65,1.65,1.65,1.65,1.65,1.65,1.65,1.65,1.65,1.65,1.65,1.65,1.65,1.65,1.65,1.65,1.65,1.65,1.65,1.65,1.65,1.65,1.65,1.65,1.65,1.65,1.65,1.6522,1.6858,1.7105,1.7312,1.7463,1.7524,1.7544,1.7727,1.8027,1.8361,1.8535,1.8949,1.9406,1.9406,1.9548,1.9708,1.9708,1.9708,1.9708,1.9708,1.9708,1.9708,1.9708,1.9708,1.9708,1.9708,1.9708,1.9708,1.9708,1.9708,1.9708,1.9708,1.9708,1.9892,2.0616,2.1212,2.1658,2.1809,2.2092,2.2296,2.2296,2.2296,2.2296,2.2296,2.2296,2.2296,2.2296,2.2296,2.2296,2.2296,2.2296,2.2296,2.2296,2.2296,2.2296,2.2296,2.2742,2.2923,2.2708,2.3555,2.3917,2.3703,2.4026,2.419,2.419,2.419,2.419,2.419,2.419,2.419,1.1299,1.2256,1.341,1.3964,1.4481,1.5065,1.5806,1.6086,1.6338,1.6693,1.6774,1.6774,1.6774,1.6909,1.6909,1.6552,1.65,1.65,1.65,1.65,1.65,1.65,1.65,1.65,1.65,1.65,1.65,1.65,1.65,1.65,1.65,1.65,1.65,1.65,1.65,1.65,1.65,1.65,1.65,1.65,1.65,1.65,1.6522,1.6879,1.7229,1.7585,1.7947,1.8106,1.8125,1.8302,1.8574,1.893,1.9114,1.9387,1.9708,1.9708,1.9708,1.9708,1.9708,1.9708,1.9708,1.9708,1.9708,1.9708,1.9708,1.9708,1.9708,1.9708,1.9708,1.9708,1.9708,1.9708,1.9708,1.9708,1.9708,1.9764,2.0052,2.0781,2.143,2.1567,2.1988,2.2296,2.2296,2.2296,2.2296,2.2296,2.2296,2.2296,2.2296,2.2296,2.2296,2.2296,2.2296,2.2296,2.2296,2.2296,2.2296,2.2296,2.2857,2.3105,2.2885,2.3742,2.4094,2.3876,2.4084,2.419,2.419,2.419,2.419,2.419,2.419,2.419,0.0,0.0,0.0,1.3637,1.3609,1.3774,1.5923,1.6032,1.6003,1.7064,1.7286,1.7286,1.7319,1.7747,1.7767,1.671,1.6552,1.6552,1.6552,1.6552,1.6552,1.6552,1.6543,1.6522,1.6522,1.6522,1.65,1.65,1.65,1.65,1.65,1.65,1.65,1.65,1.65,1.65,1.65,1.65,1.65,1.65,1.65,1.65,1.65,1.6522,1.7097,1.8106,1.8125,1.8145,1.8204,1.8708,1.893,1.8987,1.9497,1.9708,1.9708,1.9708,1.9708,1.9708,1.9708,1.9708,1.9708,1.9708,1.9708,1.9708,1.9708,1.9708,1.9708,1.9708,1.9708,1.9708,1.9708,1.9708,1.9708,1.9708,1.9708,1.9708,1.9726,2.0396,2.1134,2.1506,2.1957,2.2296,2.2296,2.2296,2.2296,2.2296,2.2296,2.2296,2.2296,2.2296,2.2296,2.2296,2.2296,2.2296,2.2296,2.2296,2.2296,2.2296,2.2857,2.3189,2.32,2.3827,2.418,2.419,2.419,2.419,2.419,2.419,2.419,2.419,2.419,2.419,1.082,0.0,0.0,0.0,0.0,0.0,1.4068,1.4872,1.5795,1.6573,1.6955,1.7291,1.7785,1.8007,1.8007,1.7706,1.7666,1.7666,1.7666,1.7666,1.7666,1.7666,1.7312,1.7076,1.7076,1.6731,1.65,1.65,1.65,1.65,1.65,1.65,1.65,1.65,1.65,1.65,1.65,1.65,1.65,1.65,1.65,1.65,1.6522,1.6888,1.7442,1.8125,1.8516,1.8893,1.9262,1.9424,1.9479,1.9479,1.9639,1.9708,1.9708,1.9708,1.9708,1.9708,1.9708,1.9708,1.9708,1.9708,1.9708,1.9708,1.9708,1.9708,1.9708,1.9708,1.9708,1.9708,1.9708,1.9708,1.9708,1.9708,1.9708,1.9782,2.0072,2.0599,2.1023,2.1134,2.1781,2.2296,2.2296,2.2296,2.2296,2.2296,2.2296,2.2296,2.2296,2.2296,2.2296,2.2296,2.2296,2.2296,2.2296,2.2296,2.2296,2.2296,2.2643,2.2947,2.3189,2.3599,2.3947,2.4208,2.419,2.419,2.419,2.419,2.419,2.419,2.419,2.419,1.1573,1.2124,1.2826,1.2671,0.0,0.0,1.4105,1.4592,1.5345,1.6861,1.7183,1.7444,1.8287,1.8612,1.8688,1.8477,1.8612,1.8612,1.8165,1.8106,1.8106,1.8106,1.7827,1.7626,1.7626,1.7146,1.6837,1.6837,1.6637,1.65,1.65,1.65,1.65,1.65,1.65,1.65,1.65,1.65,1.65,1.65,1.6731,1.671,1.6522,1.7055,1.7585,1.8125,1.8438,1.9006,1.9708,1.9708,1.9708,1.9708,1.9708,1.9708,1.9708,1.9708,1.9708,1.9708,1.9708,1.9708,1.9708,1.9708,1.9708,1.9708,1.9708,1.9708,1.9708,1.9708,1.9708,1.9708,1.9708,1.9708,1.9729,1.9909,1.9947,2.007,2.05,2.0927,2.1244,2.1244,2.1825,2.2296,2.2296,2.2296,2.2296,2.2296,2.2296,2.2296,2.2296,2.2296,2.2296,2.2296,2.2296,2.2296,2.2296,2.2296,2.2296,2.2296,2.2682,2.2996,2.3189,2.366,2.3996,2.4208,2.419,2.419,2.419,2.419,2.419,2.419,2.419,2.419,1.273,1.2626,1.2893,1.3783,1.3338,0.0,1.4927,1.4721,1.4859,1.724,1.7431,1.7492,1.8506,1.9189,1.9414,1.8854,1.9284,1.9369,1.8419,1.8283,1.8283,1.8283,1.8243,1.8204,1.8204,1.7706,1.7394,1.7394,1.69,1.6552,1.65,1.65,1.65,1.65,1.65,1.65,1.65,1.65,1.65,1.6522,1.7034,1.7055,1.6616,1.7126,1.7686,1.8204,1.8204,1.8746,1.9708,1.9708,1.9708,1.9708,1.9708,1.9708,1.9708,1.9765,1.9768,1.9708,1.9798,1.9768,1.9708,1.9708,1.9708,1.9708,1.9708,1.9708,1.9723,1.9798,1.9768,1.9723,1.9798,1.9768,1.98,2.0195,2.0297,2.0449,2.0959,2.1353,2.1628,2.1673,2.2017,2.2296,2.2296,2.2296,2.2296,2.2296,2.2296,2.2296,2.2296,2.2296,2.2296,2.2296,2.2296,2.2296,2.2296,2.2296,2.2296,2.2296,2.2819,2.3153,2.32,2.3806,2.4161,2.419,2.419,2.419,2.419,2.419,2.419,2.419,2.419,2.4153,1.3795,1.4085,1.4255,1.3541,1.3898,0.0,1.3257,1.3843,1.4761,1.531,1.5927,1.6565,1.7317,1.8234,1.8683,1.8045,1.8934,1.9621,1.9424,1.9387,1.9387,1.9387,1.9006,1.8727,1.8727,1.8263,1.7947,1.7947,1.7442,1.6951,1.6522,1.65,1.65,1.65,1.65,1.65,1.65,1.65,1.65,1.6522,1.7034,1.725,1.7146,1.7706,1.8243,1.8727,1.8727,1.9114,1.9708,1.9708,1.9708,1.9708,1.9708,1.9708,1.9768,2.0318,2.0168,1.9783,2.0318,2.0154,1.9708,1.9708,1.9708,1.9708,1.9708,1.9708,1.9813,2.0363,2.0109,1.9828,2.0363,2.0094,1.98,2.0195,2.0297,2.0533,2.1306,2.1536,2.1703,2.2092,2.2237,2.2296,2.2296,2.2296,2.2296,2.2296,2.2296,2.2296,2.2296,2.2296,2.2296,2.2296,2.2296,2.2296,2.2296,2.2296,2.2296,2.2296,2.2616,2.2923,2.3189,2.3577,2.3917,2.419,2.419,2.419,2.419,2.419,2.419,2.419,2.419,2.3859,1.4896,1.4896,1.4833,1.4525,1.4683,0.0,0.0,1.4217,1.472,1.5815,1.5734,1.5862,1.7257,1.7721,1.7975,1.8175,1.8762,1.9196,1.9196,1.9498,1.9708,1.9708,1.946,1.9299,1.9299,1.8817,1.84,1.8125,1.7605,1.7167,1.6909,1.6659,1.65,1.65,1.65,1.65,1.65,1.65,1.65,1.6522,1.7312,1.7565,1.7333,1.8145,1.865,1.8893,1.8893,1.9207,1.9708,1.9708,1.9708,1.9708,1.9708,1.9708,1.9783,2.0434,2.0498,2.0243,2.0583,2.0483,2.0139,1.9813,1.9708,1.9708,1.9708,1.9929,2.0273,2.0617,2.0707,2.0767,2.1111,2.0707,2.0367,2.1014,2.0885,2.0878,2.1764,2.1943,2.2017,2.2237,2.2296,2.2296,2.2296,2.2296,2.2296,2.2296,2.2296,2.2296,2.2296,2.2296,2.2296,2.2296,2.2296,2.2296,2.2296,2.2296,2.2363,2.2487,2.2776,2.3105,2.3444,2.3774,2.4026,2.4208,2.419,2.419,2.419,2.419,2.419,2.419,2.419,2.3768,1.5856,1.553,1.5286,1.5618,1.5462,1.5273,0.0,0.0,0.0,1.6498,1.5911,1.5571,1.714,1.7247,1.7338,1.8053,1.8403,1.8527,1.8341,1.8949,1.9409,1.9495,1.9633,1.9708,1.9708,1.9196,1.8688,1.8288,1.7738,1.7383,1.7299,1.69,1.6616,1.65,1.6595,1.6659,1.6659,1.6659,1.671,1.6816,1.7686,1.7927,1.7646,1.8612,1.9043,1.9043,1.9043,1.9299,1.9708,1.9708,1.9708,1.9708,1.9824,1.9902,1.9989,2.0797,2.1006,2.0897,2.1051,2.0932,2.0598,2.0064,1.9902,1.9902,1.9902,2.0363,2.0912,2.1051,2.138,2.1724,2.1859,2.1458,2.1234,2.2014,2.1694,2.1455,2.2324,2.2324,2.2194,2.2282,2.2296,2.2296,2.2296,2.2296,2.2296,2.2296,2.2296,2.2296,2.2296,2.2296,2.2296,2.2296,2.2296,2.2296,2.2296,2.2296,2.2412,2.2682,2.3021,2.3357,2.3682,2.4016,2.419,2.419,2.419,2.419,2.419,2.419,2.419,2.419,2.419,2.3694,1.64,1.635,1.6233,1.5806,1.6019,1.6095,1.5198,0.0,1.5457,1.5214,0.0,1.6063,1.583,0.0,0.0,1.6389,1.7342,1.7878,1.7053,1.7714,1.8411,1.8772,1.9348,1.9708,1.9708,1.9098,1.875,1.8797,1.8194,1.7673,1.7327,1.7229,1.6993,1.6522,1.6951,1.7209,1.7209,1.7209,1.7442,1.7927,1.8046,1.8322,1.8727,1.935,1.9603,1.9603,1.9603,1.9639,1.9708,1.9708,1.9708,1.9768,2.0363,2.0583,2.0752,2.2014,2.2104,2.1665,2.2269,2.1695,2.0688,2.0598,2.0583,2.0583,2.0583,2.1051,2.171,2.2313,2.2104,2.1829,2.2433,2.2402,2.2344,2.2833,2.2465,2.22,2.3078,2.2423,2.1794,2.2223,2.2296,2.2296,2.2296,2.2296,2.2296,2.2296,2.2296,2.2296,2.2296,2.2296,2.2296,2.2296,2.2296,2.2296,2.2296,2.2296,2.2412,2.2682,2.3021,2.3357,2.3682,2.4016,2.419,2.419,2.419,2.419,2.419,2.419,2.419,2.419,2.419,2.3391,1.65,1.676,1.6886,1.6321,1.6597,1.681,1.6007,1.5756,1.5718,1.5806,0.0,0.0,0.0,0.0,0.0,0.0,1.6994,1.7066,1.6428,1.7015,1.7814,1.8606,1.8409,1.8431,1.9059,1.8867,1.8884,1.9343,1.8462,1.7996,1.8221,1.7927,1.7666,1.7442,1.7646,1.7767,1.7767,1.7767,1.7887,1.8106,1.8419,1.8669,1.893,1.946,1.9708,1.9708,1.9708,1.9708,1.9708,1.9708,1.9708,1.9813,2.0872,2.1051,2.0853,2.2209,2.2523,2.2328,2.2598,2.2089,2.1216,2.0823,2.0957,2.1276,2.1276,2.1739,2.2343,2.2628,2.2763,2.2862,2.3146,2.2898,2.2683,2.3113,2.2697,2.2464,2.3373,2.3174,2.2959,2.3487,2.3224,2.2936,2.2936,2.2581,2.2296,2.2296,2.2296,2.2296,2.2296,2.2296,2.2296,2.2296,2.2296,2.2296,2.2296,2.2296,2.2508,2.296,2.3488,2.3837,2.3986,2.4132,2.419,2.419,2.419,2.419,2.419,2.419,2.419,2.419,2.419,2.3584,1.6538,1.6936,1.7272,1.6638,1.6835,1.7036,1.6588,1.6208,1.6032,1.6412,1.6102,0.0,0.0,0.0,1.6272,0.0,0.0,1.6612,1.6089,1.6391,1.7043,1.8074,1.7855,1.7888,1.8685,1.8557,1.8777,1.9648,1.8549,1.8151,1.8868,1.8535,1.8263,1.8106,1.8243,1.8322,1.8322,1.8322,1.84,1.8535,1.8779,1.8987,1.9132,1.953,1.9708,1.9708,1.9708,1.9708,1.9708,1.9708,1.9708,1.9828,2.119,2.1395,2.1122,2.2463,2.2957,2.2957,2.2957,2.2523,2.1859,2.1201,2.1425,2.1964,2.1964,2.2433,2.2957,2.2957,2.3251,2.3595,2.3595,2.3378,2.3238,2.3517,2.3208,2.303,2.383,2.3868,2.3901,2.4397,2.4068,2.3644,2.3427,2.2801,2.2296,2.2296,2.2296,2.2296,2.2296,2.2296,2.2296,2.2296,2.2296,2.2296,2.2296,2.2296,2.2561,2.3153,2.3827,2.419,2.419,2.419,2.419,2.419,2.419,2.419,2.419,2.419,2.419,2.419,2.419,2.3768,1.6651,1.6936,1.7272,1.6638,1.6513,1.6525,1.65,1.6488,1.6475,1.65,1.7306,1.7853,1.7375,1.7701,0.0,0.0,0.0,0.0,0.0,1.5663,1.5901,1.6844,1.8083,1.8854,1.8902,1.8187,1.8267,1.9603,1.8461,1.8062,1.8873,1.8874,1.8631,1.8125,1.8593,1.8874,1.8874,1.8874,1.9132,1.9639,1.9151,1.9169,1.9672,1.969,1.9708,1.9708,1.9708,1.9708,1.9708,1.9708,1.9708,1.9828,2.119,2.168,2.1814,2.3101,2.3565,2.3565,2.3565,2.3182,2.2568,2.1874,2.2134,2.2658,2.2658,2.3092,2.3565,2.3565,2.3595,2.3595,2.3595,2.3954,2.4358,2.4358,2.4244,2.4259,2.4669,2.4297,2.4016,2.4413,2.4474,2.4237,2.3511,2.2801,2.2296,2.2296,2.2296,2.2296,2.2296,2.2296,2.2296,2.2296,2.2296,2.2296,2.2296,2.2296,2.2561,2.3153,2.3827,2.419,2.419,2.419,2.419,2.419,2.419,2.419,2.419,2.419,2.419,2.419,2.419,2.3768,1.8402,1.8963,1.9391,1.7996,1.8183,1.8537,1.7739,1.7573,1.7514,1.7112,1.7629,1.8089,1.7875,1.7913,0.0,0.0,0.0,0.0,0.0,1.5909,1.5871,1.596,1.7089,1.762,1.7107,1.7516,1.8162,1.8984,1.8627,1.8507,1.8887,1.8893,1.8817,1.8631,1.8817,1.9062,1.9424,1.9424,1.953,1.9708,1.953,1.953,1.9708,1.9708,1.9708,1.9708,1.9708,1.9944,2.0363,2.0363,2.0617,2.1096,2.2014,2.2358,2.2463,2.3295,2.3595,2.3535,2.3152,2.3137,2.3176,2.2568,2.2793,2.3295,2.3295,2.343,2.3595,2.3595,2.3595,2.3595,2.3595,2.373,2.3948,2.4307,2.438,2.4566,2.542,2.5418,2.5426,2.5881,2.5558,2.4983,2.4254,2.3526,2.2868,2.2364,2.2296,2.2296,2.2296,2.2296,2.2296,2.2296,2.2296,2.2296,2.2296,2.266,2.2977,2.3177,2.3827,2.419,2.419,2.419,2.419,2.419,2.419,2.419,2.419,2.419,2.419,2.419,2.419,2.4043,1.961,2.0147,2.056,1.9214,1.9437,1.9717,1.8685,1.8494,1.8419,1.8015,1.8207,1.8584,1.9019,1.8788,0.0,0.0,0.0,0.0,0.0,1.5974,1.5702,1.4784,1.6159,1.7078,1.6834,1.7023,1.768,1.8969,1.8386,1.8342,1.9148,1.9188,1.9188,1.9188,1.9188,1.935,1.9708,1.9708,1.9708,1.9708,1.9708,1.9708,1.9708,1.9708,1.9708,1.9708,1.9708,2.0079,2.0703,2.0703,2.1111,2.1754,2.2448,2.2703,2.2763,2.337,2.3595,2.3535,2.3152,2.3266,2.3535,2.3152,2.3266,2.3595,2.3595,2.3595,2.3595,2.3595,2.3595,2.3595,2.3595,2.3595,2.3745,2.4266,2.4552,2.493,2.5815,2.6138,2.6332,2.6641,2.6319,2.5761,2.5017,2.4288,2.3444,2.2448,2.2296,2.2296,2.2296,2.2296,2.2296,2.2296,2.2296,2.2335,2.2422,2.292,2.3247,2.3369,2.3896,2.419,2.419,2.419,2.419,2.419,2.419,2.419,2.419,2.419,2.419,2.419,2.419,2.419]}]]